[[{"header":{"parameterUnit":"m.s-1","parameterCategory":1,"la1":30.6,"la2":28.766,"lo1":-90.7593,"lo2":-88.6598,"dy":0.0162,"dx":0.0183,"nx":116,"ny":114,"refTime":"2023-09-19T00:00:00:Z","depth":0,"parameterNumber":2,"parameterNumberName":"U-component_of_WINDS"},"data":[0.0,0.0,0.0,0.0,0.0,0.0,0.0,0.0,0.0,0.0,0.0,0.0,0.0,0.0,0.0,0.0,0.0,0.0,0.0,0.0,0.0,0.0,0.0,0.0,0.0,0.0,0.0,0.0,0.0,0.0,0.0,0.0,0.0,0.0,0.0,0.0,0.0,0.0,0.0,0.0,0.0,0.0,0.0,0.0,0.0,0.0,0.0,0.0,0.0,0.0,0.0,0.0,0.0,0.0,0.0,0.0,0.0,0.0,0.0,0.0,0.0,0.0,0.0,0.0,0.0,0.0,0.0,0.0,0.0,0.0,0.0,0.0,0.0,0.0,0.0,0.0,0.0,0.0,0.0,0.0,0.0,0.0,0.0,0.0,0.0,0.0,0.0,0.0,0.0,0.0,0.0,0.0,0.0,0.0,0.0,0.0,0.0,0.0,0.0,0.0,0.0,0.0,0.0,0.0,0.0,0.0,0.0,0.0,0.0,0.0,0.0,0.0,0.0,0.0,0.0,0.0,0.0,0.0,0.0,0.0,0.0,0.0,0.0,0.0,0.0,0.0,0.0,0.0,0.0,0.0,0.0,0.0,0.0,0.0,0.0,0.0,0.0,0.0,0.0,0.0,0.0,0.0,0.0,0.0,0.0,0.0,0.0,0.0,0.0,0.0,0.0,0.0,0.0,0.0,0.0,0.0,0.0,0.0,0.0,0.0,0.0,0.0,0.0,0.0,0.0,0.0,0.0,0.0,0.0,0.0,0.0,0.0,0.0,0.0,0.0,0.0,0.0,0.0,0.0,0.0,0.0,0.0,0.0,0.0,0.0,0.0,0.0,0.0,0.0,0.0,0.0,0.0,0.0,0.0,0.0,0.0,0.0,0.0,0.0,0.0,0.0,0.0,0.0,0.0,0.0,0.0,0.0,0.0,0.0,0.0,0.0,0.0,0.0,0.0,0.0,0.0,0.0,0.0,0.0,0.0,0.0,0.0,0.0,0.0,0.0,0.0,0.0,0.0,0.0,0.0,0.0,0.0,0.0,0.0,0.0,0.0,0.0,0.0,0.0,0.0,0.0,0.0,0.0,0.0,0.0,0.0,0.0,0.0,0.0,0.0,0.0,0.0,0.0,0.0,0.0,0.0,0.0,0.0,0.0,0.0,0.0,0.0,0.0,0.0,0.0,0.0,0.0,0.0,0.0,0.0,0.0,0.0,0.0,0.0,0.0,0.0,0.0,0.0,0.0,0.0,0.0,0.0,0.0,0.0,0.0,0.0,0.0,0.0,0.0,0.0,0.0,0.0,0.0,0.0,0.0,0.0,0.0,0.0,0.0,0.0,0.0,0.0,0.0,0.0,0.0,0.0,0.0,0.0,0.0,0.0,0.0,0.0,0.0,0.0,0.0,0.0,0.0,0.0,0.0,0.0,0.0,0.0,0.0,0.0,0.0,0.0,0.0,0.0,0.0,0.0,0.0,0.0,0.0,0.0,0.0,0.0,0.0,0.0,0.0,0.0,0.0,0.0,0.0,0.0,0.0,0.0,0.0,0.0,0.0,0.0,0.0,0.0,0.0,0.0,0.0,0.0,0.0,0.0,0.0,0.0,0.0,0.0,0.0,0.0,0.0,0.0,0.0,0.0,0.0,0.0,0.0,0.0,0.0,0.0,0.0,0.0,0.0,0.0,0.0,0.0,0.0,0.0,0.0,0.0,0.0,0.0,0.0,0.0,0.0,0.0,0.0,0.0,0.0,0.0,0.0,0.0,0.0,0.0,0.0,0.0,0.0,0.0,0.0,0.0,0.0,0.0,0.0,0.0,0.0,0.0,0.0,0.0,0.0,0.0,0.0,0.0,0.0,0.0,0.0,0.0,0.0,0.0,0.0,0.0,0.0,0.0,0.0,0.0,0.0,0.0,0.0,0.0,0.0,0.0,0.0,0.0,0.0,0.0,0.0,0.0,0.0,0.0,0.0,0.0,0.0,0.0,0.0,0.0,0.0,0.0,0.0,0.0,0.0,0.0,0.0,0.0,0.0,0.0,0.0,0.0,0.0,0.0,0.0,0.0,0.0,0.0,0.0,0.0,0.0,0.0,0.0,0.0,0.0,0.0,0.0,0.0,0.0,0.0,0.0,0.0,0.0,0.0,0.0,0.0,0.0,0.0,0.0,0.0,0.0,0.0,0.0,0.0,0.0,0.0,0.0,0.0,0.0,0.0,0.0,0.0,0.0,0.0,0.0,0.0,0.0,0.0,0.0,0.0,0.0,0.0,0.0,0.0,0.0,0.0,0.0,0.0,0.0,0.0,0.0,0.0,0.0,0.0,0.0,0.0,0.0,0.0,0.0,0.0,0.0,0.0,0.0,0.0,0.0,0.0,0.0,0.0,0.0,0.0,0.0,0.0,0.0,0.0,0.0,0.0,0.0,0.0,0.0,0.0,0.0,0.0,0.0,0.0,0.0,0.0,0.0,0.0,0.0,0.0,0.0,0.0,0.0,0.0,0.0,0.0,0.0,0.0,0.0,0.0,0.0,0.0,0.0,0.0,0.0,0.0,0.0,0.0,0.0,0.0,0.0,0.0,0.0,0.0,0.0,0.0,0.0,0.0,0.0,0.0,0.0,0.0,0.0,0.0,0.0,0.0,0.0,0.0,0.0,0.0,0.0,0.0,0.0,0.0,0.0,0.0,0.0,0.0,0.0,0.0,0.0,0.0,0.0,0.0,0.0,0.0,0.0,0.0,0.0,0.0,0.0,0.0,0.0,0.0,0.0,0.0,0.0,0.0,0.0,0.0,0.0,0.0,0.0,0.0,0.0,0.0,0.0,0.0,0.0,0.0,0.0,0.0,0.0,0.0,0.0,0.0,0.0,0.0,0.0,0.0,0.0,0.0,0.0,0.0,0.0,0.0,0.0,0.0,0.0,0.0,0.0,0.0,0.0,0.0,0.0,0.0,0.0,0.0,0.0,0.0,0.0,0.0,0.0,0.0,0.0,0.0,0.0,0.0,0.0,0.0,0.0,0.0,0.0,0.0,0.0,0.0,0.0,0.0,0.0,0.0,0.0,0.0,0.0,0.0,0.0,0.0,0.0,0.0,0.0,0.0,0.0,0.0,0.0,0.0,0.0,0.0,0.0,0.0,0.0,0.0,0.0,0.0,0.0,0.0,0.0,0.0,0.0,0.0,0.0,0.0,0.0,0.0,0.0,0.0,0.0,0.0,0.0,0.0,0.0,0.0,0.0,0.0,0.0,0.0,0.0,0.0,0.0,0.0,0.0,0.0,0.0,0.0,0.0,0.0,0.0,0.0,0.0,0.0,0.0,0.0,0.0,0.0,0.0,0.0,0.0,0.0,0.0,0.0,0.0,0.0,0.0,0.0,0.0,0.0,0.0,0.0,0.0,0.0,0.0,0.0,0.0,0.0,0.0,0.0,0.0,0.0,0.0,0.0,0.0,0.0,0.0,0.0,0.0,0.0,0.0,0.0,0.0,0.0,0.0,0.0,0.0,0.0,0.0,0.0,0.0,0.0,0.0,0.0,0.0,0.0,0.0,0.0,0.0,0.0,0.0,0.0,0.0,0.0,0.0,0.0,0.0,0.0,0.0,0.0,0.0,0.0,0.0,0.0,0.0,0.0,0.0,0.0,0.0,0.0,0.0,0.0,0.0,0.0,0.0,0.0,0.0,0.0,0.0,0.0,0.0,0.0,0.0,0.0,0.0,0.0,0.0,0.0,0.0,0.0,0.0,0.0,0.0,0.0,0.0,0.0,0.0,0.0,0.0,0.0,0.0,0.0,0.0,0.0,0.0,0.0,0.0,0.0,0.0,0.0,0.0,0.0,0.0,0.0,0.0,0.0,0.0,0.0,0.0,0.0,0.0,0.0,0.0,0.0,0.0,0.0,0.0,0.0,0.0,0.0,0.0,0.0,0.0,0.0,0.0,0.0,0.0,0.0,0.0,0.0,0.0,0.0,0.0,0.0,0.0,0.0,0.0,0.0,0.0,0.0,0.0,0.0,0.0,0.0,0.0,0.0,0.0,0.0,0.0,0.0,0.0,0.0,0.0,0.0,0.0,0.0,0.0,0.0,0.0,0.0,0.0,0.0,0.0,0.0,0.0,0.0,0.0,0.0,0.0,0.0,0.0,0.0,0.0,0.0,0.0,0.0,0.0,0.0,0.0,0.0,0.0,0.0,0.0,0.0,0.0,0.0,0.0,0.0,0.0,0.0,0.0,0.0,0.0,0.0,0.0,0.0,0.0,0.0,0.0,0.0,0.0,0.0,0.0,0.0,0.0,0.0,0.0,0.0,0.0,0.0,0.0,0.0,0.0,0.0,0.0,0.0,0.0,0.0,0.0,0.0,0.0,0.0,0.0,0.0,0.0,0.0,0.0,0.0,0.0,0.0,0.0,0.0,0.0,0.0,0.0,0.0,0.0,0.0,0.0,0.0,0.0,0.0,0.0,0.0,0.0,0.0,0.0,0.0,0.0,0.0,0.0,0.0,0.0,0.0,0.0,0.0,0.0,0.0,0.0,0.0,0.0,0.0,0.0,0.0,0.0,0.0,0.0,0.0,0.0,0.0,0.0,0.0,0.0,0.0,0.0,0.0,0.0,0.0,0.0,0.0,0.0,0.0,0.0,0.0,0.0,0.0,0.0,0.0,0.0,0.0,0.0,0.0,0.0,0.0,0.0,0.0,0.0,0.0,0.0,0.0,0.0,0.0,0.0,0.0,0.0,0.0,0.0,0.0,0.0,0.0,0.0,0.0,0.0,0.0,0.0,0.0,0.0,0.0,0.0,0.0,0.0,0.0,0.0,0.0,0.0,0.0,0.0,0.0,0.0,0.0,0.0,0.0,0.0,0.0,0.0,0.0,0.0,0.0,0.0,0.0,0.0,0.0,0.0,0.0,0.0,0.0,0.0,0.0,0.0,0.0,0.0,0.0,0.0,0.0,0.0,0.0,0.0,0.0,0.0,0.0,0.0,0.0,0.0,0.0,0.0,0.0,0.0,0.0,0.0,0.0,0.0,0.0,0.0,0.0,0.0,0.0,0.0,0.0,0.0,0.0,0.0,0.0,0.0,0.0,0.0,0.0,0.0,0.0,0.0,0.0,0.0,0.0,0.0,0.0,0.0,0.0,0.0,0.0,0.0,0.0,0.0,0.0,0.0,0.0,0.0,0.0,0.0,0.0,0.0,0.0,0.0,0.0,0.0,0.0,0.0,0.0,0.0,0.0,0.0,0.0,0.0,0.0,0.0,0.0,0.0,0.0,0.0,0.0,0.0,0.0,0.0,0.0,0.0,0.0,0.0,0.0,0.0,0.0,0.0,0.0,0.0,0.0,0.0,0.0,0.0,0.0,0.0,0.0,0.0,0.0,0.0,0.0,0.0,0.0,0.0,0.0,0.0,0.0,0.0,0.0,0.0,0.0,0.0,0.0,0.0,0.0,0.0,0.0,0.0,0.0,0.0,0.0,0.0,0.0,0.0,0.0,0.0,0.0,0.0,0.0,0.0,0.0,0.0,0.0,0.0,0.0,0.0,0.0,0.0,0.0,0.0,0.0,0.0,0.0,0.0,0.0,0.0,0.0,0.0,0.0,0.0,0.0,0.0,0.0,0.0,0.0,0.0,0.0,0.0,0.0,0.0,0.0,0.0,0.0,0.0,0.0,0.0,0.0,0.0,0.0,0.0,0.0,0.0,0.0,0.0,0.0,0.0,0.0,0.0,0.0,0.0,0.0,0.0,0.0,0.0,0.0,0.0,0.0,0.0,0.0,0.0,0.0,0.0,0.0,0.0,0.0,0.0,0.0,0.0,0.0,0.0,0.0,0.0,0.0,0.0,0.0,0.0,0.0,0.0,0.0,0.0,0.0,0.0,0.0,0.0,0.0,0.0,0.0,0.0,0.0,0.0,0.0,0.0,0.0,0.0,0.0,0.0,0.0,0.0,0.0,0.0,0.0,0.0,0.0,0.0,0.0,0.0,0.0,0.0,0.0,0.0,0.0,0.0,0.0,0.0,0.0,0.0,0.0,0.0,0.0,0.0,0.0,0.0,0.0,0.0,0.0,0.0,0.0,0.0,0.0,0.0,0.0,0.0,0.0,0.0,0.0,0.0,0.0,0.0,0.0,0.0,0.0,0.0,0.0,0.0,0.0,0.0,0.0,0.0,0.0,0.0,0.0,0.0,0.0,0.0,0.0,0.0,0.0,0.0,0.0,0.0,0.0,0.0,0.0,0.0,0.0,0.0,0.0,0.0,0.0,0.0,0.0,0.0,0.0,0.0,0.0,0.0,0.0,-0.394,-0.4006,-0.4087,-0.4138,-0.3875,-0.3306,0.0,0.0,0.0,0.0,0.0,0.0,0.0,0.0,0.0,0.0,0.0,0.0,0.0,0.0,0.0,0.0,0.0,0.0,0.0,0.0,0.0,0.0,0.0,0.0,0.0,0.0,0.0,0.0,0.0,0.0,0.0,0.0,0.0,0.0,0.0,0.0,0.0,0.0,0.0,0.0,0.0,0.0,0.0,0.0,0.0,0.0,0.0,0.0,0.0,0.0,0.0,0.0,0.0,0.0,0.0,0.0,0.0,0.0,0.0,0.0,0.0,0.0,0.0,0.0,0.0,0.0,0.0,0.0,0.0,0.0,0.0,-0.0097,0.0,0.0,0.0,0.0,0.0,0.0,0.0,0.0,0.0,0.0,0.0,0.0,0.0,0.0,0.0,0.0,0.0,0.0,0.0,0.0,0.0,0.0,0.0,0.0,-0.8856,-0.8838,-0.9153,-0.9259,0.0,0.0,0.0,0.0,0.0,0.0,0.0,-0.4755,-0.4468,-0.3992,-0.4057,-0.4231,-0.4505,-0.4505,-0.4219,-0.3614,-0.3001,0.0,0.0,0.0,0.0,0.0,0.0,0.0,0.0,0.0,0.0,0.0,0.0,0.0,0.0,0.0,0.0,0.0,0.0,0.0,0.0,0.0,0.0,0.0,0.0,0.0,0.0,0.0,0.0,0.0,0.0,0.0,0.0,0.0,0.0,0.0,0.0,0.0,0.0,0.0,0.0,0.0,0.0,0.0,0.0,0.0,0.0,0.0,0.0,0.0,0.0,0.0,0.0,0.0,0.0,0.0,0.0,0.0,0.0,0.0,0.0,0.0,0.0,0.0,0.0,0.0,0.0,0.0,-0.0064,-0.0127,-0.0418,-0.0503,-0.0418,-0.0471,0.0,0.0,0.0,0.0,0.0,0.0,0.0,0.0,0.0,0.0,0.0,0.0,0.0,0.0,0.0,0.0,0.0,0.0,0.0,0.0,0.0,-0.8629,-0.8623,-0.8552,-0.8504,-0.8515,0.0,0.0,0.0,0.0,0.0,0.0,-0.5506,-0.5026,-0.4539,-0.3992,-0.4349,-0.4679,-0.5018,-0.5018,-0.4982,-0.489,-0.3489,-0.268,-0.2308,0.0,0.0,0.0,0.0,0.0,0.0,0.0,0.0,0.0,0.0,0.0,0.0,0.0,0.0,0.0,0.0,0.0,0.0,0.0,0.0,0.0,0.0,0.0,0.0,0.0,0.0,0.0,0.0,0.0,0.0,0.0,0.0,0.0,0.0,0.0,0.0,0.0,0.0,0.0,0.0,0.0,0.1248,0.1665,0.0,0.0,0.0,0.0,0.0,0.0,0.0,0.0,0.0,0.0,0.0,0.0,0.0,0.0,0.0,0.0,0.0,0.0,0.0,0.0,0.0,0.0,-0.0217,-0.0715,-0.2217,0.0,-0.0529,-0.0778,0.0,0.0,0.0,0.0,0.0,0.0,0.0,0.0,0.0,0.0,0.0,0.0,0.0,0.0,0.0,0.0,0.0,0.0,0.0,0.0,0.0,-0.8866,-0.9082,-0.9178,-0.9708,-0.9829,-0.9289,0.0,0.0,0.0,0.0,-0.69,-0.5854,-0.5653,-0.5226,-0.4437,-0.4949,-0.5255,-0.5354,-0.5354,-0.5232,-0.4901,-0.3881,-0.3258,-0.2959,-0.1934,0.0,0.0,0.0,0.0,0.0,0.0,0.0,0.0,0.0,0.0,0.0,0.0,0.0,0.0,0.0,0.0,0.0,0.0,0.0,0.0,0.0,0.0,0.0,0.0,0.0,0.0,0.0,0.0,0.0,0.0,0.0,0.0,0.0,0.0,0.0,0.0,0.0,0.0,0.0,0.1971,0.1607,0.213,0.1439,0.0818,0.0,0.0,0.0,0.0,0.0,0.0,0.0,0.0,0.0,0.0,0.0,0.0,0.0,0.0,0.0,0.0,0.0,0.0,0.0,-0.024,-0.1115,-0.2373,-0.3629,-0.4325,-0.4447,-0.4173,-0.4321,-0.4764,0.0,0.0,0.0,0.0,-0.6593,-0.6712,0.0,0.0,0.0,0.0,0.0,0.0,0.0,0.0,0.0,0.0,0.0,0.0,-0.8687,-0.9186,-0.9651,-1.0026,-1.068,-1.0786,-1.0162,-0.987,0.0,0.0,-0.8065,-0.7162,-0.608,-0.594,-0.5583,-0.499,-0.5435,-0.5689,-0.5754,-0.5573,-0.5255,-0.4837,-0.3988,-0.3521,-0.327,-0.212,-0.1614,-0.1478,0.0,0.0,0.0,0.0,0.0,0.0,0.0,0.0,0.0,0.0,0.0,0.0,0.0,0.0,0.0,0.0,0.0,0.0,0.0,0.0,0.0,0.0,0.0,0.0,0.0,0.0,0.0,0.0,0.0,0.0,0.0,0.0,0.0,0.0,0.0,0.0,0.0,0.289,0.215,0.2804,0.1906,0.0883,0.0,0.0,0.0,0.0,0.0,0.0,0.0,0.0,0.0,0.0,0.0,0.0,0.0,0.0,0.0,0.0,0.0,-0.0084,-0.0171,-0.102,-0.2374,-0.406,-0.5616,-0.7099,-0.8278,-0.7217,-0.6845,-0.7031,-0.7577,-0.7796,-0.7929,-0.8854,-0.9274,-0.9337,0.0,0.0,0.0,0.0,0.0,0.0,0.0,0.0,0.0,0.0,0.0,-0.8613,-0.9261,-0.9566,-1.0015,-1.0855,-1.0535,-1.0461,-1.0929,-0.9641,-0.8909,-0.9086,-0.7662,-0.6648,-0.6208,-0.5437,-0.5206,-0.5544,-0.5806,-0.6035,-0.6219,-0.5562,-0.528,-0.5285,-0.3878,-0.3067,-0.2798,-0.2098,-0.1791,-0.1716,-0.1303,0.0,0.0,0.0,0.0,0.0,0.0,0.0,0.0,0.0,0.0,0.0,0.0,0.0,0.0,0.0,0.0,0.0,0.0,0.0,0.0,0.0,0.0,0.0,0.0,0.0,0.0,0.0,0.0,0.0,0.0,0.0,0.0,0.0,0.0,0.0,0.0,0.0,0.0,0.3289,0.1425,0.0,0.0,0.0,0.0,0.0,0.0,0.0,0.0,0.0,0.0,0.0,0.0,0.0,0.0,0.0,0.0,0.0,0.0,-0.0262,-0.0705,-0.2611,-0.3981,-0.5107,-0.8719,-1.0369,-1.0613,-0.8593,-0.8328,-0.9014,-0.8853,-0.9287,-1.0013,-1.0292,-1.0267,-1.0164,0.0,0.0,0.0,0.0,0.0,0.0,0.0,0.0,-0.7834,-0.8149,-0.8396,-0.8794,-0.944,-1.0219,-1.0943,-1.1581,-1.1898,-1.1841,-1.1346,-1.0615,-1.0128,-0.9965,-0.834,-0.7092,-0.6303,-0.5701,-0.5334,-0.5226,-0.5945,-0.5903,-0.5005,-0.5298,-0.4925,-0.4025,-0.351,-0.2947,-0.2423,-0.2054,-0.1844,-0.1714,-0.1529,-0.1235,0.0,0.0,0.0,0.0,0.0,0.0,0.0,0.0,0.0,0.0,0.0,0.0,0.0,0.0,0.0,0.0,0.0,0.0,0.0,0.0,0.0,0.0,0.0,0.0,0.0,0.0,0.0,0.0,0.0,0.0,0.0,0.0,0.0,0.0,0.0,0.0,0.0,0.2205,0.093,0.0,0.0,0.0,0.0,0.0,0.0,0.0,0.0,0.0,0.0,0.0,0.0,0.0,0.0,0.0,-0.0623,-0.1883,-0.2134,-0.3017,-0.4448,-0.5759,-0.7247,-0.8749,-1.0424,-1.1766,-1.292,-1.2189,-1.1795,-1.1594,-1.1314,-1.1311,-1.1529,-1.1724,-1.1723,-1.1656,0.0,0.0,0.0,0.0,0.0,0.0,0.0,0.0,-0.7624,-0.8008,-0.8412,-0.9039,-1.0054,-1.0964,-1.1809,-1.2596,-1.2873,-1.2678,-1.1906,-1.124,-1.0634,-1.0015,-0.8018,-0.6411,-0.5365,-0.5138,-0.4967,-0.4735,-0.5484,-0.5364,-0.4362,-0.4652,-0.4252,-0.3322,-0.3087,-0.2676,-0.217,-0.2148,-0.1994,-0.1805,-0.1692,-0.1293,-0.0819,0.0,0.0,0.0,0.0,0.0,0.0,0.0,0.0,0.0,0.0,0.0,0.0,0.0,0.0,0.0,0.0,0.0,0.0,0.0,0.0,0.0,0.0,0.0,0.0,0.0,0.0,0.0,0.0,0.0,0.0,0.0,0.0,0.0,0.0,0.3118,0.2408,0.1948,0.0799,0.0,0.0,0.0,0.0,0.0,0.0,0.0,0.0,0.0,0.0,0.0,0.0,-0.0356,-0.0987,-0.1166,-0.215,-0.4118,-0.4563,-0.5544,-0.6974,-0.8222,-0.9651,-1.0989,-1.1971,-1.3085,-1.415,-1.415,-1.3858,-1.3376,-1.3024,-1.2732,-1.2542,-1.2732,-1.2739,-1.2651,0.0,0.0,0.0,0.0,0.0,0.0,0.0,-0.7415,-0.7249,-0.7918,-0.8511,-0.9462,-1.1053,-1.1667,-1.25,-1.3782,-1.3178,-1.2693,-1.2572,-1.1386,-1.0179,-0.904,-0.6552,-0.4655,-0.3541,-0.3761,-0.4021,-0.4255,-0.4386,-0.4345,-0.4343,-0.3647,-0.3299,-0.3231,-0.2566,-0.2278,-0.2182,-0.2282,-0.2192,-0.1956,-0.1658,-0.1256,-0.0888,0.0,0.0,0.0,0.0,0.0,0.0,0.0,0.0,0.0,0.0,0.0,0.0,0.0,0.0,0.0,0.0,0.0,0.0,0.0,0.0,0.0,0.0,0.0,0.0,0.0,0.0,0.0,0.0,0.0,0.0,0.0,0.0,0.0,0.5313,0.4922,0.3955,0.255,0.1013,0.0,0.0,0.0,0.0,0.0,0.0,0.0,0.0,0.0,0.0,0.0,-0.009,-0.0987,-0.2867,-0.3403,-0.4653,-0.6525,-0.6971,-0.7506,-0.8133,-1.0002,-1.1078,-1.1616,-1.3496,-1.4299,-1.4299,-1.4299,-1.4299,-1.4251,-1.381,-1.3376,-1.3024,-1.3302,-1.3227,-1.2956,0.0,0.0,0.0,0.0,0.0,0.0,0.0,-0.7211,-0.7358,-0.7935,-0.9047,-1.016,-1.1118,-1.2036,-1.2851,-1.3606,-1.27,-1.2103,-1.2249,-1.086,-0.9182,-0.715,-0.5925,-0.4875,-0.3962,-0.4002,-0.3917,-0.3553,-0.4165,-0.389,-0.2806,-0.3247,-0.3128,-0.2599,-0.2438,-0.2382,-0.2375,-0.2383,-0.2345,-0.2262,-0.1989,-0.1696,-0.1349,0.0,0.0,0.0,0.0,0.0,0.0,0.0,0.0,0.0,0.0,0.0,0.0,0.0,0.0,0.0,0.0,0.0,0.0,0.0,0.0,0.0,0.0,0.0,0.0,0.0,0.0,0.0,0.0,0.0,0.0,0.0,0.4488,0.5171,0.2427,0.2494,0.2325,0.089,0.0254,0.0,0.0,0.0,0.0,0.0,0.0,0.0,0.0,0.0,0.0,0.0,-0.135,-0.2509,-0.3403,-0.4921,-0.6793,-0.9024,-0.9468,-1.054,-1.2065,-1.2958,-1.3401,-1.3496,-1.4033,-1.4299,-1.4299,-1.4299,-1.4238,-1.4122,-1.4,-1.3804,-1.3593,-1.3573,-1.3444,-1.3275,0.0,0.0,0.0,0.0,0.0,0.0,0.0,-0.7077,-0.7231,-0.7887,-0.9124,-1.0216,-1.0946,-1.1818,-1.2535,-1.2911,-1.2125,-1.1509,-1.131,-0.9465,-0.7477,-0.5518,-0.4749,-0.401,-0.3312,-0.331,-0.3237,-0.2946,-0.3421,-0.3139,-0.2322,-0.2817,-0.276,-0.2372,-0.2408,-0.2431,-0.2442,-0.2429,-0.2428,-0.242,-0.2241,-0.1927,-0.1598,-0.1414,-0.0792,0.0056,0.0964,0.2433,0.3952,0.4564,0.0,0.0,0.0,0.0,0.0,0.0,0.0,0.0,0.0,0.0,0.0,0.0,0.0,0.0,0.0,0.0,0.0,0.0,0.0,0.0,0.0,0.0,0.0,0.0,0.5756,0.6215,0.2402,0.3152,0.3144,0.0612,0.009,0.0,0.0,0.0,0.0,0.0,0.0,0.0,0.0,0.0,0.0,0.0,-0.2095,-0.3811,-0.4896,-0.7241,-0.95,-1.1675,-1.2067,-1.2853,-1.3942,-1.4237,-1.4299,-1.4299,-1.4299,-1.4299,-1.4299,-1.4299,-1.4245,-1.4163,0.0,0.0,0.0,0.0,-1.3553,-1.3566,0.0,0.0,0.0,0.0,0.0,0.0,0.0,-0.6936,-0.6949,-0.772,-0.8814,-0.9854,-1.0613,-1.1277,-1.1762,-1.1985,-1.1528,-1.0799,-0.9902,-0.759,-0.5602,-0.4224,-0.3386,-0.2699,-0.2248,-0.2308,-0.2352,-0.2378,-0.2409,-0.2424,-0.2424,-0.2427,-0.2431,-0.2433,-0.2438,-0.2455,-0.2482,-0.2451,-0.247,-0.2512,-0.2424,-0.2187,-0.1741,-0.172,-0.0369,0.1593,0.2087,0.3622,0.5526,0.5879,0.0,0.0,0.0,0.0,0.0,0.0,0.0,0.0,0.0,0.0,0.0,0.0,0.0,0.0,0.0,0.0,0.0,0.0,0.0,0.0,0.0,0.0,0.0,0.0,0.6396,0.6815,0.4065,0.5347,0.5046,0.1096,0.028,0.0,0.0,0.0,0.0,0.0,0.0,0.0,0.0,0.0,0.0,0.0,0.0,-0.4995,-0.6826,-0.9968,-1.2461,-1.4094,-1.4437,-1.4557,-1.4529,-1.4387,-1.4326,-1.4326,-1.4306,-1.4299,-1.4299,-1.4299,-1.4299,-1.4285,-1.4129,-1.3899,-1.3641,-1.3519,-1.3712,-1.4053,0.0,0.0,0.0,0.0,0.0,0.0,0.0,-0.6439,-0.6716,-0.7405,-0.8477,-0.9406,-0.9866,-1.045,-1.0995,-1.1468,-1.0487,-0.9189,-0.7881,-0.6418,-0.5126,-0.4031,-0.2954,-0.2352,-0.2281,-0.2339,-0.2372,-0.2378,-0.2409,-0.2424,-0.2424,-0.2448,-0.2473,-0.2497,-0.2522,-0.2549,-0.2574,-0.2545,-0.254,-0.2545,-0.2478,-0.2383,-0.2061,-0.0827,0.0132,0.1127,0.3034,0.4638,0.5978,0.6376,0.6919,0.7236,0.5992,0.0,0.0,0.0,0.0,0.0,0.0,0.0,0.0,0.0,0.0,0.0,0.0,0.0,0.0,0.0,0.0,0.0,0.0,0.0,0.0,0.6305,0.8172,0.8185,0.4259,0.5318,0.4963,0.0662,0.0096,0.0,0.0,0.0,0.0,0.0,0.0,0.0,0.0,0.0,-0.0192,-0.0664,-0.435,-0.6749,-0.7834,-1.1884,-1.4136,-1.4557,-1.4743,0.0,-1.4692,-1.4536,-1.4468,-1.4462,-1.4346,-1.4299,-1.4299,-1.4299,-1.4299,-1.4285,-1.4129,-1.396,-1.381,-1.3905,-1.4836,-1.6026,0.0,0.0,0.0,0.0,0.0,0.0,0.0,-0.61,-0.6404,-0.6881,-0.7874,-0.8584,-0.8807,-0.9307,-0.9694,-0.9846,-0.9147,-0.795,-0.625,-0.5682,-0.4772,-0.3149,-0.2609,-0.2311,-0.2356,-0.2401,-0.2424,-0.2424,-0.2454,-0.2469,-0.247,-0.25,-0.2522,-0.2538,-0.2568,-0.2597,-0.2622,-0.2578,-0.2568,-0.2575,-0.2515,-0.2438,-0.2205,-0.0792,0.0413,0.1628,0.3347,0.5147,0.6651,0.678,0.7205,0.752,0.6647,0.5831,0.483,0.0,0.0,0.0,0.0,0.0,0.0,0.0,0.0,0.0,0.0,0.0,0.0,0.0,0.0,0.5701,0.593,0.0,0.8411,0.7006,0.8515,0.8366,0.4006,0.4234,0.3572,0.0387,0.0,0.0,0.0,0.0198,0.0298,0.0,0.0298,0.0298,0.0,-0.0295,-0.0488,-0.0769,-0.5291,-0.7922,-0.8233,-1.2716,-1.4993,-1.4964,-1.497,-1.4889,-1.4733,-1.4584,-1.4475,-1.4401,-1.4333,-1.4299,-1.4299,-1.4299,-1.4299,-1.4292,-1.4217,-1.4741,-1.5436,-1.5354,-1.651,-1.8005,0.0,0.0,0.0,0.0,0.0,0.0,0.0,-0.5706,-0.6025,-0.6329,-0.7073,-0.7662,-0.7794,-0.8201,-0.8357,-0.817,-0.7914,-0.7051,-0.5191,-0.5118,-0.4281,-0.2355,-0.2348,-0.239,-0.2414,-0.2457,-0.2474,-0.2469,-0.2506,-0.2521,-0.2515,-0.2545,-0.2563,-0.257,-0.2598,-0.2627,-0.2652,-0.26,-0.259,-0.2605,-0.2547,-0.2325,-0.1957,-0.0737,0.0709,0.2303,0.3682,0.545,0.716,0.705,0.7322,0.7665,0.747,0.6674,0.556,0.4082,0.2912,0.0,0.0,0.0,0.0,0.0,0.0,0.0,0.0,0.4558,0.4173,0.3516,0.458,0.5523,0.5149,0.7921,0.9406,0.6912,0.7845,0.7487,0.3513,0.3032,0.225,0.0196,0.0,0.0,0.0099,0.0501,0.0705,0.03,0.0603,0.0604,0.02,-0.04,-0.0891,-0.1552,-0.6051,-0.8633,-0.9118,-1.3346,-1.5377,-1.5221,-1.5113,-1.4991,-1.4862,-1.4652,-1.4496,-1.438,-1.4326,-1.4299,-1.4299,-1.4299,-1.4299,-1.4299,-1.4299,-1.5675,-1.7521,-1.68,-1.8022,-1.9939,0.0,0.0,0.0,0.0,0.0,0.0,0.0,0.0,-0.5364,-0.5806,-0.6291,-0.6688,-0.6991,-0.7333,-0.7555,-0.7521,-0.7273,-0.6466,-0.5039,-0.4407,-0.3566,-0.2356,-0.2348,-0.238,-0.2383,-0.2466,-0.2496,-0.2469,-0.2526,-0.2541,-0.2515,-0.2545,-0.2572,-0.2598,-0.2628,-0.2658,-0.2686,-0.2652,-0.2639,-0.2637,-0.2578,-0.1942,-0.0819,0.0371,0.1373,0.2361,0.4485,0.6031,0.705,0.7002,0.7322,0.7698,0.7671,0.7375,0.6659,0.445,0.0,0.3027,0.2143,0.2672,0.3501,0.3896,0.3858,0.3833,0.0,0.3222,0.2377,0.3739,0.3403,0.3312,0.4535,0.5507,0.5991,0.5853,0.6121,0.5545,0.3321,0.3015,0.2233,0.0196,0.0,0.0202,0.0705,0.0807,0.101,0.1412,0.1009,0.0808,0.0706,0.0202,-0.1298,-0.4109,-0.66,-0.9172,-1.1768,-1.431,-1.554,-1.5384,-1.5371,-1.535,-1.5323,-1.4903,-1.4706,-1.4679,-1.4414,-1.4299,-1.4299,-1.4299,-1.4299,-1.4299,-1.4299,-1.6292,-1.9057,-1.7304,-1.8815,-2.1599,0.0,0.0,0.0,0.0,0.0,0.0,0.0,0.0,0.0,0.0,-0.574,-0.6064,-0.6168,-0.6521,-0.6501,-0.593,-0.6225,-0.5674,-0.3923,-0.3738,-0.3152,-0.2043,-0.1861,-0.1734,-0.1746,-0.2005,-0.2178,-0.2183,-0.2442,-0.2527,-0.2515,-0.2545,-0.2575,-0.2602,-0.2634,-0.2664,-0.269,-0.266,-0.2637,-0.2536,-0.177,-0.1175,-0.0605,0.0662,0.1346,0.1769,0.3415,0.4156,0.0,0.0,0.5974,0.6641,0.7359,0.7006,0.6016,0.4314,0.3163,0.0,0.1975,0.3486,0.491,0.397,0.4478,0.4777,0.3291,0.2304,0.1728,0.1709,0.2301,0.3004,0.3571,0.497,0.556,0.4348,0.4194,0.3657,0.1554,0.1248,0.0954,0.0096,0.0,0.0097,0.0293,0.059,0.079,0.0695,0.0795,0.0697,0.0401,-0.0199,-0.1775,-0.4469,-0.6948,-0.9524,-1.2145,-1.4336,-1.5432,-1.5276,-1.5194,-1.5106,-1.5011,-1.4733,-1.4563,-1.4475,-1.4353,-1.4299,-1.4299,-1.4299,-1.4245,-1.4251,-1.5286,-1.709,-1.9034,-1.8309,-2.0169,-2.2981,0.0,0.0,0.0,0.0,0.0,0.0,0.0,0.0,0.0,0.0,-0.5286,-0.55,-0.5611,-0.5858,-0.5657,-0.4762,-0.5039,-0.4526,-0.2888,-0.2791,-0.2508,-0.1669,-0.1413,-0.1288,-0.1304,-0.155,-0.1797,-0.1886,-0.2207,-0.2364,-0.2515,-0.2537,-0.2563,-0.2592,-0.2613,-0.2645,-0.2677,-0.2647,-0.2458,-0.2029,-0.1115,-0.0544,-0.0075,0.0856,0.108,0.0958,0.2105,0.2431,0.0,0.0,0.4364,0.521,0.6083,0.585,0.4968,0.3697,0.2872,0.239,0.2419,0.4364,0.597,0.4187,0.4685,0.4807,0.1983,0.1314,0.102,0.0174,0.1168,0.221,0.2133,0.3479,0.4083,0.2466,0.2289,0.1729,0.0193,0.0,0.0,0.0,0.0,0.0,0.0,0.0475,0.0676,0.0487,0.0682,0.0587,0.0198,-0.0783,-0.2525,-0.5115,-0.7529,-1.0067,-1.2571,-1.4052,-1.4811,-1.4932,-1.4792,-1.4777,-1.4794,-1.4604,-1.4434,-1.4299,-1.4299,-1.4299,-1.4299,-1.4251,-1.4433,-1.4923,-1.616,-1.7815,-1.9537,-1.9683,-2.1495,-2.3724,0.0,0.0,0.0,0.0,0.0,0.0,0.0,0.0,0.0,0.0,0.0,0.0,0.0,-0.5561,-0.529,-0.4501,-0.3779,-0.3012,-0.217,-0.1513,-0.1216,-0.1236,-0.1231,-0.1196,-0.1211,-0.1255,-0.151,-0.1886,-0.1908,-0.2145,-0.2514,-0.2515,-0.2532,-0.2562,-0.2562,-0.2594,-0.2563,-0.2616,-0.1951,-0.0973,-0.094,-0.015,0.1068,0.108,0.0558,0.0,0.1014,0.0,0.0,0.2148,0.2716,0.3407,0.3466,0.3727,0.0,0.2436,0.2862,0.3758,0.3989,0.5277,0.616,0.4493,0.3564,0.246,0.0515,0.009,0.0,0.0,0.0093,0.0094,0.0094,0.0185,0.0184,0.0094,0.0094,0.0095,0.0,0.0,0.0,0.0,0.0,0.0,0.0,0.0461,0.1049,0.1527,0.105,0.0767,0.0774,-0.1534,-0.4018,-0.665,-0.8515,-1.0772,-1.3393,-1.3358,-1.3726,-1.4322,-1.4172,-1.4362,-1.495,-1.4652,-1.4434,-1.4299,-1.4299,-1.4299,-1.4285,-1.4143,-1.5104,-1.6623,-1.6539,-1.8541,-2.1424,-2.1424,-2.2436,-2.3724,0.0,0.0,0.0,0.0,0.0,0.0,0.0,0.0,0.0,0.0,0.0,0.0,0.0,0.0,0.0,0.0,-0.2646,-0.2069,-0.1171,-0.0819,-0.0714,-0.0819,-0.0539,-0.0422,-0.0432,-0.0668,-0.0909,-0.1073,-0.154,-0.1925,-0.2071,-0.2301,-0.247,-0.2499,-0.2499,-0.2522,-0.2557,-0.2526,-0.1876,-0.0773,0.0,0.0784,0.1449,0.1457,0.0939,0.0164,0.0,0.0,-0.0094,0.0815,0.142,0.198,0.2799,0.2808,0.2285,0.1047,0.1791,0.3078,0.3236,0.5453,0.6966,0.4018,0.3936,0.3797,0.0728,0.0,0.0,0.0,0.0,0.0,0.0,0.0,0.0,0.0,0.0,0.0,0.0,0.0,0.0,0.0,0.0,0.0,0.0,0.0175,0.0363,0.056,0.0372,0.028,0.0285,-0.1785,-0.4112,-0.6649,-0.8555,-1.0747,-1.334,-1.4564,-1.5294,-1.5526,-1.564,-1.5808,-1.5853,-1.486,-1.4346,-1.4292,-1.419,-1.415,-1.4136,-1.398,-1.4878,-1.6454,-1.7565,-1.9406,-2.1421,-2.2578,-2.3244,-2.3471,0.0,0.0,0.0,0.0,0.0,0.0,0.0,0.0,0.0,0.0,0.0,0.0,0.0,0.0,0.0,0.0,0.0,-0.1341,-0.0455,-0.03,-0.0271,-0.0404,-0.0123,0.0,0.0,-0.0269,-0.0482,-0.0778,-0.1137,-0.1575,-0.1878,-0.2094,-0.2254,-0.2357,-0.2357,-0.2379,-0.234,-0.1863,-0.1027,0.0072,0.1026,0.1514,0.1715,0.1391,0.0758,0.0,0.0,0.0,-0.0984,-0.0126,0.0347,0.0724,0.1503,0.1462,0.1114,0.0954,0.2089,0.3636,0.4494,0.6305,0.7259,0.4483,0.4172,0.3785,0.0656,0.0,0.0,0.0,0.0,0.0,0.0,0.0,0.0,0.0,0.0,0.0,0.0,0.0,0.0,0.0,0.0,0.0,0.0,0.0,0.0,0.0,0.0,0.0,0.0,-0.2478,-0.4674,-0.6365,-0.8882,-1.1325,-1.3647,-1.4854,-1.5988,-1.6973,-1.6693,-1.6591,-1.6569,-1.4942,-1.4217,-1.4211,-1.4055,-1.3987,-1.4066,-1.4501,-1.5631,-1.7268,-1.9018,-2.0577,-2.2156,-2.3217,-2.3478,-2.3152,0.0,0.0,0.0,0.0,0.0,0.0,0.0,0.0,0.0,0.0,0.0,0.0,0.0,0.0,0.0,0.0,0.0,0.0,-0.0042,0.0,0.0,0.0,0.0,0.0,0.0,0.0,-0.0298,-0.0923,-0.0687,-0.1084,-0.2033,-0.1769,-0.1849,-0.214,-0.214,-0.2173,-0.2086,-0.0685,0.0469,0.1367,0.193,0.2064,0.194,0.1035,0.0,0.0,0.0,0.0,-0.0589,-0.0591,-0.0456,-0.0308,-0.027,-0.0101,0.0453,0.205,0.3663,0.5378,0.7544,0.7844,0.7249,0.5831,0.4159,0.2439,0.0469,0.0,0.0,0.0,0.0,0.0,0.0,0.0,0.0,0.0,0.0,0.0,0.0,0.0,0.0,0.0,-0.0087,0.0,0.0,-0.0256,-0.0339,-0.0342,-0.0088,0.0,-0.018,-0.3671,-0.5779,-0.5989,-0.9671,-1.2568,-1.4392,-1.4517,-1.6019,-1.8732,-1.7351,-1.6912,-1.7247,-1.5177,-1.4242,-1.4308,-1.4057,-1.3988,-1.4145,-1.5646,-1.7316,-1.9037,-2.0536,-2.21,-2.3351,-2.3351,-2.3104,-2.277,0.0,0.0,0.0,0.0,0.0,0.0,0.0,0.0,0.0,0.0,0.0,0.0,0.0,0.0,0.0,0.0,0.0,0.0,0.0,0.0,0.0,0.0,0.0,0.0,0.0,0.0,-0.0057,-0.0234,-0.047,-0.0714,-0.0971,-0.1213,-0.1399,-0.1465,-0.1465,-0.1471,-0.142,-0.0972,-0.024,0.0711,0.0,0.1029,0.1337,0.0,0.0,0.0,0.0,0.0,-0.0395,-0.0532,-0.0447,-0.0295,-0.0103,0.0769,0.183,0.2609,0.4893,0.7446,0.8366,0.8535,0.8038,0.6288,0.439,0.2426,0.0457,0.0,0.0,0.0,0.0,0.0,0.0,0.0,0.0,0.0,0.0,0.0,0.0,0.0,0.0,0.0,0.0,-0.2182,-0.2125,-0.3876,-0.4846,-0.4779,-0.1821,-0.0618,-0.206,-0.4387,-0.6368,-0.7844,-1.1638,-1.3843,-1.4326,-1.7438,-2.0038,-2.2147,-2.1098,-2.049,-2.0334,-1.7526,-1.6833,-1.7698,-1.6033,-1.6063,-1.7269,-1.7333,-1.8389,-1.9989,-2.0411,-2.1693,-2.3152,-2.3152,-2.2935,-2.2733,0.0,0.0,0.0,0.0,0.0,0.0,0.0,0.0,0.0,0.0,0.0,0.0,0.0,0.0,0.0,0.0,0.0,0.0,0.0,0.0,0.0,0.0,-0.0087,-0.0137,-0.0141,-0.0238,-0.0293,-0.0304,-0.0409,-0.0572,-0.0747,-0.0807,-0.0918,-0.108,-0.1088,-0.1092,-0.0982,0.0054,0.0,0.0,0.0,0.0,0.0,0.0,0.0,0.0,0.0,0.0,-0.0087,0.0553,0.0897,0.103,0.1224,0.2407,0.3922,0.4967,0.6815,0.8659,0.9765,0.9514,0.8416,0.6462,0.4471,0.247,0.0435,-0.0333,-0.0705,-0.0639,-0.0656,-0.0674,-0.0644,-0.0296,0.0,0.0,0.0,0.0,0.0,0.0,-0.0363,0.0,-0.2255,0.0,-0.41,-0.5608,-0.6492,-0.6444,-0.4378,-0.3617,-0.4706,-0.6335,-0.7781,-0.8854,-1.2402,-1.5227,-1.7063,-2.0211,-2.2578,-2.3966,-2.2471,-2.184,-2.1789,-1.9033,-1.8211,-1.8913,-1.7445,-1.744,-1.8375,-1.8769,-1.9495,-2.0444,-2.1301,-2.2109,-2.2951,-2.2951,-2.2782,-2.2552,0.0,0.0,0.0,0.0,0.0,0.0,0.0,0.0,0.0,0.0,0.0,0.0,0.0,0.0,0.0,0.0,0.0,0.0,0.0,0.0,0.0,0.0,-0.0191,-0.0309,-0.0282,-0.0515,-0.0602,-0.0629,-0.0427,-0.0484,-0.0777,-0.0465,-0.0516,-0.0799,-0.0765,-0.0722,-0.0481,0.1488,0.1789,0.0,0.0,0.0,0.0,0.0,0.0,0.0,0.0,0.0,0.0431,0.1981,0.2565,0.2733,0.3116,0.4428,0.6158,0.7971,0.8825,0.9583,1.1278,1.0449,0.864,0.6574,0.4504,0.2392,0.0411,-0.0926,-0.1572,-0.1439,-0.1578,-0.1726,-0.1647,-0.097,-0.0457,-0.051,0.0,-0.0295,-0.0667,-0.0516,-0.1147,-0.3121,-0.3572,-0.4369,-0.6078,-0.6875,-0.7268,-0.7239,-0.7773,-0.7917,-0.7494,-0.8626,-0.9651,-1.0268,-1.3198,-1.6801,-2.0915,-2.2665,-2.3955,-2.4605,-2.2928,-2.2192,-2.2455,-2.0163,-1.9211,-1.941,-1.8769,-1.8577,-1.8936,-2.0163,-2.0691,-2.0824,-2.2383,-2.2879,-2.2673,-2.2636,-2.2479,-2.2285,0.0,0.0,0.0,0.0,0.0,0.0,0.0,0.0,0.0,0.0,0.0,0.0,0.0,0.0,0.0,0.0,0.0,0.0,0.0,0.0,0.0,0.0,-0.0186,-0.0304,-0.0307,-0.0506,-0.0517,-0.0369,-0.0329,-0.0251,-0.0171,-0.0086,-0.0086,-0.0172,-0.0173,0.026,0.0951,0.1339,0.142,0.0,0.0,0.0,0.0,0.0,0.0,0.0,0.0,0.051,0.1298,0.2075,0.2497,0.2933,0.4477,0.6145,0.7665,0.8461,0.9817,1.1172,1.1938,1.0668,0.8718,0.6301,0.4136,0.2031,-0.0078,-0.1202,0.0,-0.1487,-0.2143,-0.2764,-0.2745,-0.2702,-0.2789,-0.3338,-0.2215,-0.2026,-0.4205,-0.3307,-0.3076,0.0,-0.6693,-0.7863,-0.8086,-1.0446,-1.1889,-1.1804,-1.2597,-1.2048,-0.9623,-0.9375,-1.1239,-1.5564,-1.6713,-1.9072,-2.2848,-2.3966,-2.4473,-2.4444,-2.4385,-2.4222,-2.3786,-2.1741,-2.142,-2.252,-2.0784,-2.0713,-2.1923,-2.2195,-2.2205,-2.2015,-2.2316,-2.2443,-2.2307,-2.209,-2.1981,-2.1933,0.0,0.0,0.0,0.0,0.0,0.0,0.0,0.0,0.0,0.0,-0.0265,0.0,0.0,0.0,0.0,0.0,0.0,0.0,0.0,0.0,0.0,0.0,0.0,0.0,-0.0454,-0.0643,-0.065,-0.047,0.0,-0.0193,0.0,0.0,0.0,0.0,0.0392,0.0822,0.1253,0.2139,0.223,0.1876,0.2409,0.2333,0.0,0.0,0.0,0.0,0.0,0.0,0.2355,0.3526,0.4177,0.4717,0.6174,0.7855,0.9433,0.9992,1.0869,1.1705,1.1998,1.15,0.9991,0.64,0.4799,0.3217,0.0,0.0,0.0,-0.227,-0.3018,-0.3739,-0.3667,-0.3335,-0.3192,-0.3512,-0.2921,-0.298,-0.457,-0.4225,-0.4611,-0.6902,-0.8095,-0.9118,-1.0111,-1.19,-1.2949,-1.2881,-1.3768,-1.3673,-1.2325,-1.2756,-1.4509,-1.7772,-1.8885,-2.0822,-2.3869,-2.4155,-2.4364,-2.4496,-2.4519,-2.4492,-2.4145,-2.2923,-2.2828,-2.3556,-2.2342,-2.2187,-2.2927,-2.2782,-2.2576,-2.2334,-2.2334,-2.2334,-2.2247,-2.22,-2.1993,-2.1873,0.0,0.0,0.0,0.0,0.0,0.0,0.0,-0.0036,0.0749,0.0806,0.081,0.0712,0.0447,0.0356,0.0,0.0,0.0,0.0,0.0,0.0,0.0,0.0,0.0,0.0,0.0,0.0,0.0,-0.0526,-0.0368,0.0,0.0,0.0,0.0,0.0,0.0911,0.1275,0.1677,0.3009,0.3194,0.0,0.0,0.3374,0.0,0.0,0.0,0.0,0.0,0.0,0.3423,0.4889,0.5747,0.6412,0.7442,0.9021,1.0645,1.0954,1.1373,1.1673,1.132,1.1341,1.0306,0.5623,0.4537,0.3653,-0.0068,-0.226,-0.3455,-0.3038,-0.3921,-0.4746,-0.4669,-0.4093,-0.3698,-0.3883,-0.3696,-0.3989,-0.5232,-0.5223,-0.6088,-0.879,-0.9156,0.0,-1.1416,-1.2312,-1.2787,-1.2787,-1.3591,-1.4299,-1.4734,-1.577,-1.723,-1.8931,-2.0324,-2.2097,-2.4291,-2.4151,-2.427,-2.454,-2.4335,-2.4202,-2.413,-2.3611,-2.3435,-2.3652,-2.3249,-2.3121,-2.3109,-2.2903,-2.2661,-2.2418,-2.2283,-2.2334,-2.2259,-2.2273,-2.2042,-2.1873,0.0,0.0,0.0,0.0,0.0,0.0,0.0,0.0625,0.1087,0.0927,0.0878,0.0747,0.0429,0.0381,0.0,0.0,0.0,0.0,0.0,0.0,0.0,0.0,0.0,0.0,0.0,0.0,0.0,-0.0329,-0.0292,0.0,0.0,0.0,0.0,0.0,0.0,0.1893,0.3197,0.3354,0.0,0.0,0.0,0.0,0.0,0.0,0.0,0.0,0.0,0.3439,0.4298,0.4977,0.5913,0.6882,0.763,0.8917,1.0112,1.0259,0.0,0.0,0.9174,0.8716,0.7688,0.2815,0.1763,0.1292,-0.1057,0.0,-0.3657,-0.3275,-0.4572,-0.5777,-0.5766,-0.58,-0.602,-0.6712,-0.5574,-0.5625,-0.8424,-0.792,-0.8093,-1.0371,0.0,0.0,-1.1471,-1.1993,-1.2254,-1.2254,-1.3141,-1.4374,-1.6122,-1.629,-1.7696,-2.0617,-2.1183,-2.2265,-2.4009,-2.4389,-2.4422,-2.4275,-2.4251,-2.4025,-2.3784,-2.3321,-2.3225,-2.3399,-2.3176,-2.3121,-2.3121,-2.3097,-2.2927,-2.2673,-2.243,-2.2334,-2.2309,-2.1993,-2.1885,-2.1873,0.0,0.0,0.0,0.0,0.0,0.0,0.0,0.0665,0.1017,0.0946,0.0906,0.0738,0.0451,0.0396,0.0,0.0,0.0,0.0,0.0,0.0,0.0,0.0,0.0,0.0,0.0,0.0,-0.0389,-0.0291,0.0359,0.0,0.0,0.0,0.0,0.0,0.0,0.2702,0.3328,0.3841,0.0,0.0,0.0,0.0,0.0,0.0,0.0,0.0,0.0,0.0,0.5181,0.5442,0.5966,0.0,0.6643,0.7529,0.0,0.0,1.0101,1.018,0.84,0.7968,0.702,0.2316,0.1248,0.0835,-0.1153,0.0,-0.312,-0.3164,-0.4254,-0.5295,-0.5711,-0.5899,-0.6094,-0.6453,-0.6057,0.0,-0.7953,-0.7944,-0.8349,-1.006,-1.0525,-1.0846,-1.1204,-1.1679,-1.2144,-1.2483,-1.2921,-1.4108,-1.629,-1.7772,-1.899,-1.998,-2.2232,-2.3642,-2.415,-2.4157,-2.4025,-2.3916,-2.3916,-2.3868,-2.3748,-2.3466,-2.3345,-2.3363,-2.3164,-2.3121,-2.3109,-2.2951,-2.2818,-2.2697,-2.2443,-2.2334,-2.2321,-2.2138,-2.1909,-2.1631,0.0,0.0,0.0,0.0,0.0,0.0,0.0362,0.0661,0.0893,0.0809,0.074,0.0576,0.0327,0.0276,0.0224,0.0,0.0,0.0,0.0,0.0,0.0,0.0,0.0,0.0,0.0,0.0,0.0174,0.018,0.122,0.1749,0.0,0.0,0.251,0.2815,0.0,0.0,0.0,0.0,0.0,0.0,0.0,0.0,0.0,0.0,0.0,0.0,0.0,0.0,0.0,0.0,0.0,0.0,0.0,0.0,0.0,0.0,0.8878,0.8659,0.6773,0.6177,0.5087,0.1063,0.0149,-0.0067,0.0,0.0,-0.2776,-0.3303,-0.4158,-0.5008,-0.5686,-0.5885,-0.5996,-0.6109,0.0,-0.6545,-0.735,-0.7763,-0.8443,-0.9522,-1.0004,-1.052,-1.1222,-1.167,-1.1952,-1.2178,-1.296,-1.4076,-1.5863,-1.8252,-1.9704,-2.0223,-2.2455,-2.3798,-2.4037,-2.3856,-2.376,-2.376,-2.376,-2.376,-2.376,-2.3495,-2.3375,-2.3363,-2.3164,-2.3121,-2.3097,-2.283,-2.2733,-2.2697,-2.2443,-2.2334,-2.2321,-2.2174,-2.1909,-2.1583,0.0,0.0,0.0,0.0,0.0,0.0,0.0,0.0847,0.0751,0.0377,0.0349,0.0312,0.0038,0.0,0.0,0.0,0.0,0.0,0.0,0.0,0.0,0.0,0.0,0.0,0.0,0.0,0.1296,0.1297,0.221,0.2979,0.3564,0.2838,0.3188,0.4429,0.0,0.0,0.0,0.0,0.0,0.0,0.0,0.0,0.0,0.0,0.0,0.0,0.0,0.0,0.0,0.0,0.0,0.0,0.0,0.0,0.0,0.0,0.7186,0.6475,0.3785,0.2364,0.1026,-0.1657,-0.2222,-0.2026,-0.1817,-0.22,-0.2826,-0.3702,-0.4474,-0.523,-0.5947,-0.6086,-0.6076,-0.6092,-0.6235,0.0,-0.718,-0.7789,-0.8475,-0.9314,-0.9887,-1.0602,-1.1655,-1.1936,-1.1749,-1.1198,-1.3152,-1.4493,-1.4815,-1.7238,-1.9596,-2.1766,-2.1717,-2.2307,-2.3772,-2.376,-2.376,-2.376,-2.376,-2.376,-2.376,-2.3495,-2.3375,-2.3363,-2.3164,-2.3121,-2.3097,-2.283,-2.2733,-2.2697,-2.2443,-2.2334,-2.2309,-2.1969,-2.1873,-2.1824,0.0,0.0,0.0,0.0,0.0,0.0,0.0,0.0543,0.0437,0.0314,0.0215,0.011,0.0,0.0,0.0,0.0,0.0,0.0,0.0,0.0,0.0,0.0,0.0,0.0,0.0,0.0,0.1569,0.2136,0.3044,0.3612,0.38,0.3982,0.4269,0.4624,0.4144,0.4095,0.0,0.0,0.0,0.0,0.0,0.0,0.0,0.0,0.0,0.0,0.0,0.0,0.0,0.0,0.0,0.0,0.0,0.0,0.0,0.6268,0.6227,0.5695,0.3613,0.2498,0.1319,-0.1064,-0.1555,-0.1562,-0.2069,-0.1784,-0.1956,-0.4036,-0.407,-0.4182,-0.5581,-0.5819,-0.5957,-0.6268,-0.6361,-0.6551,-0.7029,-0.754,-0.8169,-0.8889,-0.991,-1.0714,-1.0997,-1.1148,-1.1185,-1.0982,-1.3006,-1.434,-1.4822,-1.7004,-1.9373,-2.1599,-2.1787,-2.2553,-2.4037,-2.4025,-2.4021,-2.376,-2.376,-2.3664,-2.3495,-2.3411,-2.3249,-2.2899,-2.2814,-2.2854,-2.283,-2.2564,-2.2564,-2.2685,-2.2162,-2.2102,-2.2285,-2.2056,-2.1957,-2.1993,0.0,0.0,0.0,0.0,0.0,0.0,0.0,0.0308,0.0257,0.0198,0.0068,0.0,0.0,0.0,0.0,0.0,0.0,0.0,0.0,0.0,0.0,0.0,0.0,0.0,0.0,0.1485,0.2118,0.2982,0.3938,0.4414,0.4471,0.4867,0.4925,0.4713,0.4518,0.4382,0.0,0.0,0.0,0.0,0.0,0.0,0.4882,0.0,0.0,0.0,0.0,0.0,0.0,0.0,0.0,0.0,0.0,0.0,0.0,0.0,0.5503,0.4843,0.3267,0.2243,0.1125,-0.0782,-0.1146,0.0,-0.1698,-0.1527,-0.1834,-0.3805,-0.398,-0.4225,-0.5517,-0.583,-0.5935,-0.6187,-0.6328,-0.6548,-0.6861,-0.7481,-0.8189,-0.9018,-1.0173,-1.084,-1.0633,-1.0992,-1.1069,-1.0851,-1.2677,-1.4074,-1.4643,-1.6705,-1.8931,-2.1409,-2.1597,-2.2047,-2.2867,-2.3508,-2.3707,-2.3538,-2.3538,-2.3406,-2.3152,-2.3152,-2.2911,-2.2576,-2.2576,-2.2576,0.0,-2.2406,-2.243,-2.2539,-2.2042,-2.2043,-2.2263,-2.1943,-2.196,-2.2053,0.0,0.0,0.0,0.0,0.0,0.0,0.0,0.0,0.0,0.0,0.0,0.0,0.0,0.0,0.0,0.0,0.0,0.0,0.0,0.0,0.0,0.0,0.0,0.0,0.0,0.1966,0.287,0.3852,0.4762,0.5268,0.5435,0.5435,0.5203,0.4817,0.4761,0.4564,0.0,0.0,0.0,0.0,0.0,0.0,0.0,0.0,0.0,0.0,0.0,0.0,0.0,0.0,0.0,0.0,0.0,0.0,0.0,0.0,0.0,0.0,0.0,0.1702,0.0516,-0.0722,-0.0968,-0.0932,-0.0933,-0.1485,0.0,-0.3253,-0.414,-0.4966,-0.5723,-0.5993,-0.6037,-0.5972,-0.628,-0.6577,-0.6826,-0.7617,-0.8506,-0.9467,-1.0614,-1.1106,-1.0497,-1.1119,-1.1351,-1.0815,-1.2395,-1.3791,-1.4433,-1.6295,-1.8504,-2.0982,-2.11,-2.1082,-2.0978,-2.2432,-2.3145,-2.3097,-2.3097,-2.2951,-2.2697,-2.2685,-2.2539,-2.2309,-2.2285,-2.2273,-2.2285,-2.2285,-2.2285,-2.2249,-2.1982,-2.2117,-2.2275,-2.1861,-2.1885,-2.2211,0.0,0.0,0.0,0.0,0.0,0.0,0.0,0.0,0.0,0.0,0.0,0.0,0.0,0.0,0.0,0.0,0.0,0.0,0.0,0.0,0.0,0.0,0.0,0.0,0.0,0.2689,0.3621,0.457,0.5084,0.5436,0.5648,0.5648,0.5453,0.5094,0.4887,0.461,0.0,0.0,0.0,0.0,0.0,0.0,0.0,0.0,0.0,0.0,0.48,0.4833,0.0,0.0,0.0,0.0,0.0,0.0,0.0,0.0,0.5368,0.483,0.3138,0.0,0.1001,0.0,-0.0267,-0.0435,0.0,-0.1369,-0.192,-0.3612,-0.4043,-0.4435,-0.555,-0.5681,-0.5824,-0.6355,-0.6525,-0.6711,-0.7143,-0.8046,-0.8908,-0.949,-1.0191,-1.0497,-1.0119,-1.0556,-1.0876,-1.1095,-1.3008,-1.4405,-1.4952,-1.712,-1.8569,-1.9014,-2.0056,-2.14,-2.3093,-2.3445,-2.3345,-2.2818,-2.2818,-2.2685,-2.2418,-2.2138,-2.2017,-2.1957,-2.1752,-2.1801,-2.2091,-2.2091,-2.2091,-2.2066,-2.2141,-2.2082,-2.2075,-2.2135,-2.2349,-2.26,0.0,0.0,0.0,0.0,0.0,0.0,0.0,0.0,0.0,0.0,0.0,0.0,0.0,0.0,0.0,0.0,0.0,0.0,0.0,0.0,0.0,0.0,0.0,0.0,0.208,0.2964,0.3898,0.4882,0.5165,0.5464,0.5812,0.5812,0.5616,0.5292,0.4849,0.4529,0.0,0.0,0.0,0.0,0.4681,0.0,0.0,0.0,0.0,0.0,0.4664,0.4741,0.0,0.5045,0.5143,0.5208,0.0,0.0,0.0,0.0,0.5415,0.5056,0.3192,0.2423,0.1754,0.0346,0.0,-0.0126,-0.0629,-0.1053,-0.1696,-0.3073,-0.3653,-0.4248,-0.5415,-0.5599,-0.5772,-0.6366,-0.6653,-0.7048,-0.7816,-0.8508,-0.9052,-0.959,-0.9987,-1.021,-1.0188,-1.0572,-1.0961,-1.1207,-1.2548,-1.3505,-1.4013,-1.5921,-1.7325,-1.8017,-1.9508,-2.0879,-2.2019,-2.2549,-2.2597,-2.237,-2.2249,-2.2042,-2.1897,-2.1692,-2.1498,-2.1558,-2.1556,-2.1712,-2.205,-2.2181,-2.2266,-2.23,-2.2223,-2.2281,-2.2299,-2.2341,-2.2575,-2.3021,0.0,0.0,0.0,0.0,0.0,0.0,0.0,0.0,0.0,0.0,0.0,0.0,0.0,0.0,0.0,0.0,0.0,0.0,0.0,0.0,0.0,0.0,0.0,0.1585,0.231,0.3147,0.4034,0.5018,0.5186,0.5485,0.5904,0.5958,0.5757,0.5358,0.4766,0.4443,0.0,0.0,0.0,0.0,0.458,0.0,0.0,0.0,0.0,0.0,0.0,0.0,0.0,0.4925,0.504,0.5148,0.5257,0.0,0.0,0.0,0.0,0.0,0.3154,0.2757,0.2417,0.0478,0.0,0.0,0.0,0.0,0.0,0.0,0.0,0.0,-0.5168,-0.5586,-0.5937,-0.6317,-0.6844,-0.7522,-0.8488,-0.8833,-0.9095,-0.9596,-0.9867,-1.0041,-1.0231,-1.0786,-1.1138,-1.126,-1.1776,-1.2351,-1.2784,-1.4238,-1.5905,-1.771,-1.9234,-2.0081,-2.0244,-2.1102,-2.1607,-2.174,-2.1523,-2.1414,-2.1402,-2.1124,-2.1086,-2.1135,-2.1438,-2.1691,-2.1985,-2.2413,-2.2556,-2.2543,-2.2409,-2.2517,-2.2592,-2.2523,-2.2796,-2.322,0.0,0.0,0.0,0.0,0.0,0.0,0.0,0.0,0.0,0.0,0.0,0.0,0.0,0.0,0.0,0.0,0.0,0.0,0.0,0.0,0.0,0.0,0.1644,0.2399,0.3339,0.3986,0.454,0.5018,0.54,0.5735,0.5909,0.6171,0.5953,0.5192,0.4728,0.4443,0.43,0.0,0.0,0.0,0.452,0.0,0.0,0.0,0.0,0.0,0.0,0.0,0.0,0.4739,0.479,0.4855,0.4871,0.0,0.0,0.0,0.0,0.0,0.3005,0.261,0.2305,0.045,0.0,0.0,0.0,-0.0662,0.0,0.0,0.0,0.0,-0.4578,-0.5514,-0.6339,-0.6801,-0.7473,-0.8097,-0.8673,-0.8927,-0.9068,-0.9231,-0.9525,-0.9699,-0.9633,-1.0295,-1.0978,-1.1603,-1.2043,-1.2511,-1.3118,-1.4366,-1.5825,-1.7582,-1.855,-1.9713,-2.1291,-2.1691,-2.1595,-2.1256,-2.1219,-2.1195,-2.1183,-2.0847,-2.0917,-2.111,-2.1241,-2.1515,-2.183,-2.2164,-2.2371,-2.2397,-2.2955,-2.2819,-2.2402,-2.2971,-2.3057,-2.2966,0.0,0.0,0.0,0.0,0.0,0.0,0.0,0.0,0.0,0.0,0.0,0.0,0.0,0.0,0.0,0.0,0.0,0.0,0.0,0.0,0.0,0.1956,0.2576,0.3122,0.3596,0.4357,0.4974,0.5362,0.5752,0.6013,0.6187,0.5988,0.561,0.5078,0.4695,0.4443,0.43,0.43,0.0,0.0,0.0,0.0,0.0,0.0,0.0,0.0,0.0,0.0,0.0,0.0,0.4681,0.4785,0.4757,0.0,0.0,0.0,0.0,0.0,0.2717,0.2158,0.1625,0.033,0.0,0.0,0.0,-0.0291,-0.0666,0.0,0.0,0.0,-0.4065,-0.5452,-0.6801,-0.754,-0.81,-0.8562,-0.8916,-0.9063,-0.9182,-0.9307,-0.941,-0.9503,-0.9579,-1.0462,-1.1083,-1.1439,-1.223,-1.2709,-1.2935,-1.4034,-1.5362,-1.6805,-1.7755,-1.9104,-2.0822,-2.0955,-2.0955,-2.0847,-2.0771,-2.0641,-2.0629,-2.0364,-2.0388,-2.0698,-2.1115,-2.1495,-2.1829,-2.2379,-2.2608,-2.2571,-2.3064,-2.2955,-2.2571,-2.3134,-2.3233,-2.314,0.0,0.0,0.0,0.0,0.0,0.0,0.0,0.0,0.0,0.0,0.0,0.0,0.0,0.0,0.0,0.0,0.0,0.0,0.0,0.0,0.1966,0.2768,0.3339,0.3762,0.4026,0.473,0.5322,0.5729,0.6013,0.6208,0.6344,0.5756,0.5303,0.492,0.4621,0.4438,0.4367,0.4367,0.4367,0.0,0.0,0.0,0.0,0.0,0.0,0.0,0.0,0.0,0.0,0.0,0.0,0.0,0.0,0.0,0.0,0.4777,0.4203,0.3378,0.264,0.1887,0.11,0.0289,0.0043,0.0,0.0092,0.0136,0.0045,0.0,0.0,-0.3123,-0.3498,-0.5391,-0.7168,-0.7959,-0.8391,-0.8692,-0.8897,-0.9,-0.9131,-0.928,-0.9289,-0.9389,-0.9606,-1.0498,-1.1106,-1.1213,-1.2122,-1.2673,-1.263,-1.3657,-1.4891,-1.6237,-1.7256,-1.864,-2.0364,-2.0243,-2.0315,-2.0569,-2.0376,-2.0243,-2.0183,-1.9977,-2.0026,-2.0347,-2.0946,-2.1475,-2.1931,-2.2622,-2.2862,-2.2871,-2.3219,-2.3174,-2.2949,-2.332,-2.338,-2.3257,0.0,0.0,0.0,0.0,0.0,0.0,0.0,0.0,0.0,0.0,0.0,0.0,0.0,0.0,0.0,0.0,0.0,0.0,0.0,0.0,0.2857,0.3397,0.3591,0.4193,0.5265,0.5333,0.5523,0.5888,0.6132,0.6203,0.6105,0.568,0.5259,0.4795,0.4583,0.454,0.4595,0.4595,0.4595,0.4595,0.0,0.0,0.0,0.0,0.0,0.0,0.0,0.0,0.0,0.0,0.0,0.0,0.0,0.0,0.4597,0.4893,0.423,0.3311,0.2873,0.2029,0.1132,0.0436,0.0123,0.0087,0.0382,0.0481,0.0583,0.09,0.0,0.0,-0.2982,-0.5319,-0.7381,-0.7684,-0.7977,-0.8227,-0.8338,-0.8651,-0.8841,-0.8749,-0.9096,-0.9356,-0.9487,-1.0065,-1.0573,-1.1079,-1.1562,-1.195,-1.2325,-1.3351,-1.4711,-1.6299,-1.732,-1.8698,-2.0629,-2.0158,-2.005,-2.0303,-2.0291,-2.0146,-1.9917,-1.9893,-2.0026,-2.0347,-2.0675,-2.1383,-2.2211,-2.2644,-2.2968,-2.3197,-2.3458,-2.3562,-2.3523,-2.3692,-2.3567,-2.3257,0.0,0.0,0.0,0.0,0.0,0.0,0.0,0.0,0.0,0.0,0.0,0.0,0.0,0.0,0.0,0.0,0.0,0.0,0.0,0.0,0.3313,0.3612,0.4061,0.4577,0.5143,0.5366,0.5829,0.6665,0.6768,0.6514,0.5964,0.5529,0.5192,0.4898,0.4728,0.4703,0.4839,0.4728,0.4728,0.4839,0.4728,0.0,0.0,0.0,0.0,0.0,0.0,0.0,0.0,0.0,0.4376,0.4498,0.4476,0.4487,0.441,0.401,0.3352,0.2651,0.2022,0.1411,0.0839,0.0571,0.0509,0.0,0.0,0.0607,0.0846,0.1228,-0.0993,0.0,-0.5513,-0.6461,-0.7241,-0.804,-0.813,-0.8212,-0.8378,-0.8661,-0.8775,-0.8734,-0.8892,-0.9133,-0.9258,-0.9736,-1.0155,-1.0432,-1.1114,-1.1447,-1.151,-1.2798,-1.4146,-1.554,-1.6732,-1.8149,-1.9917,-1.9724,-1.9676,-1.9772,-1.9772,-1.9639,-1.9386,-1.9386,-1.9519,-1.9851,-2.0355,-2.0841,-2.1421,-2.2109,-2.2428,-2.2506,-2.2772,-2.3177,-2.3588,-2.3445,-2.3345,-2.3214,0.0,0.0,0.0,0.0,0.0,0.0,0.0,0.0,0.0,0.0,0.0,0.0,0.0,0.0,0.0,0.0,0.0,0.0,0.2954,0.3456,0.3789,0.3895,0.4353,0.4728,0.4898,0.5292,0.6022,0.7093,0.7093,0.6614,0.5725,0.5322,0.5094,0.5007,0.4873,0.4893,0.5037,0.496,0.4942,0.4948,0.487,0.4798,0.0,0.0,0.0,0.0,0.0,0.0,0.0,0.0,0.4355,0.4443,0.4365,0.4382,0.4312,0.3582,0.2905,0.2267,0.1682,0.1086,0.0651,0.0679,0.0,0.0,0.0849,0.0955,0.1067,0.0897,-0.1421,-0.4241,-0.691,-0.7043,-0.6958,-0.7764,-0.7826,-0.7874,-0.7974,-0.8285,-0.8432,-0.8363,-0.8611,-0.8883,-0.9008,-0.9335,-0.9672,-0.9948,-1.0462,-1.086,-1.0908,-1.1872,-1.3197,-1.5072,-1.5854,-1.7282,-1.9458,-1.9301,-1.9301,-1.9536,-1.9386,-1.9253,-1.9072,-1.9072,-1.9217,-1.9548,-1.9927,-2.0459,-2.104,-2.1622,-2.1986,-2.205,-2.2236,-2.2737,-2.337,-2.3189,-2.3132,-2.3158,0.0,0.0,0.0,0.0,0.0,0.0,0.0,0.0,0.0,0.0,0.0,0.0,0.0,0.0,0.0,0.0,0.0,0.0,0.3485,0.3995,0.43,0.43,0.4443,0.4564,0.4684,0.5234,0.604,0.7069,0.7112,0.6528,0.5402,0.5127,0.5018,0.5007,0.4995,0.5054,0.5121,0.5401,0.5273,0.4912,0.5123,0.5015,0.0,0.0,0.0,0.0,0.0,0.0,0.0,0.0,0.43,0.4322,0.4465,0.4393,0.4214,0.3901,0.3128,0.2332,0.207,0.127,0.0564,0.0834,0.1018,0.1165,0.1437,0.1497,0.1164,0.0,-0.2402,-0.4766,-0.6488,-0.6705,-0.6631,-0.6668,-0.6945,-0.7088,-0.6998,-0.7482,-0.7837,-0.7698,-0.8252,-0.8633,-0.8753,-0.8878,-0.9137,-0.9683,-0.9694,-1.0048,-1.0748,-1.0541,-1.1858,-1.4996,-1.4734,-1.607,-1.9446,-1.8939,-1.8939,-1.9524,-1.9193,-1.9072,-1.9072,-1.9072,-1.9217,-1.9536,-1.9536,-2.0184,-2.1289,-2.1289,-2.16,-2.2085,-2.2085,-2.2476,-2.2946,-2.3019,-2.307,-2.3041,0.0,0.0,0.0,0.0,0.0,0.0,0.0,0.0,0.0,0.0,0.0,0.0,0.0,0.0,0.0,0.0,0.0,0.0,0.4061,0.42,0.43,0.43,0.4443,0.4595,0.4774,0.5845,0.6363,0.6254,0.6505,0.6237,0.5444,0.5167,0.514,0.5337,0.5342,0.5473,0.5644,0.5454,0.5436,0.5588,0.536,0.5284,0.5322,0.0,0.0,0.0,0.0,0.0,0.0,0.0,0.0,0.0,0.4675,0.4348,0.3831,0.3204,0.2573,0.1917,0.1382,0.1161,0.108,0.1224,0.1353,0.1507,0.0,0.1722,0.0,0.0,-0.2341,-0.368,-0.6553,-0.6745,-0.6631,-0.6941,-0.6835,-0.6741,-0.6713,-0.725,-0.7544,-0.7408,-0.7953,-0.8388,-0.8513,-0.8557,-0.866,-0.9068,-0.9126,-0.9265,-0.9555,-0.9839,-1.0841,-1.2755,-1.3798,-1.5312,-1.7285,-1.8034,-1.8577,-1.8915,-1.8843,-1.8891,-1.9072,-1.9072,-1.9217,-1.9536,-1.9536,-1.9778,-2.0337,-2.052,-2.08,-2.1105,-2.1105,-2.1365,-2.1745,-2.2003,-2.2099,-2.2024,0.0,0.0,0.0,0.0,0.0,0.0,0.0,0.0,0.0,0.0,0.0,0.0,0.0,0.0,0.0,0.0,0.0,0.0,0.0,0.4233,0.4322,0.4365,0.4539,0.4775,0.5073,0.5866,0.6124,0.5865,0.6367,0.62,0.5442,0.5387,0.5468,0.5705,0.5739,0.5817,0.594,0.5755,0.575,0.575,0.5589,0.5556,0.5583,0.0,0.0,0.0,0.0,0.0,0.0,0.0,0.0,0.0,0.4761,0.4344,0.3662,0.2994,0.2357,0.1738,0.1116,0.108,0.1291,0.1377,0.1523,0.1681,0.1854,0.1458,0.0445,-0.1915,-0.2699,-0.3791,-0.6485,-0.6656,-0.6498,-0.6791,-0.6702,-0.6553,-0.6443,-0.6978,-0.7345,-0.7134,-0.7691,-0.8138,-0.8263,-0.8274,-0.8372,-0.8611,-0.865,-0.8719,-0.9036,-0.9239,-1.0102,-1.1666,-1.2665,-1.4156,-1.619,-1.71,-1.7866,-1.8529,-1.8746,-1.8867,-1.8927,-1.9024,-1.9217,-1.9483,-1.9766,-1.982,-1.9905,-2.0171,-2.05,-2.0715,-2.0577,-2.0988,-2.1602,-2.1496,-2.1546,-2.1616,0.0,0.0,0.0,0.0,0.0,0.0,0.0,0.0,0.0,0.0,0.0,0.0,0.0,0.0,0.0,0.0,0.0,0.0,0.0,0.0,0.4349,0.4498,0.474,0.5056,0.5466,0.5525,0.5627,0.58,0.6441,0.63,0.5439,0.5747,0.5931,0.5995,0.6128,0.6134,0.6005,0.6139,0.5989,0.5636,0.579,0.5752,0.5611,0.5359,0.0,0.0,0.0,0.0,0.0,0.0,0.0,0.0,0.4861,0.4334,0.3651,0.3095,0.2378,0.1628,0.1138,0.1108,0.1254,0.136,0.1575,0.1801,0.194,0.0971,-0.0404,-0.1979,-0.3222,-0.4528,-0.6297,-0.6451,-0.6357,-0.6506,-0.6504,-0.6451,-0.6194,-0.6723,-0.7093,-0.6893,-0.7484,-0.7894,-0.8059,-0.8086,-0.8127,-0.835,-0.8263,-0.8381,-0.8832,-0.8782,-0.9532,-1.1186,-1.1364,-1.2839,-1.57,-1.6158,-1.6977,-1.83,-1.877,-1.8903,-1.8722,-1.8963,-1.9217,-1.956,-2.0014,-2.011,-1.9905,-2.0146,-2.0447,-2.0706,-2.0342,-2.0921,-2.1925,-2.1236,-2.1249,-2.1554,0.0,0.0,0.0,0.0,0.0,0.0,0.0,0.0,0.0,0.0,0.0,0.0,0.0,0.0,0.0,0.0,0.0,0.0,0.0,0.0,0.4349,0.4498,0.5051,0.5359,0.5427,0.5613,0.5764,0.58,0.5797,0.5725,0.5657,0.5819,0.5906,0.5916,0.6078,0.6087,0.5968,0.5761,0.5719,0.5755,0.5646,0.5646,0.5749,0.5682,0.5519,0.0,0.0,0.0,0.0,0.0,0.0,0.0,0.5226,0.4422,0.3376,0.318,0.2252,0.124,0.1188,0.1187,0.1262,0.1515,0.1761,0.196,0.203,0.1904,0.0943,-0.1752,-0.2505,-0.3552,-0.6187,-0.6549,-0.6498,-0.6518,-0.6292,-0.6061,-0.599,-0.6464,-0.6793,-0.6665,-0.7319,-0.7709,-0.7644,-0.7801,-0.7932,-0.7986,-0.7964,-0.8065,-0.8248,-0.8392,-0.8682,-0.9081,-1.0526,-1.2155,-1.3781,-1.509,-1.665,-1.83,-1.8408,-1.865,-1.9,-1.9048,-1.9217,-1.9548,-1.982,-1.9941,-1.9893,-1.9953,-2.0032,-2.0075,-1.979,-1.9978,-2.0405,-2.0202,-2.0335,-2.0678,0.0,0.0,0.0,0.0,0.0,0.0,0.0,0.0,0.0,0.0,0.0,0.0,0.0,0.0,0.0,0.0,0.0,0.0,0.0,0.0,0.0,0.4642,0.5117,0.5341,0.5345,0.5663,0.58,0.58,0.5765,0.5841,0.0,0.0,0.6335,0.6369,0.6304,0.6271,0.622,0.5818,0.5699,0.58,0.5699,0.5699,0.5793,0.5725,0.558,0.5438,0.5365,0.0,0.0,0.0,0.0,0.0,0.0,0.0,0.3508,0.3346,0.23,0.1201,0.1165,0.12,0.1326,0.1628,0.184,0.1988,0.2033,0.1623,0.0527,-0.1711,-0.2197,-0.3032,-0.5975,-0.6419,-0.6308,-0.6268,-0.6108,-0.5879,-0.5746,-0.6281,-0.6622,-0.6517,-0.713,-0.7589,-0.7524,-0.7627,-0.7703,-0.7703,-0.7703,-0.7731,-0.7796,-0.7977,-0.8159,-0.828,-0.9357,-1.062,-1.215,-1.3822,-1.5382,-1.6862,-1.7982,-1.8686,-1.9084,-1.9205,-1.941,-1.9688,-1.9953,-2.0002,-1.9893,-2.0026,-2.0051,-1.9952,-1.9875,-2.0075,-2.0343,-2.0141,-2.0158,-2.0347,0.0,0.0,0.0,0.0,0.0,0.0,0.0,0.0,0.0,0.0,0.0,0.0,0.0,0.0,0.0,0.0,0.0,0.0,0.0,0.0,0.0,0.4746,0.5051,0.5211,0.5275,0.5605,0.5786,0.584,0.5905,0.0,0.0,0.0,0.0,0.6836,0.0,0.6484,0.6369,0.5942,0.5752,0.5725,0.5725,0.5725,0.5711,0.5596,0.5549,0.5569,0.5473,0.5425,0.5458,0.5617,0.0,0.0,0.0,0.0,0.3903,0.3554,0.2548,0.1461,0.1215,0.1251,0.141,0.1693,0.1844,0.1939,0.1997,0.1017,-0.0321,-0.1802,-0.221,-0.3146,-0.5769,-0.6219,-0.6129,-0.598,-0.5879,-0.581,-0.5701,-0.6192,-0.6493,-0.646,-0.7065,-0.7481,-0.7459,-0.7491,-0.7508,-0.7491,-0.7508,-0.7519,-0.7519,-0.7616,-0.779,-0.8082,-0.8268,-0.9172,-1.0906,-1.2414,-1.3882,-1.5395,-1.7629,-1.8794,-1.9012,-1.9277,-1.9555,-1.982,-2.0038,-2.0038,-1.9905,-2.0122,-2.0142,-1.9961,-2.0112,-2.0337,-2.0539,-2.033,-2.025,-2.0257,0.0,0.0,0.0,0.0,0.0,0.0,0.0,0.0,0.0,0.0,0.0,0.0,0.0,0.0,0.0,0.0,0.0,0.0,0.42,0.0,0.0,0.4538,0.4974,0.5219,0.52,0.5495,0.5745,0.5959,0.0,0.0,0.0,0.0,0.0,0.6722,0.0,0.0,0.6033,0.5752,0.5576,0.5453,0.5453,0.5453,0.5453,0.5433,0.0,0.5452,0.5531,0.5583,0.5617,0.5789,0.5855,0.0,0.0,0.0,0.455,0.3936,0.3115,0.2259,0.1556,0.1405,0.152,0.1617,0.1767,0.1907,0.1969,0.0939,-0.0381,-0.1799,-0.2966,-0.426,-0.5876,-0.6129,-0.5976,-0.5949,-0.5734,-0.5701,-0.589,-0.6204,-0.642,-0.6624,-0.7059,-0.7317,-0.727,-0.7394,-0.7475,-0.7309,-0.7459,-0.7519,-0.7519,-0.7535,-0.754,-0.7599,-0.8016,-0.8966,-1.0497,-1.1032,-1.2785,-1.5655,-1.7722,-1.871,-1.8746,-1.9012,-1.9265,-1.9596,-1.9555,-1.9688,-1.9893,-1.9929,-1.996,-1.9875,-1.9705,-1.9633,-1.9669,-1.9845,-1.9996,-2.0179,0.0,0.0,0.0,0.0,0.0,0.0,0.0,0.0,0.0,0.0,0.0,0.0,0.0,0.0,0.0,0.43,0.4167,0.4133,0.43,0.4284,0.4306,0.4371,0.4768,0.497,0.497,0.5369,0.565,0.5786,0.0,0.0,0.0,0.6898,0.7041,0.0,0.0,0.0,0.0,0.0,0.5535,0.5392,0.5392,0.5392,0.5392,0.0,0.0,0.0,0.0,0.0,0.5789,0.5987,0.6086,0.6086,0.6152,0.0,0.0,0.0,0.3392,0.2619,0.1714,0.1467,0.1519,0.16,0.1651,0.1744,0.187,0.0358,-0.1263,-0.1833,-0.3552,-0.5125,-0.5954,-0.5994,-0.5888,-0.5847,-0.5688,-0.5668,-0.5974,-0.6172,-0.6386,-0.6659,-0.7036,-0.7214,-0.7215,-0.7308,-0.729,-0.7236,-0.7285,-0.7312,-0.7312,-0.7377,-0.7448,-0.7513,-0.7757,-0.8385,-0.9379,-1.0259,-1.2386,-1.5698,-1.7301,-1.8167,-1.8469,-1.8734,-1.9084,-1.9536,-1.9536,-1.9543,-1.9664,-1.982,-1.9712,-1.9446,-1.9627,-1.97,-1.9712,-1.9845,-2.0105,-2.0518,0.0,0.0,0.0,0.0,0.0,0.0,0.0,0.0,0.0,0.0,0.0,0.0,0.0,0.0,0.0,0.0,0.43,0.4289,0.4257,0.417,0.4159,0.4317,0.4616,0.4827,0.4861,0.5305,0.5549,0.0,0.0,0.0,0.6709,0.6923,0.7272,0.0,0.7173,0.0,0.0,0.0,0.0,0.0,0.0,0.0,0.0,0.0,0.0,0.0,0.0,0.0,0.0,0.0,0.0,0.6284,0.6383,0.5947,0.0,0.0,0.0,0.2554,0.1738,0.153,0.1492,0.1535,0.1378,0.1242,0.131,-0.0504,-0.2266,-0.2256,-0.4007,-0.558,-0.5782,-0.5806,-0.5737,-0.5716,-0.5656,-0.5728,-0.6052,-0.6266,-0.6492,-0.6771,-0.7043,-0.721,-0.721,-0.721,-0.721,-0.721,-0.721,-0.7321,-0.7598,-0.7685,-0.7743,-0.7927,-0.8054,-0.8242,-0.8532,-1.0281,-1.2457,-1.5104,-1.6704,-1.7732,-1.8191,-1.8469,-1.8831,-1.9265,-1.9338,-1.9374,-1.9386,-1.9591,-1.9446,-1.912,-1.9519,-1.9724,-1.9784,-1.999,-2.0337,-2.0851,0.0,0.0,0.0,0.0,0.0,0.0,0.0,0.0,0.0,0.0,0.0,0.0,0.4284,0.43,0.43,0.43,0.43,0.4251,0.4132,0.4089,0.4185,0.4388,0.4662,0.0,0.5087,0.5299,0.5481,0.0,0.0,0.0,0.6702,0.6865,0.7265,0.7872,0.7657,0.7149,0.6497,0.0,0.0,0.0,0.0,0.0,0.0,0.0,0.0,0.0,0.0,0.0,0.0,0.0,0.0,0.0,0.0,0.0,0.5246,0.0,0.0,0.0,0.1657,0.154,0.1489,0.1343,0.069,0.0094,0.01,-0.1615,-0.3237,-0.3286,-0.4435,-0.5398,-0.5414,-0.5545,-0.5564,-0.5537,-0.5745,-0.6052,-0.6237,-0.6497,-0.6826,-0.7154,-0.721,-0.721,-0.721,-0.721,-0.721,-0.721,-0.721,-0.7654,-0.8754,-0.8816,-0.8883,-0.903,-0.912,-0.8968,-0.8393,-1.1388,-1.2993,-1.3345,-1.617,-1.7624,-1.7901,-1.8191,-1.8469,-1.8746,-1.8988,-1.9096,-1.9096,-1.9108,-1.9096,-1.9084,-1.9108,-1.9265,-1.9584,-2.0182,-2.0614,-2.0946,0.0,0.0,0.0,0.0,0.0,0.0,0.0,0.0,0.0,0.0,0.0,0.0,0.0,0.4251,0.4268,0.4191,0.4078,0.4051,0.4083,0.4013,0.4135,0.4519,0.4704,0.4894,0.5087,0.5292,0.0,0.0,0.0,0.5874,0.6274,0.662,0.6944,0.7183,0.7301,0.7261,0.7041,0.6608,0.0,0.0,0.0,0.0,0.0,0.0,0.0,0.0,0.0,0.0,0.0,0.0,0.0,0.0,0.0,0.0,0.0,0.0,0.0,0.2018,0.1682,0.1581,0.1497,0.1286,0.0634,0.0084,0.018,-0.153,-0.3094,-0.3071,-0.4232,-0.526,-0.5426,-0.5524,-0.5596,-0.5562,-0.5781,-0.6058,-0.6349,-0.6452,-0.6609,-0.6926,-0.6931,-0.6931,-0.6931,-0.6931,-0.6959,-0.704,-0.775,-0.8381,-0.8858,-0.9636,-1.009,-1.0201,-0.9434,-0.8791,-0.8317,-1.0475,-1.1703,-1.2003,-1.463,-1.5999,-1.6247,-1.7517,-1.807,-1.8179,-1.8456,-1.877,-1.9072,-1.9072,-1.9072,-1.9136,-1.9328,-1.9662,-2.0133,-2.0564,-2.1162,-2.1781,0.0,0.0,0.0,0.0,0.0,0.0,0.0,0.0,0.0,0.0,0.0,0.0,0.0,0.0,0.4268,0.4186,0.4035,0.3997,0.4078,0.4008,0.413,0.4525,0.4704,0.4894,0.5087,0.5292,0.0,0.0,0.0,0.0,0.0,0.6315,0.657,0.6727,0.6924,0.7118,0.0,0.0,0.0,0.6536,0.0,0.0,0.6391,0.0,0.0,0.0,0.0,0.0,0.0,0.0,0.0,0.0,0.0,0.0,0.0,0.0,0.0,0.0,0.1763,0.0,0.0,0.1294,0.0443,-0.0344,-0.0289,-0.1843,-0.3359,-0.3358,-0.4213,-0.5039,-0.533,-0.5491,-0.562,-0.5661,-0.5892,-0.6172,-0.6384,-0.6806,-0.7118,-0.7328,-0.7638,-0.7901,-0.7901,-0.7901,-0.7781,-0.7505,-0.8515,-0.9197,-0.9305,-1.0385,-1.1062,-1.1194,-0.9824,-0.905,-0.8811,-1.0103,-1.0971,-1.1323,-1.3451,-1.4719,-1.533,-1.6583,-1.7422,-1.7889,-1.807,-1.8456,-1.8951,-1.8951,-1.9063,-1.9264,-1.9507,-1.9921,-2.0476,-2.0961,-2.1561,-2.2141,0.0,0.0,0.0,0.0,0.0,0.0,0.0,0.0,0.0,0.0,0.0,0.0,0.0,0.0,0.0,0.4306,0.4191,0.4121,0.4121,0.4121,0.4217,0.4414,0.4662,0.4894,0.5087,0.0,0.0,0.0,0.0,0.0,0.0,0.0,0.6204,0.6573,0.6573,0.6759,0.7096,0.0,0.7203,0.6889,0.0,0.6549,0.6757,0.0,0.0,0.0,0.7739,0.7682,0.0,0.7118,0.0,0.0,0.0,0.0,0.0,0.0,0.0,0.0,0.0,0.0,0.0,0.0,0.0,-0.1323,-0.1389,-0.2753,-0.4029,-0.4242,-0.443,-0.4681,-0.501,-0.5324,-0.5575,-0.5879,-0.6205,-0.6426,-0.6373,-0.7527,-0.8413,-0.8413,-0.9347,-0.9964,-0.9964,-0.9964,-0.9547,-0.8525,-0.9451,-1.0076,-1.0136,-1.1182,-1.1793,-1.1866,-1.0458,-0.9695,-0.98,-1.0539,-1.1021,-1.1265,-1.2619,-1.3936,-1.5214,-1.5461,-1.6414,-1.7805,-1.7865,-1.8167,-1.8674,-1.8686,-1.902,-1.9571,-1.9635,-2.0002,-2.0617,-2.128,-2.1699,-2.196,0.0,0.0,0.0,0.0,0.0,0.0,0.0,0.0,0.0,0.0,0.0,0.0,0.4175,0.4246,0.4333,0.4449,0.4445,0.4476,0.4476,0.4455,0.4604,0.4898,0.4968,0.5126,0.5326,0.0,0.0,0.0,0.0,0.0,0.0,0.0,0.0,0.0,0.6201,0.6463,0.6803,0.6853,0.0,0.7501,0.6868,0.7029,0.0,0.0,0.0,0.0,0.0,0.7842,0.7861,0.0,0.7224,0.7061,0.0,0.0,0.0,0.0,0.0,0.0,0.1934,0.0,0.0,0.0,0.0,0.0,-0.1191,-0.2487,-0.3713,-0.3801,-0.4063,-0.4425,-0.4893,-0.5048,-0.5286,-0.5836,-0.6154,-0.6348,-0.6377,-0.7396,-0.8096,-0.8096,-0.9052,-0.9704,-0.9704,-0.9704,-0.9609,-0.943,-1.0459,-1.1132,-1.1225,-1.238,-1.2597,-1.162,-1.141,-1.0722,-0.9581,-0.9961,-1.012,-0.9954,-1.1336,-1.2181,-1.2592,-1.4685,-1.585,-1.6272,-1.7233,-1.7901,-1.842,-1.8601,-1.8911,-1.9361,-1.9763,-2.0336,-2.0916,-2.1384,-2.1859,-2.2284,0.0,0.0,0.0,0.0,0.0,0.0,0.0,0.0,0.0,0.0,0.0,0.0,0.4349,0.4447,0.4529,0.458,0.4608,0.4636,0.4636,0.4653,0.4775,0.4954,0.5054,0.5153,0.5259,0.0,0.0,0.0,0.0,0.0,0.0,0.0,0.0,0.0,0.0,0.0,0.0,0.0,0.0,0.0,0.7049,0.0,0.0,0.7732,0.7894,0.0,0.0,0.0,0.8288,0.7657,0.7266,0.0,0.0,0.0,0.0,0.0,0.0,0.0,0.0,0.0,0.0,0.0,0.0,0.0,-0.0908,-0.2197,-0.3435,-0.3507,-0.3716,-0.4046,-0.4578,-0.4695,-0.4926,-0.5473,-0.5756,-0.6002,-0.6323,-0.7635,-0.8588,-0.8654,-1.0002,-1.0935,-1.0935,-1.0542,-1.0094,-0.9754,-1.0312,-1.0916,-1.1438,-1.2566,-1.2865,-1.2073,-1.1865,-1.1364,-1.0562,-1.0478,-1.0124,-0.9539,-1.0689,-1.1267,-1.1312,-1.37,-1.5095,-1.5688,-1.695,-1.7851,-1.8386,-1.8655,-1.9087,-1.9625,-2.0106,-2.0579,-2.1069,-2.1579,-2.1951,-2.2271,0.0,0.0,0.0,0.0,0.0,0.0,0.0,0.0,0.0,0.0,0.4662,0.4739,0.0,0.0,0.0,0.0,0.4755,0.4769,0.4769,0.4811,0.4861,0.0,0.0,0.0,0.0,0.0,0.0,0.0,0.0,0.0,0.0,0.0,0.0,0.0,0.0,0.0,0.0,0.0,0.0,0.6876,0.7102,0.7472,0.0,0.0,0.8452,0.8771,0.8641,0.8726,0.8735,0.8098,0.708,0.0,0.0,0.0,0.0,0.0,0.2202,0.0,0.0,0.0,0.0,0.0,0.0,0.0,-0.0606,-0.1855,-0.3101,-0.3336,-0.3422,-0.363,-0.4143,-0.4286,-0.4496,-0.4956,-0.5204,-0.5534,-0.6127,-0.7938,-0.9292,-0.9527,-1.1308,-1.2549,-1.2571,-1.1736,-1.0711,-0.9657,-0.9608,-1.0043,-1.1121,-1.2116,-1.2662,-1.2807,-1.2127,-1.1825,-1.1971,-1.1528,-1.077,-0.9706,-1.0466,-1.0794,-1.0763,-1.2563,-1.4044,-1.5231,-1.6632,-1.7636,-1.8201,-1.8666,-1.9324,-2.0132,-2.0475,-2.0819,-2.1229,-2.175,-2.1977,-2.2111,0.0,0.0,0.0,0.0,0.0,0.0,0.0,0.0,0.0,0.0,0.4931,0.5018,0.0,0.0,0.0,0.0,0.5092,0.5117,0.5117,0.5201,0.5292,0.5292,0.0,0.0,0.0,0.0,0.0,0.0,0.0,0.0,0.0,0.0,0.0,0.0,0.0,0.0,0.0,0.0,0.0,0.6158,0.6736,0.0,0.8398,0.8111,0.8257,0.8633,0.8731,0.8796,0.8807,0.8413,0.7134,0.5614,0.0,0.0,0.0,0.0,0.0,0.0,0.0,0.0,0.0,0.0,0.0,0.0,-0.058,-0.139,-0.2232,-0.3075,-0.3328,-0.3511,-0.3777,-0.3871,-0.4091,-0.4687,-0.4807,-0.5053,-0.5723,-0.7008,-0.819,-0.9114,-1.0304,-1.1073,-1.1201,-1.102,-1.0509,-0.9649,-0.9608,-1.0043,-1.1121,-1.1414,-1.1922,-1.2759,-1.2662,-1.2348,-1.1851,-1.2082,-1.1362,-0.9706,-1.0117,-0.9982,-0.933,-1.0906,-1.1887,-1.2419,-1.4893,-1.6306,-1.6914,-1.852,-1.9581,-2.0227,-2.0524,-2.0937,-2.1547,-2.1655,-2.1937,-2.2352,0.0,0.0,0.0,0.0,0.0,0.0,0.0,0.0,0.0,0.0,0.0,0.0,0.0,0.0,0.0,0.0,0.0,0.0,0.0,0.0,0.0,0.0,0.0,0.0,0.0,0.0,0.0,0.0,0.0,0.0,0.0,0.0,0.0,0.0,0.0,0.0,0.0,0.0,0.5928,0.6206,0.6803,0.0,0.7924,0.8058,0.8319,0.862,0.8666,0.8607,0.8362,0.7635,0.7034,0.0,0.0,0.4055,0.3798,0.0,0.2245,0.2245,0.0,0.0,0.0,0.2105,0.0,0.0,0.0,-0.1153,-0.202,-0.3086,-0.3255,-0.328,-0.3534,-0.36,-0.3735,-0.4081,-0.4335,-0.4606,-0.5027,-0.6386,-0.7539,-0.8155,-0.948,-1.0419,-1.0639,-1.0093,-0.9239,-0.7938,-0.8403,-0.8927,-0.9462,-1.0578,-1.1179,-1.1179,-1.2214,-1.2374,-1.1529,-1.2475,-1.2178,-1.0687,-1.0755,-1.0288,-0.9502,-1.0603,-1.1248,-1.161,-1.3867,-1.5519,-1.6722,-1.8082,-1.9358,-2.046,-2.075,-2.1075,-2.1363,-2.1657,-2.1951,-2.2245,0.0,0.0,0.0,0.0,0.0,0.0,0.0,0.0,0.0,0.0,0.0,0.0,0.0,0.0,0.0,0.0,0.0,0.0,0.0,0.0,0.0,0.0,0.0,0.5467,0.0,0.0,0.0,0.0,0.0,0.0,0.0,0.0,0.0,0.0,0.0,0.0,0.0,0.0,0.0,0.6411,0.0,0.7196,0.7321,0.7972,0.8338,0.8555,0.8555,0.8276,0.7837,0.696,0.7026,0.6995,0.4358,0.4146,0.0,0.0,0.0,0.0,0.0,0.0,0.0,0.0,0.0,0.0936,0.0,0.0,0.0,-0.2933,-0.3095,-0.3135,-0.3418,-0.3432,-0.3462,-0.36,-0.393,-0.4211,-0.4402,-0.5661,-0.6713,-0.7109,-0.8477,-0.9508,-0.9802,-0.8775,-0.7542,-0.6147,-0.6875,-0.7535,-0.7753,-0.9736,-1.0547,-0.9944,-1.1775,-1.2262,-1.1219,-1.2475,-1.2463,-1.1089,-1.0937,-1.0418,-0.971,-1.0347,-1.0835,-1.1315,-1.2985,-1.465,-1.6282,-1.7143,-1.8569,-2.0305,-2.085,-2.1149,-2.1256,-2.179,-2.2017,-2.2151,-0.1012,-0.0536,0.0,0.0,0.0,0.0,0.0,0.0,0.0,0.0,0.0,0.0,0.0,0.0,0.0,0.0,0.0,0.0,0.4326,0.0,0.0,0.0,0.0,0.0,0.5569,0.0,0.0,0.0,0.0,0.0,0.0,0.0,0.0,0.0,0.5501,0.0,0.0,0.0,0.5887,0.0,0.6752,0.711,0.0,0.7811,0.8087,0.8325,0.8325,0.8131,0.782,0.0,0.7482,0.6962,0.0,0.4724,0.4343,0.2882,0.0,0.0,0.0,0.0,0.0,0.0,0.2325,0.0,0.0,0.0,-0.0886,-0.2075,0.0,-0.3234,-0.3391,0.0,0.0,-0.375,-0.3875,-0.3985,-0.414,-0.4405,-0.5151,-0.6498,-0.6781,-0.6995,-0.7354,-0.6562,-0.5981,-0.5773,-0.5968,-0.6589,-0.7651,-0.8941,-1.0018,-1.0974,-1.2165,-1.2262,-1.1219,-1.1556,-1.0784,-0.8937,-0.9078,-0.897,-0.8594,-0.8875,-0.942,-1.0324,-1.1799,-1.2904,-1.3721,-1.535,-1.7022,-1.8766,-2.0443,-2.1269,-2.1601,-2.1871,-2.2151,-2.2418,-0.1095,-0.0933,0.0,0.0,0.0,0.0,0.0,0.0,0.0,0.0,0.0,0.0,0.0,0.0,0.0,0.0,0.0,0.4438,0.0,0.0,0.0,0.0,0.0,0.0,0.0,0.0,0.0,0.0,0.5698,0.0,0.0,0.0,0.0,0.0,0.5412,0.0,0.5481,0.0,0.5893,0.0,0.0,0.0,0.0,0.7684,0.7958,0.8113,0.8016,0.7926,0.7644,0.0,0.6339,0.0,0.0,0.0,0.0,0.0,0.0,0.0,0.0,0.0,0.0,0.0,0.0,0.0,0.0857,0.0,-0.0427,0.0,0.0,0.0,0.0,0.0,0.0,0.0,-0.3698,-0.3763,-0.3889,-0.3937,-0.4308,-0.5319,-0.5809,-0.6222,-0.662,-0.6454,-0.6117,-0.5566,-0.5697,-0.6009,-0.6515,-0.7766,-0.8449,-0.8376,-1.0187,-1.0886,-1.0288,-1.0694,-1.0828,-1.0678,-0.9771,-0.9398,-0.9588,-0.9196,-0.9308,-0.9856,-1.0898,-1.1985,-1.3033,-1.4417,-1.6331,-1.841,-1.9462,-2.0463,-2.1336,-2.163,-2.1924,-2.2205,0.0,0.0,0.0,0.0,0.0,0.0,0.0385,0.0677,0.0882,0.1087,0.0,0.0,0.3888,0.4997,0.0,0.0,0.4565,0.474,0.0,0.0,0.5278,0.0,0.0,0.0,0.0,0.0,0.0,0.0,0.0,0.0,0.0,0.0,0.0,0.0,0.0,0.5213,0.5404,0.0,0.6035,0.639,0.6768,0.7057,0.7312,0.7652,0.7862,0.7992,0.7861,0.7605,0.7124,0.5657,0.5498,0.547,0.3119,0.2847,0.3204,0.0,0.0,0.0,0.1977,0.0,0.0,0.0,0.0,0.0,0.0,0.0,0.0,0.0,0.0,0.0,0.0,0.0,0.0,0.0,0.0,-0.3655,-0.3708,-0.3684,-0.3855,-0.4387,-0.5064,-0.5637,-0.5994,-0.6183,-0.6044,-0.5355,-0.5464,-0.5567,-0.5637,-0.6953,-0.7432,-0.6846,-0.8875,-0.9805,-0.9361,-0.9865,-1.0379,-1.0958,-0.9783,-0.9532,-1.0074,-0.9478,-0.9427,-0.9852,-1.0499,-1.139,-1.2371,-1.3322,-1.5062,-1.7261,-1.8018,-1.9245,-2.0574,-2.1352,-2.1802,-2.2031,-0.1084,-0.1145,0.0,0.0,0.0,0.0,-0.0334,-0.0349,-0.0407,-0.0599,0.0,0.0,0.0,0.0,0.0,0.0,0.0,0.5213,0.5112,0.0,0.5502,0.0,0.0,0.6471,0.0,0.0,0.0,0.0,0.0,0.0,0.0,0.0,0.0,0.0,0.0,0.4968,0.6036,0.5871,0.6301,0.7049,0.6942,0.7134,0.7504,0.0,0.7862,0.7992,0.7861,0.7132,0.6209,0.5957,0.55,0.4846,0.3713,0.3385,0.0,0.0,0.0,0.0,0.0,0.0,0.0,0.1866,0.0,0.0,0.0,0.0,0.0075,0.0,0.0,0.0,0.0,0.0,0.0,0.0,0.0,0.0,0.0,-0.3565,-0.3734,-0.4094,-0.4488,-0.4813,-0.5023,-0.5068,-0.5029,-0.5029,-0.5137,-0.5306,-0.5502,-0.6764,-0.7688,-0.8131,-0.9364,-0.9608,-0.8825,-0.8996,-0.8671,-0.7942,-0.8227,-0.8615,-0.9169,-0.9265,-0.9633,-1.0301,-1.0664,-1.1027,-1.1405,-1.1894,-1.2952,-1.4382,-1.6128,-1.7634,-1.9086,-2.0939,-2.1802,-2.2031,0.0,0.0,0.0,0.0,0.0,-0.067,-0.0595,-0.0632,-0.0618,0.0,0.1166,0.0,0.0,0.5294,0.6298,0.0,0.0,0.6589,0.5684,0.6415,0.0,0.0,0.0,0.698,0.0,0.0,0.0,0.0,0.0,0.0,0.0,0.0,0.0,0.0,0.0,0.4888,0.0,0.0,0.0,0.0,0.0,0.7581,0.7983,0.0,0.761,0.765,0.7633,0.7382,0.6896,0.5699,0.5079,0.4535,0.2901,0.2304,0.2136,0.1722,0.163,0.1654,0.1683,0.1846,0.1992,0.1982,0.1891,0.0,0.0,0.0,0.0,0.0,0.0,0.0,0.0,0.0,0.0,0.0,0.0,0.0,0.0,-0.3572,-0.3714,-0.4051,-0.4346,-0.454,-0.4579,-0.4558,-0.4548,-0.4613,-0.4771,-0.4975,-0.5204,-0.5917,-0.6533,-0.7083,-0.7752,-0.8314,-0.8775,-0.8487,-0.8563,-0.9036,-0.8745,-0.88,-0.928,-0.9433,-0.9674,-1.0004,-1.0308,-1.0543,-1.0679,-1.1218,-1.2328,-1.3821,-1.4736,-1.6614,-1.8999,-2.0652,-2.1443,-2.1764,-0.1228,0.0,0.0,0.0,0.0,-0.0782,-0.0698,-0.0756,0.0,0.0,0.204,0.0,0.4624,0.0,0.7404,0.0,0.7385,0.742,0.6555,0.7165,0.0,0.7475,0.7356,0.0,0.0,0.0,0.0,0.0,0.0,0.2972,0.0,0.0,0.0,0.0,0.0,0.4734,0.5686,0.5979,0.6247,0.0,0.0,0.7652,0.0,0.0,0.7602,0.7748,0.7553,0.7288,0.6819,0.5389,0.4652,0.4103,0.2434,0.1808,0.1691,0.1532,0.1571,0.1612,0.1612,0.1806,0.1996,0.1927,0.1864,0.1799,0.1848,0.0,-0.0241,0.0,0.0,0.0,0.0,0.0,0.0,0.0,0.0,0.0,0.0,-0.3675,-0.3734,-0.3951,-0.4155,-0.4307,-0.4384,-0.4366,-0.4351,-0.438,-0.4579,-0.4838,-0.51,-0.5427,-0.593,-0.6638,-0.6918,-0.754,-0.8528,-0.8231,-0.8484,-0.9279,-0.8941,-0.9014,-0.9388,-0.9537,-0.9686,-0.9822,-1.0126,-1.0308,-1.0315,-1.0782,-1.1616,-1.2673,-1.3483,-1.5094,-1.7155,-1.9486,-2.0965,-2.1777,0.0,0.0,0.0,0.0,-0.0764,0.0,0.0,0.0,0.0053,0.0,0.2848,0.4279,0.608,0.7281,0.7899,0.7899,0.779,0.7702,0.7624,0.7411,0.0,0.0,0.7335,0.7086,0.6916,0.0,0.0,0.0,0.0,0.0,0.0,0.0,0.0,0.0,0.3593,0.0,0.6079,0.6246,0.6402,0.6656,0.7042,0.7304,0.7504,0.7488,0.7813,0.8211,0.7675,0.698,0.6125,0.5074,0.4336,0.3636,0.2316,0.1926,0.1887,0.1887,0.1769,0.1612,0.1612,0.1885,0.2079,0.1728,0.1885,0.2118,0.1963,0.108,0.0081,0.0,0.0,0.0,0.0,0.0,0.0,0.0,0.0,0.0,0.0,0.0,-0.3804,-0.3808,-0.3964,-0.4155,-0.4345,-0.4375,-0.4375,-0.4384,-0.4579,-0.4793,-0.5059,-0.5358,-0.5935,-0.6879,-0.7008,-0.7388,-0.7988,-0.8194,-0.8395,-0.8486,-0.8784,-0.9083,-0.9374,-0.953,-0.968,-0.9808,-1.0119,-1.0301,-1.0308,-1.0611,-1.0793,-1.0921,-1.242,-1.3172,-1.3843,-1.7562,-2.0217,-2.2004,-0.1117,-0.0803,-0.0561,0.0,-0.0437,-0.0089,0.0,0.0,0.0,0.0,0.467,0.5806,0.6333,0.7483,0.828,0.828,0.8272,0.0,0.0,0.0,0.0,0.7907,0.7932,0.7786,0.7272,0.6302,0.0,0.5231,0.0,0.0,0.2208,0.0,0.0,0.0,0.0,0.0,0.5892,0.617,0.6426,0.6621,0.7049,0.7375,0.7652,0.7547,0.7732,0.8032,0.7626,0.7365,0.6942,0.5428,0.473,0.4181,0.2624,0.2003,0.1887,0.1887,0.1769,0.1651,0.1769,0.1689,0.161,0.1961,0.1885,0.1806,0.2079,0.0607,-0.0822,-0.0869,-0.2349,-0.3661,-0.3793,0.0,0.0,0.0,0.0,0.0,0.0,0.0,0.0,-0.3854,-0.3884,-0.3882,-0.396,-0.3831,-0.381,-0.3947,-0.4241,-0.4516,-0.4768,-0.523,-0.5935,-0.6879,-0.6922,-0.7292,-0.7988,-0.8194,-0.8395,-0.8486,-0.8676,-0.8927,-0.9275,-0.9367,-0.9523,-0.9673,-0.9835,-0.9943,-0.9943,-1.0004,-1.0186,-1.0504,-1.1033,-1.2199,-1.3961,-1.7118,-1.9512,-2.128,-0.0897,0.0,0.0,-0.0322,0.0,0.0,0.1573,0.185,0.0,0.4383,0.5561,0.0,0.7089,0.7867,0.8399,0.8339,0.835,0.0,0.8107,0.0,0.0,0.8157,0.7981,0.7796,0.7577,0.6367,0.0,0.4964,0.0,0.0,0.1967,0.0,0.0,0.0,0.0,0.4345,0.5482,0.6071,0.6447,0.671,0.6479,0.6624,0.0,0.6464,0.6656,0.719,0.7009,0.7173,0.7249,0.5583,0.4924,0.4535,0.2741,0.2118,0.2003,0.1926,0.1808,0.173,0.1769,0.1651,0.1649,0.2003,0.1963,0.1924,0.2157,0.056,-0.093,-0.0905,-0.2521,-0.3895,-0.3834,-0.3828,0.0,0.0,0.0,0.0,0.0,0.0,0.0,0.0,-0.3833,-0.3804,-0.3804,-0.3713,-0.373,-0.3912,-0.4183,-0.4496,-0.4851,-0.5268,-0.5835,-0.6685,-0.6804,-0.7076,-0.7633,-0.7934,-0.8148,-0.8228,-0.8487,-0.8764,-0.9069,-0.9279,-0.9462,-0.9618,-0.9761,-0.9822,-0.9822,-0.9822,-0.9883,-1.0086,-1.0377,-1.1563,-1.3271,-1.5103,-1.712,-1.8965,-0.0658,0.0,0.0,0.0,0.0,0.0,0.0,0.2077,0.0,0.5652,0.0,0.6697,0.7975,0.8263,0.8329,0.822,0.0,0.7972,0.776,0.7644,0.7755,0.825,0.7765,0.7585,0.7821,0.643,0.5246,0.0,0.0,0.0,0.0,0.0,0.0,0.0,0.0,0.0,0.0,0.6022,0.6563,0.6826,0.5886,0.577,0.6009,0.5174,0.5296,0.5996,0.6074,0.6725,0.7249,0.5583,0.5002,0.4691,0.282,0.2235,0.2196,0.2003,0.1926,0.1848,0.1691,0.173,0.1848,0.1887,0.2003,0.2079,0.1998,0.0627,-0.0706,-0.1022,-0.2557,-0.3849,-0.3899,-0.385,0.0,0.0,0.0,0.0,0.0,0.0,0.0,0.0,0.0,0.0,-0.382,-0.38,-0.3908,-0.4077,-0.4321,-0.4644,-0.5043,-0.5304,-0.5747,-0.6467,-0.6607,-0.685,-0.721,-0.7566,-0.7795,-0.7962,-0.8255,-0.8568,-0.8892,-0.9225,-0.9435,-0.9591,-0.9747,-0.9822,-0.9822,-0.9822,-0.9836,-0.9876,-1.0168,-1.1038,-1.2155,-1.2433,-1.3822,-1.5678,0.0,0.0,0.0,0.0,0.0,0.0861,0.3357,0.3673,0.4588,0.72,0.765,0.7922,0.828,0.8214,0.8174,0.8152,0.8037,0.0,0.0,0.0,0.0,0.8189,0.8011,0.7891,0.7821,0.7164,0.6417,0.0,0.0,0.0,0.0,0.0,0.0,0.0,0.0,0.0,0.6325,0.6486,0.0,0.6903,0.671,0.624,0.5712,0.5586,0.5188,0.4823,0.5548,0.6545,0.7249,0.5583,0.5002,0.4691,0.2979,0.2431,0.2392,0.2196,0.2042,0.1887,0.1848,0.1651,0.1492,0.1808,0.1806,0.1571,0.1019,0.0,-0.1063,-0.1886,-0.3023,-0.3903,-0.3952,-0.3956,-0.3965,0.0,0.0,0.0,0.0,0.0,0.0,0.0,0.0,-0.3833,-0.3867,-0.3895,-0.395,-0.4073,-0.455,-0.4859,-0.4935,-0.5379,-0.5841,-0.6305,-0.6473,-0.6797,-0.7355,-0.7315,-0.7597,-0.8207,-0.8092,-0.8309,-0.8892,-0.9117,-0.933,-0.9435,-0.9707,-0.9822,-0.9822,-0.9822,-0.9897,-0.9963,-1.0209,-1.0543,-1.0862,-1.0979,-1.1328,-1.2071,0.0,0.0,0.0,0.0,0.0,0.0,0.0,0.4674,0.5794,0.7678,0.7921,0.8002,0.8122,0.8084,0.8114,0.8114,0.8004,0.7856,0.7794,0.7897,0.8012,0.8072,0.8021,0.804,0.8058,0.738,0.6405,0.5186,0.0,0.0,0.0,0.0,0.0,0.0,0.0,0.5216,0.0,0.0,0.683,0.6949,0.597,0.5364,0.5007,0.3963,0.3651,0.3843,0.4196,0.5089,0.591,0.5101,0.4652,0.4146,0.2901,0.251,0.2431,0.212,0.1963,0.1848,0.1651,0.1441,0.1315,0.1646,0.1635,0.1354,0.0625,-0.0235,-0.1182,-0.2258,-0.3245,-0.3928,-0.3976,-0.4075,-0.4075,-0.3985,-0.3969,0.0,0.0,0.0,0.0,0.0,0.0,0.0,0.0,-0.4181,-0.4294,-0.4268,-0.4649,-0.495,-0.5071,-0.5389,-0.5736,-0.5998,-0.6239,-0.6554,-0.6836,-0.7006,-0.7259,-0.7535,-0.7858,-0.8072,-0.8231,-0.8903,-0.9181,-0.9162,-0.9559,-0.9754,-0.9829,-0.9849,-0.9923,-1.0011,-1.0304,-1.0432,-1.0514,-1.0663,-1.0717,-1.0916,0.0,0.0,0.0,0.0,0.1136,0.2458,0.391,0.5237,0.6496,0.7768,0.785,0.7812,0.7899,0.8032,0.8065,0.8043,0.7888,0.7747,0.7535,0.7782,0.7944,0.7956,0.7987,0.8092,0.8228,0.7434,0.618,0.0,0.0,0.0,0.1292,0.0,0.0,0.0,0.0,0.0,0.6698,0.6831,0.7053,0.7165,0.5348,0.4644,0.4419,0.2563,0.2239,0.2834,0.2978,0.3512,0.4156,0.4335,0.4142,0.3636,0.2784,0.251,0.2431,0.2005,0.1887,0.1806,0.1405,0.1235,0.1264,0.1476,0.1505,0.1189,0.0195,-0.0551,-0.135,-0.2643,-0.346,-0.4001,-0.4055,-0.414,-0.4169,-0.4079,-0.4025,0.0,0.0,0.0,0.0,0.0,0.0,0.0,-0.4164,-0.4506,-0.4623,-0.4423,-0.4763,-0.502,-0.5154,-0.5362,-0.5561,-0.5686,-0.6056,-0.6317,-0.6344,-0.6709,-0.6867,-0.6872,-0.7537,-0.7765,-0.7699,-0.8514,-0.8874,-0.8826,-0.9202,-0.948,-0.9653,-0.9799,-0.9962,-1.0042,-1.0399,-1.0514,-1.0555,-1.0677,-1.0717,-1.0717,0.0,0.0,0.0,0.0,0.0,0.2471,0.3857,0.5107,0.6469,0.7981,0.8095,0.8086,0.8097,0.801,0.7845,0.7741,0.7725,0.766,0.7529,0.7697,0.7803,0.7816,0.793,0.7988,0.8015,0.7584,0.6448,0.0,0.0,0.3061,0.1302,0.0,0.0,0.3713,0.4802,0.5924,0.7041,0.7149,0.7407,0.7644,0.6283,0.5207,0.4307,0.3207,0.223,0.1585,0.2591,0.2591,0.2306,0.3199,0.364,0.3636,0.2784,0.251,0.2431,0.2005,0.1887,0.1799,0.1339,0.1234,0.1286,0.1261,0.1274,0.0901,-0.0783,-0.1235,-0.1832,-0.3503,-0.4062,-0.4242,-0.4173,-0.423,-0.4259,-0.4173,-0.4161,-0.4161,0.0,0.0,-0.4043,-0.4155,0.0,0.0,-0.4355,-0.4579,-0.4623,-0.4423,-0.4877,-0.5143,-0.504,-0.5319,-0.5561,-0.5686,-0.5975,-0.6257,-0.6584,-0.6497,-0.6709,-0.7183,-0.6975,-0.7267,-0.7882,-0.7973,-0.8134,-0.8394,-0.8524,-0.8729,-0.905,-0.9435,-0.9773,-1.0,-1.035,-1.0575,-1.0704,-1.0717,-1.0717,-1.0717,0.0,0.0,0.0234,0.1063,0.2268,0.3638,0.5091,0.6421,0.7453,0.8048,0.8019,0.8032,0.8108,0.7883,0.7752,0.7703,0.7633,0.7599,0.7703,0.7805,0.7986,0.8069,0.8164,0.82,0.818,0.774,0.6829,0.0,0.0,0.0,0.2085,0.1549,0.2303,0.4148,0.5586,0.6664,0.7463,0.7475,0.7629,0.7668,0.6,0.5061,0.4419,0.2732,0.1928,0.1705,0.2,0.2088,0.2144,0.2529,0.282,0.2976,0.2627,0.251,0.2431,0.2005,0.1887,0.1804,0.1358,0.1235,0.1231,0.1277,0.1235,0.081,-0.0899,-0.1357,-0.1879,-0.3639,-0.4177,-0.4287,-0.4255,-0.4275,-0.4287,-0.4255,-0.4246,-0.4246,0.0,0.0,0.0,-0.4238,0.0,-0.4423,-0.4555,-0.4662,-0.4718,-0.4773,-0.5104,-0.5205,-0.4967,-0.5379,-0.5637,-0.5686,-0.5964,-0.6192,-0.6404,-0.6426,-0.6574,-0.6848,-0.6975,-0.7136,-0.7365,-0.7762,-0.8072,-0.8319,-0.8448,-0.8657,-0.8928,-0.9187,-0.9596,-1.0045,-1.0267,-1.0472,-1.0717,-1.0717,-1.0717,-1.0717,-0.0059,0.0,0.042,0.1766,0.3049,0.4358,0.5827,0.7204,0.8065,0.8065,0.7988,0.7966,0.8054,0.785,0.7725,0.7655,0.7626,0.7679,0.7743,0.7949,0.815,0.8227,0.8248,0.0,0.8201,0.7848,0.7088,0.5979,0.483,0.3729,0.2642,0.2274,0.303,0.4824,0.6296,0.7252,0.7694,0.7769,0.7797,0.7637,0.5817,0.4941,0.4491,0.251,0.1824,0.1888,0.1816,0.1945,0.2206,0.2287,0.2392,0.251,0.251,0.251,0.2431,0.2005,0.1887,0.1804,0.1402,0.1235,0.1228,0.1279,0.1241,0.0777,-0.0947,-0.1377,-0.1916,-0.3709,-0.4214,-0.43,-0.43,-0.43,-0.43,-0.43,-0.43,-0.43,-0.43,-0.4226,0.0,-0.4418,-0.4527,-0.4632,-0.4762,-0.4752,-0.4763,-0.4726,-0.5002,-0.5142,-0.4971,-0.5411,-0.5664,-0.5734,-0.598,-0.6159,-0.6317,-0.6431,-0.6484,-0.6622,-0.695,-0.7079,-0.7046,-0.7546,-0.7818,-0.7975,-0.8183,-0.8396,-0.8628,-0.8899,-0.9307,-0.9783,-0.9949,-1.0193,-1.0392,-1.0525,-1.0518,-1.0591,-0.006,0.0,0.0434,0.1758,0.3082,0.4338,0.5725,0.7017,0.7872,0.7872,0.7872,0.7872,0.7872,0.7872,0.7774,0.754,0.781,0.7875,0.7627,0.8035,0.822,0.8019,0.8195,0.8201,0.7995,0.7889,0.7231,0.6076,0.0,0.3931,0.2812,0.3604,0.461,0.5818,0.6902,0.7488,0.7736,0.7892,0.7918,0.7637,0.5978,0.5065,0.453,0.282,0.2081,0.1926,0.2118,0.2196,0.2235,0.2431,0.251,0.251,0.251,0.251,0.2431,0.2005,0.1887,0.1799,0.1334,0.1234,0.1289,0.122,0.1257,0.0813,-0.0974,-0.147,-0.2048,-0.392,-0.43,-0.43,-0.43,-0.43,-0.43,-0.43,-0.43,-0.43,-0.43,-0.4226,0.0,-0.4731,-0.4723,-0.4743,-0.4879,-0.491,-0.4663,-0.4169,-0.4462,-0.4831,-0.5104,-0.5373,-0.5615,-0.5893,-0.6024,-0.6198,-0.6381,-0.6556,-0.6616,-0.6622,-0.6741,-0.6866,-0.6991,-0.7155,-0.721,-0.7232,-0.754,-0.7763,-0.796,-0.8648,-0.9001,-0.9183,-0.9522,-0.9728,-0.9728,-1.006,-1.0193,-1.0279,-0.0061,0.0,0.0688,0.2917,0.3626,0.464,0.6946,0.7649,0.7872,0.7872,0.7872,0.7839,0.7763,0.7682,0.76,0.7524,0.7652,0.7747,0.7887,0.7996,0.8163,0.8328,0.819,0.8092,0.7988,0.7941,0.7676,0.7103,0.6158,0.5013,0.377,0.4623,0.5437,0.6251,0.714,0.7851,0.8295,0.826,0.8097,0.7797,0.6015,0.5144,0.4691,0.2898,0.2235,0.2316,0.2235,0.2275,0.2431,0.247,0.2482,0.2455,0.2496,0.251,0.2431,0.2005,0.1887,0.1804,0.1402,0.1289,0.1293,0.1284,0.1273,0.0814,-0.0974,-0.2398,-0.3537,-0.4146,-0.4433,-0.4572,-0.4572,-0.4515,-0.4428,-0.4428,-0.4243,-0.4077,-0.4077,-0.4042,-0.4151,-0.4564,-0.4551,-0.4634,-0.492,-0.4836,-0.4753,-0.4777,-0.4912,-0.4922,-0.4835,-0.5308,-0.5729,-0.6024,-0.6149,-0.6285,-0.6387,-0.6556,-0.666,-0.6747,-0.6866,-0.6986,-0.7161,-0.7225,-0.7279,-0.7296,-0.7578,-0.7812,-0.8075,-0.8336,-0.8666,-0.9117,-0.925,-0.9455,-0.9728,-0.9794,-0.9861,-0.9946,-0.0062,0.0,0.0811,0.3451,0.3905,0.4788,0.751,0.7872,0.7872,0.7872,0.7872,0.7828,0.7714,0.7707,0.7671,0.7627,0.7766,0.7935,0.8159,0.8218,0.8355,0.8567,0.8282,0.8126,0.8126,0.8022,0.7874,0.7678,0.6614,0.5659,0.4868,0.5359,0.6083,0.7,0.7476,0.7982,0.8498,0.8341,0.8146,0.7789,0.6337,0.5625,0.5273,0.3483,0.2898,0.2937,0.247,0.2392,0.251,0.251,0.2469,0.2431,0.2491,0.2496,0.2405,0.1998,0.1887,0.1808,0.1414,0.1305,0.1312,0.1299,0.1337,0.0836,-0.0968,-0.2887,-0.4234,-0.4287,-0.4523,-0.4705,-0.4705,-0.4669,-0.4601,-0.451,-0.4304,-0.4118,-0.4118,-0.4039,-0.4196,-0.464,-0.4663,-0.4743,-0.5028,-0.4945,-0.4915,-0.4954,-0.5022,-0.5074,-0.4951,-0.5449,-0.5825,-0.6083,-0.6251,-0.6344,-0.6452,-0.6627,-0.6752,-0.6872,-0.6991,-0.7139,-0.7215,-0.723,-0.729,-0.7293,-0.7595,-0.7834,-0.813,-0.8236,-0.8546,-0.8917,-0.8917,-0.9056,-0.9322,-0.9455,-0.9425,-0.9486,0.0,0.0062,0.0925,0.3446,0.3999,0.492,0.75,0.7872,0.7872,0.7872,0.7861,0.7818,0.7703,0.7872,0.7916,0.784,0.8061,0.8295,0.8491,0.8628,0.8703,0.8696,0.8425,0.832,0.8255,0.8113,0.7914,0.7814,0.6637,0.6041,0.5979,0.5874,0.6574,0.7856,0.7856,0.8028,0.8308,0.8292,0.8089,0.7732,0.6838,0.6376,0.6009,0.4414,0.3791,0.3675,0.2823,0.251,0.251,0.251,0.2469,0.2431,0.2491,0.2469,0.2355,0.2029,0.1926,0.1808,0.1414,0.132,0.1296,0.1307,0.1242,0.0742,-0.1024,-0.2908,-0.43,-0.4344,-0.4523,-0.475,-0.475,-0.4796,-0.4765,-0.4588,-0.4413,-0.4301,-0.4301,-0.4276,-0.4421,-0.4934,-0.5079,-0.5121,-0.5116,-0.5177,-0.5074,-0.4774,-0.499,-0.524,-0.5439,-0.5775,-0.598,-0.6094,-0.6214,-0.6388,-0.6616,-0.6741,-0.6866,-0.6997,-0.7161,-0.721,-0.721,-0.7221,-0.7236,-0.7304,-0.7616,-0.7856,-0.8147,-0.8329,-0.8492,-0.859,-0.859,-0.859,-0.8651,-0.8917,-0.8976,-0.899,0.0,0.0802,0.2034,0.363,0.4735,0.5965,0.7622,0.7872,0.7872,0.7872,0.7796,0.7698,0.7573,0.7737,0.7897,0.7935,0.8258,0.8468,0.8484,0.8628,0.8655,0.854,0.8364,0.8214,0.8099,0.8008,0.7914,0.7814,0.75,0.7255,0.7047,0.7015,0.7213,0.7591,0.7591,0.7834,0.8218,0.8049,0.7995,0.7861,0.6881,0.6376,0.6009,0.4414,0.3791,0.3675,0.2823,0.251,0.251,0.251,0.2469,0.2431,0.2491,0.2469,0.2355,0.2182,0.2003,0.1848,0.1612,0.14,0.1301,0.1294,0.0251,-0.0915,-0.1291,-0.2908,-0.4344,-0.4572,-0.479,-0.5013,-0.5191,-0.5119,-0.5031,-0.4989,-0.462,-0.4381,-0.4381,-0.4468,-0.4596,-0.491,-0.5058,-0.5214,-0.5335,-0.5395,-0.5448,-0.5468,-0.552,-0.5676,-0.5898,-0.6116,-0.6246,-0.6273,-0.6339,-0.6469,-0.6616,-0.6741,-0.691,-0.7172,-0.7199,-0.721,-0.7215,-0.7252,-0.7361,-0.7491,-0.7823,-0.8057,-0.8209,-0.8448,-0.8562,-0.859,-0.859,-0.859,-0.859,-0.8717,-0.8646,-0.8585,0.0,0.1111,0.2404,0.3692,0.4981,0.6337,0.7689,0.7828,0.7796,0.7796,0.7693,0.7632,0.7621,0.7835,0.8019,0.822,0.8374,0.854,0.8657,0.8682,0.8703,0.8689,0.8418,0.8262,0.8241,0.8056,0.7948,0.7916,0.7848,0.7699,0.7475,0.7453,0.7427,0.7503,0.7503,0.7768,0.8185,0.7978,0.7981,0.808,0.7369,0.6781,0.6179,0.4862,0.4103,0.3675,0.2823,0.251,0.251,0.251,0.2469,0.2431,0.2491,0.2469,0.2393,0.2335,0.212,0.1852,0.1673,0.1463,0.1288,0.1356,-0.013,-0.1499,-0.1427,-0.2998,-0.4447,-0.4495,-0.4737,-0.4935,-0.5072,-0.5056,-0.5037,-0.4949,-0.4683,-0.454,-0.454,-0.4639,-0.4849,-0.5104,-0.5315,-0.5496,-0.5616,-0.5725,-0.5822,-0.5888,-0.5947,-0.6034,-0.6165,-0.6333,-0.6404,-0.6344,-0.6458,-0.6605,-0.6785,-0.6904,-0.7084,-0.721,-0.721,-0.721,-0.7215,-0.7225,-0.7317,-0.7448,-0.7698,-0.791,-0.8084,-0.8329,-0.8459,-0.8513,-0.8568,-0.859,-0.8584,-0.853,-0.847,-0.8443,0.0,0.1234,0.2648,0.3692,0.5168,0.6582,0.775,0.7774,0.7703,0.7703,0.7595,0.7591,0.7829,0.8046,0.8338,0.853,0.8572,0.8677,0.8885,0.8818,0.8791,0.8844,0.852,0.8402,0.8452,0.818,0.7988,0.7988,0.7909,0.7773,0.7631,0.7475,0.7462,0.7494,0.7517,0.7724,0.8149,0.7978,0.8037,0.826,0.7943,0.7358,0.6577,0.5442,0.4574,0.3869,0.2862,0.251,0.251,0.251,0.2477,0.2441,0.2493,0.248,0.2458,0.251,0.2255,0.1914,0.1701,0.1497,0.1331,0.1384,-0.009,-0.1535,-0.1445,-0.3066,-0.4575,-0.4414,-0.463,-0.4798,-0.4746,-0.487,-0.4937,-0.4811,-0.4698,-0.4667,-0.476,-0.4879,-0.5079,-0.5388,-0.5643,-0.5844,-0.592,-0.604,-0.6121,-0.6138,-0.6236,-0.6312,-0.6399,-0.654,-0.6605,-0.6473,-0.66,-0.6757,-0.698,-0.7155,-0.721,-0.721,-0.721,-0.721,-0.721,-0.721,-0.723,-0.7315,-0.7491,-0.7682,-0.7915,-0.8144,-0.8307,-0.8426,-0.8524,-0.8573,-0.8573,-0.8459,-0.8416,-0.8432,0.0,0.1971,0.3692,0.3876,0.5961,0.7683,0.7872,0.7774,0.7703,0.7703,0.7595,0.7624,0.7951,0.8183,0.8475,0.8621,0.8947,0.9013,0.8892,0.8858,0.8804,0.875,0.8554,0.8404,0.8354,0.8133,0.7988,0.7988,0.7968,0.788,0.7773,0.7631,0.7528,0.7423,0.7478,0.768,0.7929,0.79,0.8037,0.826,0.7943,0.7716,0.7414,0.5677,0.4924,0.4613,0.3057,0.251,0.251,0.251,0.2504,0.2499,0.2507,0.254,0.2575,0.2583,0.246,0.224,0.1959,0.1614,0.1385,0.1466,-0.0047,-0.1509,-0.1509,-0.308,-0.466,-0.4767,-0.4866,-0.4895,-0.5027,-0.4931,-0.488,-0.5089,-0.4742,-0.4614,-0.5063,-0.5142,-0.524,-0.5475,-0.5915,-0.6154,-0.6067,-0.617,-0.6279,-0.6327,-0.6349,-0.6502,-0.6709,-0.6752,-0.6812,-0.6899,-0.6817,-0.6839,-0.6986,-0.7155,-0.721,-0.721,-0.721,-0.721,-0.721,-0.721,-0.7279,-0.7497,-0.7622,-0.7807,-0.8097,-0.8176,-0.8307,-0.8421,-0.8437,-0.8503,-0.8573,-0.8459,-0.8416,-0.8421,0.0,0.1541,0.3077,0.3753,0.5533,0.7072,0.7811,0.7774,0.7703,0.7703,0.7713,0.7863,0.8212,0.8503,0.8737,0.8944,0.9094,0.9089,0.8892,0.8804,0.8784,0.8716,0.8492,0.8296,0.8147,0.8029,0.7988,0.7988,0.7988,0.7914,0.7807,0.7746,0.7638,0.7535,0.7696,0.7845,0.8027,0.8174,0.8309,0.8406,0.804,0.7651,0.7093,0.5583,0.473,0.4185,0.294,0.251,0.251,0.251,0.251,0.251,0.251,0.2553,0.2602,0.2602,0.2522,0.2348,0.1936,0.1739,0.1487,0.0797,-0.0476,-0.1736,-0.224,-0.3578,-0.4736,-0.4732,-0.4753,-0.4788,-0.4736,-0.4688,-0.4701,-0.4844,-0.4627,-0.4599,-0.5178,-0.5218,-0.5354,-0.5772,-0.6094,-0.6268,-0.6274,-0.6388,-0.648,-0.6478,-0.6446,-0.6531,-0.6796,-0.6701,-0.6759,-0.6986,-0.6991,-0.7018,-0.7128,-0.7182,-0.721,-0.721,-0.721,-0.721,-0.721,-0.721,-0.7252,-0.7426,-0.7551,-0.7703,-0.7883,-0.8133,-0.8205,-0.8334,-0.8459,-0.8541,-0.8573,-0.8459,-0.8454,-0.8497,0.0,0.1111,0.2404,0.3692,0.4981,0.6329,0.7651,0.7758,0.7693,0.766,0.7836,0.8084,0.8429,0.8701,0.9,0.9225,0.9262,0.913,0.8898,0.8825,0.875,0.871,0.8425,0.8201,0.7995,0.7988,0.7988,0.7988,0.7988,0.7977,0.7959,0.7925,0.7849,0.7841,0.8045,0.8129,0.8193,0.8426,0.8556,0.858,0.8162,0.7537,0.6709,0.5496,0.4511,0.3699,0.2869,0.2553,0.2553,0.2553,0.2553,0.2553,0.2553,0.2594,0.2643,0.2643,0.2598,0.2411,0.199,0.1862,0.1536,0.0239,-0.0875,-0.1915,-0.2902,-0.3995,-0.4748,-0.4663,-0.4687,-0.4687,-0.4481,-0.4505,-0.455,-0.4669,-0.452,-0.4568,-0.5181,-0.5176,-0.5325,-0.5863,-0.6123,-0.6257,-0.6369,-0.6465,-0.654,-0.6594,-0.6426,-0.6435,-0.6669,-0.6536,-0.6598,-0.6848,-0.7066,-0.7165,-0.7086,-0.7086,-0.7086,-0.703,-0.703,-0.7014,-0.6993,-0.6993,-0.7067,-0.7268,-0.7359,-0.7541,-0.7763,-0.8035,-0.8166,-0.8214,-0.8426,-0.8524,-0.8535,-0.8448,-0.8492,-0.8568,0.0,0.1111,0.2404,0.3692,0.4981,0.6307,0.7551,0.7709,0.766,0.7546,0.7622,0.7985,0.8634,0.8811,0.902,0.933,0.9361,0.9245,0.8905,0.8871,0.8804,0.8716,0.8425,0.8201,0.7995,0.7988,0.7988,0.7988,0.7988,0.8131,0.8365,0.8223,0.8297,0.8516,0.849,0.8481,0.8458,0.8569,0.8576,0.858,0.8162,0.7564,0.678,0.5548,0.4584,0.3798,0.2968,0.2679,0.2679,0.2679,0.2679,0.2679,0.2679,0.2722,0.2771,0.2771,0.2716,0.255,0.2228,0.1903,0.1372,0.0244,-0.0794,-0.191,-0.2959,-0.4021,-0.478,-0.4768,-0.4772,-0.4748,-0.4704,-0.461,-0.4639,-0.4827,-0.4567,-0.4478,-0.5045,-0.5046,-0.511,-0.5327,-0.5752,-0.6073,-0.619,-0.621,-0.6297,-0.6501,-0.6261,-0.62,-0.6301,-0.6316,-0.6359,-0.645,-0.6929,-0.7097,-0.6811,-0.6816,-0.6697,-0.6469,-0.6469,-0.6417,-0.6386,-0.6386,-0.6662,-0.7089,-0.71,-0.7406,-0.7861,-0.7888,-0.7964,-0.8141,-0.8209,-0.8329,-0.8432,-0.8421,-0.8492,-0.8568,0.0,0.0432,0.1171,0.2464,0.3141,0.4177,0.6289,0.6589,0.6878,0.7621,0.7961,0.8297,0.8775,0.9,0.9226,0.9408,0.9381,0.9252,0.8905,0.8885,0.8825,0.8581,0.8282,0.8099,0.7988,0.7988,0.7988,0.7988,0.7988,0.8137,0.8379,0.8322,0.8441,0.8728,0.885,0.8824,0.8659,0.8826,0.8771,0.8588,0.8284,0.767,0.6764,0.5687,0.4697,0.3775,0.2983,0.2692,0.2692,0.2692,0.2692,0.2692,0.2692,0.2733,0.2798,0.2914,0.2665,0.2373,0.2308,0.2057,0.1399,-0.0499,-0.1304,-0.2066,-0.3776,-0.4483,-0.4784,-0.4784,-0.4784,-0.476,-0.4724,-0.4634,-0.4637,-0.4743,-0.4501,-0.448,-0.508,-0.5049,-0.5136,-0.5454,-0.5696,-0.5909,-0.5948,-0.6075,-0.6187,-0.627,-0.6065,-0.6005,-0.6274,-0.6331,-0.6412,-0.6459,-0.6652,-0.6709,-0.6638,-0.6638,-0.6546,-0.6422,-0.6422,-0.637,-0.6274,-0.6274,-0.6611,-0.7105,-0.7105,-0.7454,-0.8054,-0.8068,-0.8171,-0.8291,-0.841,-0.8481,-0.8524,-0.8524,-0.8552,-0.8584,0.0,0.0,0.0432,0.1788,0.1973,0.2706,0.4889,0.5643,0.6263,0.7266,0.7972,0.8549,0.8976,0.9176,0.9294,0.9401,0.934,0.9205,0.8898,0.8838,0.875,0.8492,0.8241,0.8092,0.7988,0.7988,0.7988,0.7988,0.8088,0.8287,0.8528,0.8634,0.8783,0.9072,0.9223,0.9083,0.8855,0.9003,0.8893,0.8552,0.8119,0.7375,0.6405,0.5373,0.4397,0.3545,0.297,0.2774,0.2801,0.2782,0.2777,0.2779,0.2798,0.2878,0.2928,0.3008,0.2676,0.2304,0.2304,0.209,0.1313,-0.1009,-0.1613,-0.2167,-0.4332,-0.4784,-0.4784,-0.4784,-0.4784,-0.4768,-0.4761,-0.4696,-0.4675,-0.4736,-0.4589,-0.46,-0.5001,-0.4974,-0.5037,-0.5318,-0.5528,-0.5705,-0.5737,-0.5848,-0.5963,-0.5996,-0.5784,-0.5781,-0.6036,-0.6132,-0.6174,-0.6273,-0.6278,-0.6291,-0.6323,-0.635,-0.6341,-0.6125,-0.6125,-0.6132,-0.6036,-0.6121,-0.646,-0.7039,-0.7062,-0.748,-0.8125,-0.8144,-0.8253,-0.8372,-0.8486,-0.8535,-0.8535,-0.8573,-0.859,-0.859,0.0,0.0,0.0432,0.1726,0.1973,0.2391,0.3615,0.4993,0.5932,0.6197,0.7493,0.861,0.9214,0.9207,0.9183,0.9395,0.9296,0.9089,0.8892,0.8798,0.8642,0.8492,0.835,0.8201,0.7995,0.7988,0.7988,0.7988,0.8287,0.8528,0.8825,0.908,0.9335,0.9567,0.9437,0.9306,0.9096,0.9096,0.8893,0.8524,0.7496,0.6517,0.5575,0.4411,0.3565,0.2997,0.2939,0.2994,0.3086,0.3025,0.3005,0.3016,0.3077,0.3097,0.3097,0.3097,0.2704,0.2304,0.2304,0.194,0.1111,-0.1059,-0.1613,-0.2167,-0.4279,-0.4784,-0.4784,-0.4784,-0.4784,-0.4784,-0.4784,-0.4784,-0.4788,-0.4784,-0.4784,-0.4784,-0.4784,-0.4784,-0.4784,-0.4788,-0.5175,-0.5426,-0.5571,-0.5616,-0.5659,-0.5815,-0.5549,-0.5418,-0.5504,-0.5536,-0.5688,-0.5778,-0.5782,-0.5827,-0.5916,-0.6125,-0.5971,-0.5584,-0.5584,-0.5536,-0.5504,-0.5695,-0.6155,-0.6791,-0.7033,-0.7475,-0.8114,-0.8114,-0.8127,-0.8188,-0.8372,-0.8421,-0.8432,-0.8546,-0.859,-0.859,0.0,0.0,0.0123,0.0555,0.0617,0.1047,0.2328,0.3865,0.5215,0.6228,0.7723,0.8878,0.9134,0.9149,0.9144,0.9245,0.9234,0.9089,0.8892,0.8844,0.8804,0.8648,0.8499,0.835,0.8208,0.8201,0.8147,0.7988,0.8287,0.8528,0.8825,0.908,0.9335,0.9575,0.9567,0.9445,0.9322,0.9322,0.8691,0.7743,0.7427,0.6284,0.4696,0.4355,0.3671,0.2942,0.2925,0.2967,0.303,0.3011,0.3033,0.3072,0.3091,0.298,0.282,0.282,0.2466,0.2104,0.2104,0.1861,0.1262,-0.0151,-0.1058,-0.1965,-0.3374,-0.4279,-0.4784,-0.4784,-0.4888,-0.4912,-0.4796,-0.4941,-0.4986,-0.4804,-0.4888,-0.4932,-0.4932,-0.4875,-0.4833,-0.501,-0.5103,-0.521,-0.5302,-0.5393,-0.5485,-0.5577,-0.5586,-0.5606,-0.5696,-0.5725,-0.5782,-0.5872,-0.5876,-0.5888,-0.5916,-0.5887,-0.5792,-0.5584,-0.5578,-0.5504,-0.5418,-0.5669,-0.6077,-0.6517,-0.6829,-0.7406,-0.8114,-0.8114,-0.8225,-0.8486,-0.8524,-0.8535,-0.8541,-0.8573,-0.859,-0.859,0.0,0.0,0.0,0.0,0.0,0.0247,0.1111,0.3016,0.4732,0.5655,0.7683,0.9121,0.9333,0.9334,0.9268,0.9266,0.9137,0.9028,0.8892,0.8885,0.8844,0.8804,0.8655,0.8479,0.8327,0.8208,0.8133,0.7988,0.8386,0.8627,0.8825,0.9179,0.9434,0.9575,0.9575,0.9527,0.9404,0.9477,0.8689,0.736,0.7053,0.5866,0.4255,0.3898,0.3426,0.2953,0.2953,0.2959,0.303,0.303,0.3023,0.2971,0.2948,0.2784,0.2578,0.2578,0.2302,0.2021,0.2021,0.183,0.1379,0.0255,-0.0866,-0.1939,-0.2981,-0.4119,-0.4945,-0.4945,-0.4986,-0.501,-0.4953,-0.5035,-0.5071,-0.4961,-0.499,-0.5026,-0.5026,-0.4977,-0.4986,-0.5096,-0.5141,-0.5128,-0.5184,-0.5328,-0.5414,-0.55,-0.5627,-0.572,-0.5778,-0.5814,-0.5859,-0.5916,-0.5916,-0.5916,-0.5916,-0.5827,-0.5733,-0.5584,-0.5553,-0.548,-0.5431,-0.5881,-0.6214,-0.6489,-0.6995,-0.7578,-0.8119,-0.8106,-0.8307,-0.859,-0.859,-0.859,-0.859,-0.859,-0.859,-0.859,0.0,0.0,0.0,0.0062,0.0062,0.0062,0.0062,0.2585,0.461,0.4916,0.749,0.9451,0.9741,0.9686,0.9551,0.9395,0.9123,0.8898,0.8885,0.8885,0.8885,0.8885,0.8777,0.8567,0.8347,0.814,0.8002,0.7988,0.8528,0.8825,0.8825,0.9327,0.9575,0.9575,0.9575,0.9535,0.9437,0.9559,0.8701,0.7224,0.6502,0.5383,0.4088,0.3239,0.2958,0.3005,0.3011,0.3041,0.3041,0.3046,0.2934,0.2766,0.267,0.2537,0.2372,0.2372,0.217,0.197,0.197,0.1845,0.1402,0.0208,-0.0935,-0.1983,-0.3075,-0.4256,-0.5108,-0.5108,-0.5116,-0.5116,-0.5108,-0.512,-0.5128,-0.5112,-0.5116,-0.512,-0.512,-0.5112,-0.5116,-0.5128,-0.5144,-0.5192,-0.52,-0.5345,-0.5439,-0.5512,-0.5688,-0.5794,-0.5794,-0.5863,-0.5908,-0.5916,-0.59,-0.5896,-0.5904,-0.5806,-0.572,-0.5584,-0.5553,-0.5565,-0.5565,-0.6194,-0.6532,-0.6691,-0.7396,-0.7818,-0.8108,-0.8166,-0.8367,-0.859,-0.859,-0.8584,-0.8573,-0.8584,-0.8579,-0.8573,0.0,0.0,0.0062,0.037,0.037,0.0494,0.0741,0.3264,0.5226,0.5287,0.7861,0.966,0.9666,0.9625,0.9551,0.9395,0.9211,0.9055,0.8892,0.8885,0.8885,0.8885,0.8676,0.8499,0.8438,0.8296,0.816,0.7988,0.8528,0.8825,0.8825,0.9327,0.9575,0.9575,0.9575,0.9608,0.9567,0.9608,0.8398,0.6505,0.6289,0.5008,0.3258,0.3078,0.2994,0.3011,0.3058,0.2932,0.2752,0.2595,0.2513,0.2471,0.246,0.2314,0.2071,0.2071,0.192,0.1667,0.1667,0.169,0.1407,0.0211,-0.0962,-0.2098,-0.3199,-0.4309,-0.5108,-0.5108,-0.5165,-0.514,-0.512,-0.5226,-0.5275,-0.5132,-0.5169,-0.516,-0.516,-0.5153,-0.5161,-0.5304,-0.5275,-0.5217,-0.5345,-0.5496,-0.5536,-0.5556,-0.5782,-0.5888,-0.5888,-0.5839,-0.5843,-0.5916,-0.5718,-0.5737,-0.581,-0.5647,-0.5594,-0.5584,-0.5784,-0.5913,-0.5913,-0.6541,-0.6784,-0.6872,-0.7333,-0.7693,-0.7982,-0.804,-0.8291,-0.859,-0.859,-0.853,-0.8465,-0.8557,-0.853,-0.847,0.0,0.0,0.0062,0.0247,0.037,0.0556,0.0741,0.3387,0.541,0.541,0.7983,0.9795,0.972,0.9707,0.9625,0.9401,0.9178,0.9022,0.8892,0.8885,0.8885,0.8885,0.8716,0.856,0.8486,0.8395,0.8194,0.7988,0.8528,0.8825,0.8825,0.9327,0.9575,0.9575,0.9575,0.9575,0.9575,0.9072,0.7845,0.6252,0.5706,0.4526,0.305,0.305,0.2953,0.2821,0.2879,0.274,0.2539,0.2414,0.2322,0.2221,0.2221,0.2021,0.1819,0.1819,0.1718,0.162,0.1635,0.166,0.1425,0.0215,-0.0928,-0.2095,-0.3278,-0.4419,-0.5239,-0.5239,-0.5275,-0.5296,-0.5247,-0.5316,-0.5349,-0.5255,-0.5279,-0.5308,-0.5308,-0.5267,-0.5275,-0.5369,-0.5341,-0.5345,-0.5435,-0.5565,-0.5605,-0.5704,-0.5839,-0.5916,-0.5916,-0.5831,-0.5823,-0.5912,-0.5681,-0.5688,-0.5782,-0.5643,-0.5631,-0.5813,-0.5939,-0.6084,-0.6203,-0.6876,-0.7067,-0.7033,-0.7611,-0.7899,-0.8032,-0.8155,-0.8372,-0.859,-0.859,-0.8519,-0.8432,-0.8546,-0.8552,-0.8508,0.0,0.0,0.0,0.0062,0.037,0.0617,0.0679,0.3384,0.5471,0.5471,0.7983,0.9822,0.9822,0.9802,0.968,0.9401,0.913,0.8912,0.8885,0.8885,0.8885,0.8885,0.8791,0.8648,0.8526,0.8408,0.8245,0.8088,0.8577,0.8825,0.8874,0.9377,0.9575,0.9575,0.9575,0.9476,0.9221,0.8372,0.7211,0.5894,0.5045,0.4026,0.3015,0.3015,0.2824,0.2544,0.2642,0.2489,0.2322,0.2271,0.212,0.192,0.192,0.1768,0.1617,0.1617,0.1617,0.1624,0.1705,0.1682,0.1444,0.0272,-0.0885,-0.2127,-0.3301,-0.4536,-0.5382,-0.5382,-0.5382,-0.5386,-0.5402,-0.539,-0.5386,-0.5402,-0.539,-0.5382,-0.5382,-0.5382,-0.5382,-0.5382,-0.5382,-0.5414,-0.55,-0.5532,-0.568,-0.5774,-0.5867,-0.5916,-0.5916,-0.5831,-0.5762,-0.5728,-0.5618,-0.5629,-0.5602,-0.5617,-0.571,-0.5996,-0.6071,-0.6306,-0.6599,-0.719,-0.7412,-0.7331,-0.7926,-0.8176,-0.81,-0.8323,-0.8486,-0.859,-0.859,-0.8508,-0.8394,-0.847,-0.8535,-0.8584,0.0,0.0,0.0062,0.037,0.0679,0.105,0.1296,0.3876,0.5835,0.5835,0.816,0.9822,0.9822,0.9713,0.9571,0.9395,0.9282,0.9069,0.8892,0.8885,0.8885,0.8885,0.8791,0.8703,0.8682,0.8671,0.8549,0.8329,0.8627,0.8924,0.9137,0.9476,0.9575,0.9575,0.9575,0.8973,0.7862,0.7968,0.6714,0.4656,0.4679,0.3912,0.2735,0.2735,0.2589,0.2349,0.2396,0.2267,0.2021,0.1768,0.1667,0.1667,0.1667,0.1617,0.1617,0.1617,0.1617,0.1624,0.1705,0.1682,0.1444,0.0272,-0.0885,-0.2127,-0.3301,-0.4536,-0.5382,-0.5382,-0.5382,-0.5402,-0.5475,-0.5431,-0.5406,-0.548,-0.5431,-0.5382,-0.5382,-0.5382,-0.5382,-0.5382,-0.5382,-0.5414,-0.55,-0.5532,-0.568,-0.5774,-0.5867,-0.5916,-0.5916,-0.5831,-0.5577,-0.5046,-0.5379,-0.5393,-0.4941,-0.5319,-0.5734,-0.6098,-0.6478,-0.6877,-0.7174,-0.762,-0.7849,-0.7992,-0.816,-0.8225,-0.822,-0.8361,-0.8486,-0.859,-0.859,-0.8454,-0.8247,-0.816,-0.8323,-0.8573,0.0,0.0123,0.0309,0.0494,0.0926,0.1358,0.1482,0.3387,0.5039,0.5774,0.7551,0.9019,0.97,0.9618,0.9456,0.9388,0.9171,0.9008,0.8885,0.8885,0.8885,0.8885,0.8817,0.8798,0.871,0.8899,0.896,0.8904,0.8972,0.908,0.9187,0.9484,0.9575,0.9575,0.8817,0.8166,0.7515,0.6426,0.5377,0.4375,0.3844,0.3288,0.274,0.2591,0.2342,0.2097,0.2014,0.1868,0.1768,0.1617,0.1617,0.1617,0.1617,0.1617,0.1617,0.1617,0.1617,0.1626,0.1673,0.1695,0.1612,0.1115,0.0113,-0.1138,-0.2354,-0.3569,-0.465,-0.5293,-0.5451,-0.548,-0.5565,-0.5553,-0.5524,-0.5508,-0.5475,-0.5435,-0.539,-0.5382,-0.5382,-0.5382,-0.5422,-0.5488,-0.5573,-0.5667,-0.5737,-0.5778,-0.5867,-0.5896,-0.5843,-0.5753,-0.559,-0.5479,-0.5511,-0.5459,-0.5358,-0.5475,-0.5722,-0.612,-0.645,-0.6827,-0.7382,-0.7937,-0.8171,-0.8166,-0.835,-0.8394,-0.8345,-0.8465,-0.8541,-0.859,-0.859,-0.8486,-0.8329,-0.8274,-0.8356,-0.8492]},{"header":{"parameterUnit":"m.s-1","parameterCategory":1,"la1":30.6,"la2":28.766,"lo1":-90.7593,"lo2":-88.6598,"dy":0.0162,"dx":0.0183,"nx":116,"ny":114,"refTime":"2023-09-19T00:00:00:Z","depth":0,"parameterNumber":3,"parameterNumberName":"V-component_of_WINDS"},"data":[0.0,0.0,0.0,0.0,0.0,0.0,0.0,0.0,0.0,0.0,0.0,0.0,0.0,0.0,0.0,0.0,0.0,0.0,0.0,0.0,0.0,0.0,0.0,0.0,0.0,0.0,0.0,0.0,0.0,0.0,0.0,0.0,0.0,0.0,0.0,0.0,0.0,0.0,0.0,0.0,0.0,0.0,0.0,0.0,0.0,0.0,0.0,0.0,0.0,0.0,0.0,0.0,0.0,0.0,0.0,0.0,0.0,0.0,0.0,0.0,0.0,0.0,0.0,0.0,0.0,0.0,0.0,0.0,0.0,0.0,0.0,0.0,0.0,0.0,0.0,0.0,0.0,0.0,0.0,0.0,0.0,0.0,0.0,0.0,0.0,0.0,0.0,0.0,0.0,0.0,0.0,0.0,0.0,0.0,0.0,0.0,0.0,0.0,0.0,0.0,0.0,0.0,0.0,0.0,0.0,0.0,0.0,0.0,0.0,0.0,0.0,0.0,0.0,0.0,0.0,0.0,0.0,0.0,0.0,0.0,0.0,0.0,0.0,0.0,0.0,0.0,0.0,0.0,0.0,0.0,0.0,0.0,0.0,0.0,0.0,0.0,0.0,0.0,0.0,0.0,0.0,0.0,0.0,0.0,0.0,0.0,0.0,0.0,0.0,0.0,0.0,0.0,0.0,0.0,0.0,0.0,0.0,0.0,0.0,0.0,0.0,0.0,0.0,0.0,0.0,0.0,0.0,0.0,0.0,0.0,0.0,0.0,0.0,0.0,0.0,0.0,0.0,0.0,0.0,0.0,0.0,0.0,0.0,0.0,0.0,0.0,0.0,0.0,0.0,0.0,0.0,0.0,0.0,0.0,0.0,0.0,0.0,0.0,0.0,0.0,0.0,0.0,0.0,0.0,0.0,0.0,0.0,0.0,0.0,0.0,0.0,0.0,0.0,0.0,0.0,0.0,0.0,0.0,0.0,0.0,0.0,0.0,0.0,0.0,0.0,0.0,0.0,0.0,0.0,0.0,0.0,0.0,0.0,0.0,0.0,0.0,0.0,0.0,0.0,0.0,0.0,0.0,0.0,0.0,0.0,0.0,0.0,0.0,0.0,0.0,0.0,0.0,0.0,0.0,0.0,0.0,0.0,0.0,0.0,0.0,0.0,0.0,0.0,0.0,0.0,0.0,0.0,0.0,0.0,0.0,0.0,0.0,0.0,0.0,0.0,0.0,0.0,0.0,0.0,0.0,0.0,0.0,0.0,0.0,0.0,0.0,0.0,0.0,0.0,0.0,0.0,0.0,0.0,0.0,0.0,0.0,0.0,0.0,0.0,0.0,0.0,0.0,0.0,0.0,0.0,0.0,0.0,0.0,0.0,0.0,0.0,0.0,0.0,0.0,0.0,0.0,0.0,0.0,0.0,0.0,0.0,0.0,0.0,0.0,0.0,0.0,0.0,0.0,0.0,0.0,0.0,0.0,0.0,0.0,0.0,0.0,0.0,0.0,0.0,0.0,0.0,0.0,0.0,0.0,0.0,0.0,0.0,0.0,0.0,0.0,0.0,0.0,0.0,0.0,0.0,0.0,0.0,0.0,0.0,0.0,0.0,0.0,0.0,0.0,0.0,0.0,0.0,0.0,0.0,0.0,0.0,0.0,0.0,0.0,0.0,0.0,0.0,0.0,0.0,0.0,0.0,0.0,0.0,0.0,0.0,0.0,0.0,0.0,0.0,0.0,0.0,0.0,0.0,0.0,0.0,0.0,0.0,0.0,0.0,0.0,0.0,0.0,0.0,0.0,0.0,0.0,0.0,0.0,0.0,0.0,0.0,0.0,0.0,0.0,0.0,0.0,0.0,0.0,0.0,0.0,0.0,0.0,0.0,0.0,0.0,0.0,0.0,0.0,0.0,0.0,0.0,0.0,0.0,0.0,0.0,0.0,0.0,0.0,0.0,0.0,0.0,0.0,0.0,0.0,0.0,0.0,0.0,0.0,0.0,0.0,0.0,0.0,0.0,0.0,0.0,0.0,0.0,0.0,0.0,0.0,0.0,0.0,0.0,0.0,0.0,0.0,0.0,0.0,0.0,0.0,0.0,0.0,0.0,0.0,0.0,0.0,0.0,0.0,0.0,0.0,0.0,0.0,0.0,0.0,0.0,0.0,0.0,0.0,0.0,0.0,0.0,0.0,0.0,0.0,0.0,0.0,0.0,0.0,0.0,0.0,0.0,0.0,0.0,0.0,0.0,0.0,0.0,0.0,0.0,0.0,0.0,0.0,0.0,0.0,0.0,0.0,0.0,0.0,0.0,0.0,0.0,0.0,0.0,0.0,0.0,0.0,0.0,0.0,0.0,0.0,0.0,0.0,0.0,0.0,0.0,0.0,0.0,0.0,0.0,0.0,0.0,0.0,0.0,0.0,0.0,0.0,0.0,0.0,0.0,0.0,0.0,0.0,0.0,0.0,0.0,0.0,0.0,0.0,0.0,0.0,0.0,0.0,0.0,0.0,0.0,0.0,0.0,0.0,0.0,0.0,0.0,0.0,0.0,0.0,0.0,0.0,0.0,0.0,0.0,0.0,0.0,0.0,0.0,0.0,0.0,0.0,0.0,0.0,0.0,0.0,0.0,0.0,0.0,0.0,0.0,0.0,0.0,0.0,0.0,0.0,0.0,0.0,0.0,0.0,0.0,0.0,0.0,0.0,0.0,0.0,0.0,0.0,0.0,0.0,0.0,0.0,0.0,0.0,0.0,0.0,0.0,0.0,0.0,0.0,0.0,0.0,0.0,0.0,0.0,0.0,0.0,0.0,0.0,0.0,0.0,0.0,0.0,0.0,0.0,0.0,0.0,0.0,0.0,0.0,0.0,0.0,0.0,0.0,0.0,0.0,0.0,0.0,0.0,0.0,0.0,0.0,0.0,0.0,0.0,0.0,0.0,0.0,0.0,0.0,0.0,0.0,0.0,0.0,0.0,0.0,0.0,0.0,0.0,0.0,0.0,0.0,0.0,0.0,0.0,0.0,0.0,0.0,0.0,0.0,0.0,0.0,0.0,0.0,0.0,0.0,0.0,0.0,0.0,0.0,0.0,0.0,0.0,0.0,0.0,0.0,0.0,0.0,0.0,0.0,0.0,0.0,0.0,0.0,0.0,0.0,0.0,0.0,0.0,0.0,0.0,0.0,0.0,0.0,0.0,0.0,0.0,0.0,0.0,0.0,0.0,0.0,0.0,0.0,0.0,0.0,0.0,0.0,0.0,0.0,0.0,0.0,0.0,0.0,0.0,0.0,0.0,0.0,0.0,0.0,0.0,0.0,0.0,0.0,0.0,0.0,0.0,0.0,0.0,0.0,0.0,0.0,0.0,0.0,0.0,0.0,0.0,0.0,0.0,0.0,0.0,0.0,0.0,0.0,0.0,0.0,0.0,0.0,0.0,0.0,0.0,0.0,0.0,0.0,0.0,0.0,0.0,0.0,0.0,0.0,0.0,0.0,0.0,0.0,0.0,0.0,0.0,0.0,0.0,0.0,0.0,0.0,0.0,0.0,0.0,0.0,0.0,0.0,0.0,0.0,0.0,0.0,0.0,0.0,0.0,0.0,0.0,0.0,0.0,0.0,0.0,0.0,0.0,0.0,0.0,0.0,0.0,0.0,0.0,0.0,0.0,0.0,0.0,0.0,0.0,0.0,0.0,0.0,0.0,0.0,0.0,0.0,0.0,0.0,0.0,0.0,0.0,0.0,0.0,0.0,0.0,0.0,0.0,0.0,0.0,0.0,0.0,0.0,0.0,0.0,0.0,0.0,0.0,0.0,0.0,0.0,0.0,0.0,0.0,0.0,0.0,0.0,0.0,0.0,0.0,0.0,0.0,0.0,0.0,0.0,0.0,0.0,0.0,0.0,0.0,0.0,0.0,0.0,0.0,0.0,0.0,0.0,0.0,0.0,0.0,0.0,0.0,0.0,0.0,0.0,0.0,0.0,0.0,0.0,0.0,0.0,0.0,0.0,0.0,0.0,0.0,0.0,0.0,0.0,0.0,0.0,0.0,0.0,0.0,0.0,0.0,0.0,0.0,0.0,0.0,0.0,0.0,0.0,0.0,0.0,0.0,0.0,0.0,0.0,0.0,0.0,0.0,0.0,0.0,0.0,0.0,0.0,0.0,0.0,0.0,0.0,0.0,0.0,0.0,0.0,0.0,0.0,0.0,0.0,0.0,0.0,0.0,0.0,0.0,0.0,0.0,0.0,0.0,0.0,0.0,0.0,0.0,0.0,0.0,0.0,0.0,0.0,0.0,0.0,0.0,0.0,0.0,0.0,0.0,0.0,0.0,0.0,0.0,0.0,0.0,0.0,0.0,0.0,0.0,0.0,0.0,0.0,0.0,0.0,0.0,0.0,0.0,0.0,0.0,0.0,0.0,0.0,0.0,0.0,0.0,0.0,0.0,0.0,0.0,0.0,0.0,0.0,0.0,0.0,0.0,0.0,0.0,0.0,0.0,0.0,0.0,0.0,0.0,0.0,0.0,0.0,0.0,0.0,0.0,0.0,0.0,0.0,0.0,0.0,0.0,0.0,0.0,0.0,0.0,0.0,0.0,0.0,0.0,0.0,0.0,0.0,0.0,0.0,0.0,0.0,0.0,0.0,0.0,0.0,0.0,0.0,0.0,0.0,0.0,0.0,0.0,0.0,0.0,0.0,0.0,0.0,0.0,0.0,0.0,0.0,0.0,0.0,0.0,0.0,0.0,0.0,0.0,0.0,0.0,0.0,0.0,0.0,0.0,0.0,0.0,0.0,0.0,0.0,0.0,0.0,0.0,0.0,0.0,0.0,0.0,0.0,0.0,0.0,0.0,0.0,0.0,0.0,0.0,0.0,0.0,0.0,0.0,0.0,0.0,0.0,0.0,0.0,0.0,0.0,0.0,0.0,0.0,0.0,0.0,0.0,0.0,0.0,0.0,0.0,0.0,0.0,0.0,0.0,0.0,0.0,0.0,0.0,0.0,0.0,0.0,0.0,0.0,0.0,0.0,0.0,0.0,0.0,0.0,0.0,0.0,0.0,0.0,0.0,0.0,0.0,0.0,0.0,0.0,0.0,0.0,0.0,0.0,0.0,0.0,0.0,0.0,0.0,0.0,0.0,0.0,0.0,0.0,0.0,0.0,0.0,0.0,0.0,0.0,0.0,0.0,0.0,0.0,0.0,0.0,0.0,0.0,0.0,0.0,0.0,0.0,0.0,0.0,0.0,0.0,0.0,0.0,0.0,0.0,0.0,0.0,0.0,0.0,0.0,0.0,0.0,0.0,0.0,0.0,0.0,0.0,0.0,0.0,0.0,0.0,0.0,0.0,0.0,0.0,0.0,0.0,0.0,0.0,0.0,0.0,0.0,0.0,0.0,0.0,0.0,0.0,0.0,0.0,0.0,0.0,0.0,0.0,0.0,0.0,0.0,0.0,0.0,0.0,0.0,0.0,0.0,0.0,0.0,0.0,0.0,0.0,0.0,0.0,0.0,0.0,0.0,0.0,0.0,0.0,0.0,0.0,0.0,0.0,0.0,0.0,0.0,0.0,0.0,0.0,0.0,0.0,0.0,0.0,0.0,0.0,0.0,0.0,0.0,0.0,0.0,0.0,0.0,0.0,0.0,0.0,0.0,0.0,0.0,0.0,0.0,0.0,0.0,0.0,0.0,0.0,0.0,0.0,0.0,0.0,0.0,0.0,0.0,0.0,0.0,0.0,0.0,0.0,0.0,0.0,0.0,0.0,0.0,0.0,0.0,0.0,0.0,0.0,0.0,0.0,0.0,0.0,0.0,0.0,0.0,0.0,0.0,0.0,0.0,0.0,0.0,0.0,0.0,0.0,0.0,0.0,0.0,0.0,0.0,0.0,0.0,0.0,0.0,0.0,0.0,0.0,0.0,0.0,0.0,0.0,0.0,0.0,0.0,0.0,0.0,0.0,0.0,0.0,0.0,0.0,0.0,0.0,0.0,0.0,0.0,0.0,0.0,0.0,0.0,0.0,0.0,0.0,0.0,0.0,0.0,0.0,0.0,0.0,0.0,0.0,0.0,0.0,0.0,0.0,0.0,0.0,0.0,0.0,0.0,0.0,0.0,0.0,0.0,4.0937,4.0,0.0,0.0,0.0,0.0,0.0,0.0,0.0,0.0,0.0,0.0,0.0,0.0,0.0,0.0,0.0,0.0,0.0,0.0,0.0,0.0,0.0,0.0,0.0,0.0,0.0,0.0,0.0,0.0,0.0,0.0,0.0,0.0,0.0,0.0,0.0,0.0,0.0,0.0,3.7489,3.811,3.8887,3.9785,3.9341,3.7785,0.0,0.0,0.0,0.0,0.0,0.0,0.0,0.0,0.0,0.0,0.0,0.0,0.0,0.0,0.0,0.0,0.0,0.0,0.0,0.0,0.0,0.0,0.0,0.0,0.0,0.0,0.0,0.0,0.0,0.0,0.0,0.0,0.0,0.0,0.0,0.0,0.0,0.0,0.0,0.0,0.0,0.0,0.0,0.0,0.0,0.0,0.0,0.0,0.0,0.0,0.0,0.0,0.0,0.0,0.0,0.0,0.0,0.0,0.0,0.0,0.0,0.0,0.0,0.0,0.0,0.0,0.0,0.0,0.0,0.0,4.6719,4.4375,0.0,0.0,0.0,0.0,0.0,0.0,0.0,0.0,0.0,0.0,0.0,0.0,0.0,0.0,0.0,0.0,0.0,0.0,0.0,0.0,0.0,0.0,0.0,0.0,3.127,3.16,3.2728,3.3672,0.0,0.0,0.0,0.0,0.0,0.0,0.0,3.5818,3.6721,3.8387,3.9008,4.0679,4.3321,4.3321,4.1897,3.9326,3.9221,0.0,0.0,0.0,0.0,0.0,0.0,0.0,0.0,0.0,0.0,0.0,0.0,0.0,0.0,0.0,0.0,0.0,0.0,0.0,0.0,0.0,0.0,0.0,0.0,0.0,0.0,0.0,0.0,0.0,0.0,0.0,0.0,0.0,0.0,0.0,0.0,0.0,0.0,0.0,0.0,0.0,0.0,0.0,0.0,0.0,0.0,0.0,0.0,0.0,0.0,0.0,0.0,0.0,0.0,0.0,0.0,0.0,0.0,0.0,0.0,0.0,0.0,0.0,5.6562,5.7383,5.8633,5.8633,5.8555,5.8203,5.4764,5.1208,4.7889,4.8005,0.0,0.0,0.0,0.0,0.0,0.0,0.0,0.0,0.0,0.0,0.0,0.0,0.0,0.0,0.0,0.0,0.0,0.0,0.0,0.0,0.0,3.2062,3.2751,3.4301,3.3951,3.4633,0.0,0.0,0.0,0.0,0.0,0.0,3.5513,3.6334,3.7303,3.8387,4.1374,4.452,4.7745,4.7745,4.7906,4.8033,4.3728,4.3042,4.498,0.0,0.0,0.0,0.0,0.0,0.0,0.0,0.0,0.0,0.0,0.0,0.0,0.0,0.0,0.0,0.0,0.0,0.0,0.0,0.0,0.0,0.0,0.0,0.0,0.0,0.0,0.0,0.0,0.0,0.0,0.0,0.0,0.0,0.0,0.0,0.0,0.0,0.0,0.0,0.0,0.0,4.084,4.2389,0.0,0.0,0.0,0.0,0.0,0.0,0.0,0.0,0.0,0.0,0.0,0.0,0.0,5.7812,6.0156,6.2539,6.4219,6.5234,6.6719,6.7187,6.668,6.668,6.6249,6.5543,6.5548,0.0,5.3904,5.0971,0.0,0.0,0.0,0.0,0.0,0.0,0.0,0.0,0.0,0.0,0.0,0.0,0.0,0.0,0.0,0.0,0.0,0.0,0.0,0.0,0.0,3.5069,3.6424,3.7687,4.0051,4.0745,3.9067,0.0,0.0,0.0,0.0,3.678,3.6961,3.7822,3.9696,4.266,4.7084,4.9998,5.148,5.148,5.1964,5.2702,5.0006,4.8093,4.6703,4.4294,0.0,0.0,0.0,0.0,0.0,0.0,0.0,0.0,0.0,0.0,0.0,0.0,0.0,0.0,0.0,0.0,0.0,0.0,0.0,0.0,0.0,0.0,0.0,0.0,0.0,0.0,0.0,0.0,0.0,0.0,0.0,0.0,0.0,0.0,0.0,0.0,0.0,0.0,0.0,4.1985,4.4619,4.2407,4.5485,4.6868,0.0,0.0,0.0,0.0,0.0,0.0,0.0,0.0,0.0,5.9531,6.1797,6.3945,6.6015,6.8125,6.9883,7.125,7.1992,7.2695,7.3242,7.3242,7.2999,7.25,7.2253,6.9475,6.4613,5.8758,5.4908,5.2479,0.0,0.0,0.0,0.0,5.1375,5.2305,0.0,0.0,0.0,0.0,0.0,0.0,0.0,0.0,0.0,0.0,0.0,0.0,3.6359,3.8449,4.0587,4.2786,4.5803,4.6259,4.3156,4.3183,0.0,0.0,3.7941,3.7724,3.8389,4.0346,4.351,4.7983,5.2257,5.4705,5.5326,5.5345,5.5847,5.6708,5.6147,5.3713,4.9893,4.7374,4.4815,4.2318,0.0,0.0,0.0,0.0,0.0,0.0,0.0,0.0,0.0,0.0,0.0,0.0,0.0,0.0,0.0,0.0,0.0,0.0,0.0,0.0,0.0,0.0,0.0,0.0,0.0,0.0,0.0,0.0,0.0,0.0,0.0,0.0,0.0,0.0,0.0,0.0,0.0,4.5612,4.8038,4.3503,4.8517,5.0578,0.0,0.0,0.0,0.0,0.0,0.0,5.75,6.0078,6.2773,6.5547,6.7969,7.0117,7.2031,7.332,7.4844,7.6562,7.6133,7.6719,7.8164,7.7884,7.7698,7.7472,7.6709,7.5448,7.3362,6.5895,6.067,5.7265,5.6131,5.5036,5.4267,5.5905,5.6945,5.7726,0.0,0.0,0.0,0.0,0.0,0.0,0.0,0.0,0.0,0.0,0.0,3.5533,4.0517,4.185,4.4712,5.0527,4.9037,4.8694,5.087,4.5114,4.1915,4.2517,3.8742,3.7462,3.9199,4.4277,4.9021,5.3306,5.5242,5.7418,5.9795,5.982,6.0355,6.1178,6.1205,5.9765,5.6962,5.195,4.9733,4.915,4.4239,0.0,0.0,0.0,0.0,0.0,0.0,0.0,0.0,0.0,0.0,0.0,0.0,0.0,0.0,0.0,0.0,0.0,0.0,0.0,0.0,0.0,0.0,0.0,0.0,0.0,0.0,0.0,0.0,0.0,0.0,0.0,0.0,0.0,0.0,0.0,0.0,0.0,0.0,4.856,5.4434,0.0,0.0,0.0,0.0,5.6015,5.8555,6.1133,6.3711,6.6328,6.9297,7.2695,7.4531,7.664,7.914,7.9258,8.0195,8.1875,8.0234,7.9921,8.0778,7.9762,7.9275,7.9249,7.8816,7.8104,7.673,6.9982,6.6039,6.4135,6.2501,6.0779,5.9436,6.1092,6.177,6.1985,0.0,0.0,0.0,0.0,0.0,0.0,0.0,0.0,3.327,3.444,3.6548,3.9462,4.3479,4.7067,5.0668,5.4486,5.5976,5.5708,5.3378,4.9939,4.7646,4.6882,4.2908,4.2379,4.5937,4.9556,5.2974,5.6203,5.9037,6.0612,6.1045,6.2118,6.258,6.2448,6.3027,6.2782,6.1671,5.7033,5.2819,4.9072,4.6694,4.3537,0.0,0.0,0.0,0.0,0.0,0.0,0.0,0.0,0.0,0.0,0.0,0.0,0.0,0.0,0.0,0.0,0.0,0.0,0.0,0.0,0.0,0.0,0.0,0.0,0.0,0.0,0.0,0.0,0.0,0.0,0.0,0.0,0.0,0.0,0.0,0.0,0.0,5.6128,6.0891,0.0,5.9219,5.9922,6.1133,6.2305,6.5273,6.793,6.9961,7.2578,7.5039,7.7344,7.8555,7.9883,8.1367,8.1367,8.1638,8.2166,8.1495,8.1311,8.148,8.1085,8.0808,8.0699,8.0539,7.992,7.8791,7.6417,7.3434,7.0221,6.8525,6.714,6.623,6.7346,6.7783,6.7834,0.0,0.0,0.0,0.0,0.0,0.0,0.0,0.0,3.4039,3.5755,3.8746,4.2526,4.7302,5.1582,5.5556,5.9262,6.0561,5.9644,5.6014,5.2881,5.0574,4.9226,4.666,4.7105,5.1047,5.3975,5.6775,5.9342,6.1906,6.2896,6.2387,6.3541,6.3804,6.3389,6.4262,6.4515,6.4143,6.1525,5.7113,5.1687,5.001,4.7404,4.4172,0.0,0.0,0.0,0.0,0.0,0.0,0.0,0.0,0.0,0.0,0.0,0.0,0.0,0.0,0.0,0.0,0.0,0.0,0.0,0.0,0.0,0.0,0.0,0.0,0.0,0.0,0.0,0.0,0.0,0.0,0.0,0.0,0.0,0.0,5.7102,6.1281,6.1571,6.6558,6.8555,6.5078,6.6328,6.7695,6.8555,7.1289,7.3633,7.5351,7.7383,7.914,8.0547,8.1133,8.1679,8.222,8.2218,8.212,8.2006,8.1943,8.1844,8.1773,8.1657,8.154,8.141,8.1311,8.0902,8.0246,8.0246,7.8592,7.5861,7.386,7.2206,7.1129,7.2206,7.2245,7.1745,0.0,0.0,0.0,0.0,0.0,0.0,0.0,3.2605,3.3922,3.7254,4.0043,4.4513,5.2002,5.5186,5.9123,6.484,6.2333,6.004,5.9147,5.3569,5.003,4.9375,4.9766,5.1273,5.4025,5.7377,6.0335,6.2825,6.3716,6.415,6.4111,6.4232,6.429,6.4333,6.5301,6.5234,6.4494,6.5351,6.2774,5.7818,5.4271,5.2329,5.0852,0.0,0.0,0.0,0.0,0.0,0.0,0.0,0.0,0.0,0.0,0.0,0.0,0.0,0.0,0.0,0.0,0.0,0.0,0.0,0.0,0.0,0.0,0.0,0.0,0.0,0.0,0.0,0.0,0.0,0.0,0.0,0.0,0.0,5.5174,6.2541,6.7071,6.4911,7.1399,7.4101,6.9101,7.164,7.3984,7.4805,7.6484,7.8164,7.9765,8.0625,8.1484,8.2304,8.2304,8.222,8.2098,8.2039,8.1938,8.1771,8.1734,8.1687,8.1666,8.1458,8.1398,8.1362,8.1191,8.1093,8.1093,8.1093,8.1093,8.0823,7.8323,7.5861,7.386,7.5438,7.5014,7.3476,0.0,0.0,0.0,0.0,0.0,0.0,0.0,3.3211,3.4617,3.733,4.2565,4.7799,5.2308,5.7863,6.2122,6.4359,6.2073,6.0162,5.9215,5.3678,5.046,5.0473,5.3029,5.5725,5.8499,6.0062,6.1829,6.3807,6.4631,6.4766,6.4275,6.6092,6.6645,6.616,6.769,6.82,6.8005,6.8239,6.7146,6.4765,5.8794,5.5521,5.3772,0.0,0.0,0.0,0.0,0.0,0.0,0.0,0.0,0.0,0.0,0.0,0.0,0.0,0.0,0.0,0.0,0.0,0.0,0.0,0.0,0.0,0.0,0.0,0.0,0.0,0.0,0.0,0.0,0.0,0.0,0.0,5.8657,6.3069,6.3547,6.7219,7.1016,7.4174,7.7538,7.9297,7.8515,7.9844,8.0859,8.1094,8.2148,8.2969,8.3437,8.3086,8.3008,8.3242,8.2528,8.211,8.2039,8.1922,8.1749,8.1573,8.1522,8.143,8.1336,8.1239,8.1167,8.1191,8.1139,8.1093,8.1093,8.1093,8.0746,8.0092,7.94,7.8284,7.7092,7.6976,7.6245,7.5284,0.0,0.0,0.0,0.0,0.0,0.0,0.0,3.3119,3.4764,3.8338,4.4105,4.9384,5.3501,5.8745,6.2306,6.3107,6.0954,5.8527,5.6217,5.2672,5.157,5.3623,5.6402,5.92,6.1904,6.3155,6.445,6.5832,6.667,6.6879,6.6483,6.791,6.8343,6.7927,6.8942,6.9606,6.9918,6.9567,6.9528,6.9294,6.4179,6.0907,5.8572,5.4005,5.1869,5.1015,4.9092,4.8454,4.8198,4.5828,0.0,0.0,0.0,0.0,0.0,0.0,0.0,0.0,0.0,0.0,0.0,0.0,0.0,0.0,0.0,0.0,0.0,0.0,0.0,0.0,0.0,0.0,0.0,0.0,6.498,7.0155,7.3359,7.4034,7.5794,8.0115,8.2148,8.3242,8.3398,8.4492,8.5078,8.4726,8.5508,8.582,8.5469,8.4961,8.4531,8.414,8.3489,8.3116,8.302,8.277,8.258,8.2419,8.1968,8.173,8.167,8.1262,8.1093,8.1093,8.1093,8.1093,8.1093,8.1093,8.0785,8.0323,0.0,0.0,0.0,0.0,7.6861,7.6938,0.0,0.0,0.0,0.0,0.0,0.0,0.0,3.263,3.4542,3.9487,4.4566,4.9537,5.4285,5.8016,6.0508,6.13,5.8962,5.588,5.2154,5.1554,5.33,5.7697,5.963,6.1816,6.4375,6.6092,6.7342,6.8083,6.8981,6.9411,6.9411,6.9489,6.9606,6.9684,6.9801,7.0309,7.1089,7.0191,7.0738,7.1948,6.9411,6.68,6.3843,5.8373,5.6405,5.6149,5.3123,5.1004,4.9458,4.8315,0.0,0.0,0.0,0.0,0.0,0.0,0.0,0.0,0.0,0.0,0.0,0.0,0.0,0.0,0.0,0.0,0.0,0.0,0.0,0.0,0.0,0.0,0.0,0.0,7.1315,7.5984,8.2752,8.1583,8.1054,8.3704,8.5507,8.6172,8.539,8.6836,8.7461,8.6679,8.7344,8.7422,8.6679,8.6523,0.0,0.0,0.0,8.4696,8.4373,8.4217,8.4003,8.3665,8.2932,8.2554,8.2401,8.1593,8.1246,8.1246,8.1131,8.1093,8.1093,8.1093,8.1093,8.1016,8.0131,7.8823,7.7361,7.6669,7.7269,7.82,0.0,0.0,0.0,0.0,0.0,0.0,0.0,3.2374,3.4151,3.7877,4.3359,4.7834,5.0172,5.4714,5.7911,5.8655,5.59,5.3831,5.3129,5.3719,5.5781,5.9512,6.1491,6.3394,6.5312,6.699,6.7927,6.8083,6.8981,6.9411,6.9411,7.0113,7.0816,7.1519,7.2221,7.3002,7.3705,7.2885,7.2729,7.2885,7.0972,6.8239,6.5123,6.3198,6.039,5.7372,5.6716,5.6568,5.6285,5.337,5.2554,5.2314,4.9246,0.0,0.0,0.0,0.0,0.0,0.0,0.0,0.0,0.0,0.0,0.0,0.0,0.0,0.0,0.0,0.0,0.0,0.0,0.0,0.0,7.0304,7.5378,8.0405,8.4815,8.542,8.5755,8.6638,8.7617,8.8164,8.7969,8.8906,8.9453,8.9297,8.9414,8.9453,8.9258,8.8594,8.7812,8.695,8.6609,8.575,8.4246,8.523,8.5044,8.3625,8.4148,0.0,8.3324,8.2439,8.2054,8.2016,8.1362,8.1093,8.1093,8.1093,8.1093,8.1016,8.0131,7.9169,7.8323,7.8861,7.8612,7.79,0.0,0.0,0.0,0.0,0.0,0.0,0.0,3.232,3.3932,3.6903,4.1724,4.5486,4.7233,5.0835,5.2948,5.2483,5.0586,5.055,5.3307,5.5216,5.8203,6.2694,6.4596,6.617,6.7459,6.8747,6.9411,6.9411,7.027,7.0699,7.0738,7.1597,7.2221,7.269,7.3549,7.4369,7.5071,7.3822,7.3549,7.3744,7.2026,6.9801,6.7347,6.6011,6.3045,5.9665,6.0102,5.9583,5.8372,5.6233,5.5196,5.4365,5.1802,4.9265,4.694,0.0,0.0,0.0,0.0,0.0,0.0,0.0,0.0,0.0,0.0,0.0,0.0,0.0,0.0,6.0592,6.2296,0.0,7.3111,7.6241,8.0174,8.3998,8.7369,8.814,8.8443,8.871,8.9492,8.9844,8.9375,9.0546,9.1132,9.0664,9.1054,9.1093,9.0664,9.0234,8.9413,8.8082,8.8083,8.7258,8.5503,8.6373,8.6126,8.4863,8.4901,8.4439,8.3555,8.2708,8.2093,8.167,8.1285,8.1093,8.1093,8.1093,8.1093,8.1054,8.0631,8.0021,7.9412,7.899,7.8517,7.7987,0.0,0.0,0.0,0.0,0.0,0.0,0.0,3.2154,3.3525,3.5892,3.9608,4.2637,4.4201,4.6509,4.7394,4.6038,4.636,4.8632,5.3302,5.637,6.0278,6.5387,6.7224,6.8435,6.9137,7.0348,7.0855,7.0699,7.1753,7.2182,7.2026,7.2885,7.3393,7.3588,7.4408,7.5227,7.593,7.4447,7.4173,7.4603,7.2924,7.1016,6.8996,6.7574,6.4957,6.2067,6.243,6.0772,5.8312,5.742,5.6086,5.4542,5.3149,5.1562,4.9768,4.7246,4.5962,0.0,0.0,0.0,0.0,0.0,0.0,0.0,0.0,5.485,5.6996,5.9623,6.3507,6.7352,7.0319,7.458,7.8737,8.2092,8.4362,8.6669,8.9423,8.9636,8.9659,8.9961,9.0937,9.1289,9.0586,9.1795,9.2302,9.1601,9.2185,9.2303,9.1601,9.1561,9.0738,8.8932,8.9326,8.8643,8.6749,8.7345,8.7209,8.6324,8.5709,8.5016,8.4286,8.3093,8.2208,8.1554,8.1246,8.1093,8.1093,8.1093,8.1093,8.1093,8.1093,8.0639,7.9858,7.8615,7.8064,7.7798,0.0,0.0,0.0,0.0,0.0,0.0,0.0,0.0,3.249,3.4238,3.685,3.8922,3.99,4.1585,4.2577,4.2385,4.7256,5.1273,5.3552,5.7605,6.1615,6.5426,6.7224,6.8161,6.8239,7.0621,7.148,7.0699,7.2339,7.2768,7.2026,7.2885,7.3666,7.4408,7.5266,7.6125,7.6906,7.593,7.5579,7.5501,7.3822,7.1184,6.8237,6.8046,6.6236,6.3628,6.2182,5.9892,5.742,5.6521,5.5614,5.4774,5.4581,5.332,5.1446,4.9017,0.0,4.6973,4.6748,4.7972,5.0073,5.3217,5.4316,5.6589,0.0,6.5585,6.6012,6.8492,7.2498,7.5865,7.6897,8.0006,8.3065,8.5033,8.6189,8.752,8.9509,8.9128,8.8995,8.9882,9.1445,9.2421,9.2302,9.2496,9.2572,9.245,9.2533,9.2574,9.2458,9.2461,9.1553,8.9632,9.0149,8.9139,8.6468,8.7866,8.8132,8.7248,8.7171,8.7055,8.6901,8.4516,8.3401,8.3247,8.1747,8.1093,8.1093,8.1093,8.1093,8.1093,8.1093,8.0078,7.8622,7.8866,7.7997,7.6583,0.0,0.0,0.0,0.0,0.0,0.0,0.0,0.0,0.0,0.0,3.5001,3.6729,3.7108,3.8197,3.9112,3.9676,4.4291,4.8851,5.2784,5.8005,6.2772,6.6883,6.8217,6.908,6.9587,7.0675,7.1295,7.1451,7.2185,7.2378,7.2026,7.2885,7.3744,7.4525,7.5423,7.6281,7.7023,7.6164,7.5501,7.4957,7.3729,7.1787,6.9372,6.7379,6.4947,6.2358,6.0137,5.7624,0.0,0.0,5.4006,5.4086,5.4072,5.3213,5.18,4.9304,4.9078,0.0,5.0274,5.2306,5.4741,5.6775,6.0263,6.4276,6.8515,7.0392,7.201,7.459,7.8091,8.096,8.1797,8.4267,8.6266,8.657,8.7321,8.8166,8.9049,8.7999,8.7495,8.8437,8.875,8.9062,8.957,9.0076,9.0543,9.1052,9.109,9.1325,9.1835,9.1367,9.0412,8.8989,8.9535,8.8748,8.6416,8.7426,8.7517,8.6632,8.617,8.567,8.5132,8.3555,8.2593,8.2093,8.14,8.1093,8.1093,8.1093,8.0785,8.0308,8.0038,7.8713,7.7059,7.7756,7.6608,7.4586,0.0,0.0,0.0,0.0,0.0,0.0,0.0,0.0,0.0,0.0,3.3373,3.4723,3.518,3.5971,3.6755,3.7433,4.1413,4.5949,5.0855,5.6806,6.2098,6.6502,6.8188,6.9441,7.03,7.1038,7.1618,7.2006,7.2232,7.2227,7.2026,7.2651,7.3393,7.4212,7.4837,7.5735,7.6672,7.5813,7.5077,7.4386,7.3038,7.1209,6.8906,6.5424,6.1865,5.8547,5.6719,5.4321,0.0,0.0,5.0515,5.1181,5.1399,5.1347,5.1009,4.9746,5.0582,5.2133,5.2757,5.5453,5.8642,6.0832,6.5966,7.097,7.2707,7.5301,7.7923,7.9843,8.2335,8.4385,8.5012,8.6141,8.6974,8.6918,8.7431,8.8069,8.8632,8.6836,8.5703,8.6367,8.4804,8.414,8.5234,8.7147,8.8591,8.9256,8.9294,8.9646,9.0546,8.9723,8.8987,8.8368,8.8273,8.7509,8.6039,8.6285,8.6197,8.578,8.4972,8.434,8.3901,8.2824,8.1862,8.1093,8.1093,8.1093,8.1093,8.0823,8.0315,7.955,7.8989,7.755,7.5885,7.6452,7.5272,7.3287,0.0,0.0,0.0,0.0,0.0,0.0,0.0,0.0,0.0,0.0,0.0,0.0,0.0,3.5109,3.5664,3.5694,3.9703,4.3764,4.7333,5.3338,5.8659,6.2956,6.6356,6.8544,6.9403,7.1903,7.2836,7.2006,7.2865,7.282,7.1987,7.2026,7.2495,7.3354,7.3354,7.429,7.5777,7.4915,7.4506,7.429,7.1791,6.8711,6.5265,6.1865,5.6872,5.1719,5.1631,0.0,0.0,4.4714,4.4409,4.5184,4.5963,4.7353,0.0,5.0723,5.2422,5.3736,5.368,5.6747,6.1175,6.6332,7.0965,7.5155,7.8631,8.2109,8.4609,8.4687,8.5469,8.6133,8.6133,8.4843,8.4296,8.5976,8.625,8.6836,8.8476,8.5781,8.3672,8.3711,8.0039,7.8125,7.9765,8.4491,8.7454,8.7486,8.7493,8.7848,8.8746,8.7877,8.7642,8.8187,8.6456,8.5417,8.5164,8.4339,8.428,8.5013,8.4127,8.4134,8.4786,8.3093,8.1862,8.1093,8.1093,8.1093,8.1016,8.0208,7.9555,7.9052,7.8232,7.6858,7.5333,7.5333,7.4548,7.3287,0.0,0.0,0.0,0.0,0.0,0.0,0.0,0.0,0.0,0.0,0.0,0.0,0.0,0.0,0.0,0.0,3.7837,4.1198,4.4711,5.0071,5.4566,5.7767,6.1716,6.453,6.5975,6.8004,6.9447,7.0265,7.0569,7.056,7.0282,7.0275,7.0738,7.1558,7.1558,7.2221,7.3236,7.2339,7.1655,7.0855,6.7656,6.5347,6.3225,5.8068,5.3781,5.0078,0.0,0.0,4.3008,4.1515,4.1968,4.3197,4.3425,4.5108,4.7562,5.0497,5.2938,5.5266,5.8113,6.3124,6.8435,7.2154,7.6696,8.0887,8.3434,8.5351,8.6289,8.5156,8.3281,8.1562,8.0429,7.8789,7.8398,8.0703,8.3008,8.4883,8.6015,8.5195,8.3594,8.1289,7.9258,7.7812,7.7226,8.0273,8.3241,8.5584,8.5194,8.5507,8.6952,8.6114,8.5604,8.568,8.4961,8.4475,8.4223,8.3664,8.3533,8.3769,8.2873,8.2284,8.2037,8.1667,8.1362,8.1054,8.0477,8.0246,8.0169,7.9285,7.8366,7.7411,7.6846,7.5717,7.4399,7.4138,7.3441,7.2506,0.0,0.0,0.0,0.0,0.0,0.0,0.0,0.0,0.0,0.0,0.0,0.0,0.0,0.0,0.0,0.0,0.0,3.8414,4.1677,4.5858,4.9648,5.2889,5.6211,5.8828,6.0586,6.1718,6.3123,6.4839,6.5146,6.5606,6.6184,6.6178,6.6641,6.7498,6.7498,6.8122,6.9179,6.8295,6.7219,6.5859,6.2687,6.0332,5.8217,5.3107,4.9603,0.0,0.0,0.0,3.9206,3.8593,3.9725,4.1478,4.1731,4.4663,4.862,5.1436,5.4687,5.8402,6.3278,6.8617,7.3706,7.7448,8.1299,8.4564,8.5896,8.6406,8.582,8.3164,7.9609,7.6328,7.4336,7.1797,7.125,7.5078,7.7305,7.9805,8.3476,8.2929,8.1758,8.0742,7.9101,7.7812,7.7305,7.8203,7.9844,8.2422,8.2929,8.3633,8.4765,8.4104,8.3932,8.4409,8.3631,8.3217,8.3224,8.266,8.2249,8.2052,8.1591,8.1093,8.054,8.0619,8.0631,8.0592,7.9708,7.9323,7.9269,7.8238,7.7263,7.6313,7.5573,7.4515,7.3327,7.308,7.2258,7.1255,0.0,0.0,0.0,0.0,0.0,0.0,0.0,0.0,0.0,0.0,0.0,0.0,0.0,0.0,0.0,0.0,0.0,0.0,3.8164,4.0742,4.4062,4.8203,5.0156,5.1914,5.3633,5.375,5.4647,5.6399,5.7222,5.8466,6.0083,6.0052,6.0518,6.1291,6.1291,6.2228,6.3716,6.277,6.1404,5.9672,5.7038,5.4023,5.0783,4.741,0.0,0.0,0.0,0.0,3.6011,3.6089,3.7966,4.0389,4.1288,4.6133,5.1873,5.3672,5.7814,6.3052,6.8885,7.3096,7.7042,8.2098,8.4663,8.5981,8.6014,8.5234,8.3281,7.8945,7.4492,7.0625,6.8086,6.4297,6.3515,6.9531,7.0117,7.2734,8.1172,7.9648,7.8789,8.1875,7.9414,0.0,0.0,7.8242,7.7655,7.8398,8.0781,8.2187,8.2304,8.2027,8.265,8.4319,8.2482,8.1655,8.2147,8.1292,8.0531,7.9944,8.0335,8.0428,8.0277,7.9939,7.9754,7.9623,7.8715,7.8331,7.8223,7.6901,7.6141,7.5649,7.4365,7.314,7.2135,7.2135,7.1106,6.9818,0.0,0.0,0.0,0.0,0.0,0.0,0.0,0.0,0.0,0.0,0.0,0.0,0.0,0.0,0.0,0.0,0.0,0.0,3.4648,3.7773,4.0078,4.1172,4.5312,4.8125,4.9219,5.0508,5.1992,5.3671,5.3904,5.4566,5.5616,5.5612,5.5764,5.5957,5.5957,5.6192,5.6584,5.5695,5.5038,5.4331,0.0,4.9638,4.9005,0.0,0.0,0.0,0.0,0.0,3.6209,3.7496,4.0935,4.5038,4.7187,5.0346,5.411,5.8301,6.3052,6.7992,7.2723,7.7932,8.2539,8.461,8.5551,8.5512,8.3709,8.1133,7.7734,7.2734,6.7265,6.2578,6.0039,5.9726,6.1601,6.6992,7.1992,7.7109,8.25,8.3633,8.3281,8.1523,0.0,8.0009,7.7901,7.8889,7.9227,7.8135,7.9471,8.0896,8.2083,8.1992,8.2058,8.2401,8.1517,8.1092,8.1246,8.0316,7.9627,7.9188,7.9433,7.9229,7.8624,7.9057,7.8768,7.7817,7.6662,7.5977,7.5551,7.3973,7.3073,7.2692,7.2372,7.1794,7.1255,7.1255,7.0586,6.9707,0.0,0.0,0.0,0.0,0.0,0.0,0.0,0.0,0.0,0.0,0.0,0.0,0.0,0.0,0.0,0.0,0.0,0.0,0.0,3.4687,3.6289,3.7422,3.9883,4.1797,4.3047,4.3671,4.4804,4.6522,4.6912,4.7692,4.89,4.929,4.9484,4.948,4.9871,5.0066,5.0029,4.9453,0.0,0.0,0.0,0.0,0.0,0.0,0.0,0.0,0.0,0.0,3.9765,4.2223,4.5694,4.9677,5.3423,5.655,5.9832,6.4927,6.9196,7.3161,7.7433,8.191,8.5446,8.5694,8.5312,8.3831,7.9842,7.6249,7.1832,6.5114,6.0113,5.6207,5.3668,5.4296,5.707,6.2617,6.8047,7.3711,7.9922,8.2265,8.3163,0.0,8.2664,0.0,7.9895,8.0195,8.0245,7.9661,8.0193,8.0817,8.1309,8.1629,8.174,8.167,8.1167,8.0685,8.0277,7.9583,7.9066,7.8697,7.869,7.8422,7.7909,7.7783,7.7338,7.6566,7.519,7.4429,7.4043,7.2573,7.1815,7.1591,7.1341,7.0931,7.0375,7.0375,6.9855,6.915,0.0,0.0,0.0,0.0,0.0,0.0,0.0,0.0,0.0,0.0,0.0,0.0,0.0,0.0,0.0,0.0,0.0,0.0,0.0,0.0,3.3203,3.5391,3.4999,3.5428,3.6913,3.6324,3.6792,3.8432,3.9177,4.0349,4.1907,4.2654,4.3005,4.3078,4.3821,4.4135,4.4138,4.3998,4.3127,0.0,0.0,0.0,0.0,0.0,0.0,0.0,0.0,0.0,4.3943,4.7771,5.1068,5.4423,5.945,6.3322,6.7022,7.206,7.5265,7.8047,8.2198,8.5103,8.6758,8.5921,8.4176,8.1176,7.5272,7.0736,6.5489,5.7326,5.357,5.1025,4.8683,4.9404,5.2342,5.8474,0.0,6.7538,7.6403,7.8826,8.0851,8.4122,8.3908,8.3362,8.302,8.1664,8.1042,8.1711,8.1662,8.1295,8.059,8.1223,8.154,8.1425,8.1041,8.0332,7.9441,7.9041,7.866,7.8336,7.8029,7.7714,7.7353,7.6246,7.5645,7.5393,7.3904,7.3146,7.2893,7.1792,7.1276,7.1156,7.0722,7.0152,6.9521,6.941,6.8927,6.8333,0.0,0.0,0.0,0.0,0.0,0.0,0.0,0.0,0.0,0.0,0.0,0.0,0.0,0.0,0.0,0.0,0.0,0.0,0.0,0.0,0.0,3.2851,3.4023,3.4842,3.5155,3.5699,3.6481,3.7537,3.7694,3.828,3.9257,3.9414,3.9492,3.9492,3.9648,3.9687,3.9637,3.9587,3.9427,0.0,0.0,0.0,0.0,0.0,0.0,0.0,0.0,3.8981,4.248,4.8745,5.4474,5.9693,6.4023,6.769,7.1426,7.6486,7.9238,8.1424,8.4946,8.6886,8.7535,8.6059,8.2357,7.7551,7.164,6.4832,0.0,5.2401,4.9094,4.6872,4.5699,4.8518,5.3208,5.9946,6.3438,6.8759,7.8598,7.9736,8.0527,0.0,8.3874,8.3576,8.2103,8.2111,8.1994,8.1414,8.1256,8.122,8.1307,8.1494,8.1257,8.0541,8.035,7.9823,7.9029,7.8697,7.8213,7.7527,7.734,7.6532,7.5154,7.4591,7.379,7.2807,7.2184,7.1351,7.0334,7.0126,6.9631,6.9035,6.8939,6.8816,6.8654,6.7986,6.7651,6.7503,0.0,0.0,0.0,0.0,0.0,0.0,0.0,0.0,0.0,0.0,3.4686,0.0,0.0,0.0,0.0,0.0,0.0,0.0,0.0,0.0,0.0,0.0,0.0,0.0,3.4684,3.4681,3.5072,3.5934,0.0,3.5468,3.5898,3.5898,3.5898,3.5898,3.5896,3.5889,3.5876,3.6265,3.6455,3.6553,3.7383,3.7466,0.0,0.0,0.0,0.0,0.0,0.0,4.3139,4.8152,5.3822,5.9932,6.6393,7.1012,7.4798,7.8546,8.119,8.3283,8.5372,8.6623,8.6849,8.4876,7.9895,7.368,6.6914,0.0,0.0,4.725,4.529,4.4413,4.3557,4.6952,5.1268,5.5436,5.9459,6.501,7.3412,7.5859,7.8184,8.1975,8.3122,8.3252,8.235,8.2071,8.1754,8.133,8.1184,8.1161,8.1258,8.1112,8.0738,8.0163,7.9426,7.8739,7.8073,7.7494,7.6978,7.6526,7.6027,7.5378,7.4588,7.3541,7.2957,7.2767,7.1677,7.0907,7.0301,6.9855,6.9224,6.8481,6.8481,6.8481,6.8468,6.8073,6.7688,6.7317,0.0,0.0,0.0,0.0,0.0,0.0,0.0,3.2578,3.4328,3.6944,3.714,3.6243,3.4177,3.2615,0.0,0.0,0.0,0.0,0.0,0.0,0.0,0.0,0.0,0.0,0.0,0.0,0.0,3.441,3.3748,0.0,0.0,0.0,0.0,0.0,3.3386,3.3374,3.3395,3.3968,3.4344,0.0,0.0,3.6289,0.0,0.0,0.0,0.0,0.0,0.0,4.3498,4.7012,5.1438,5.6827,6.469,7.0913,7.574,7.7945,8.0923,8.3721,8.4558,8.5422,8.5475,8.3013,7.6936,6.9709,6.2734,5.597,4.941,4.3448,4.2672,4.2902,4.2203,4.5088,4.8335,5.075,5.4562,5.9867,6.7414,7.1332,7.5262,8.0262,8.1951,0.0,8.2534,8.1773,8.1305,8.1305,8.1214,8.1093,8.0975,8.066,8.0201,7.9616,7.8586,7.77,7.7042,7.6308,7.5819,7.5527,7.4896,7.4487,7.4264,7.2666,7.2395,7.3064,7.1552,7.0895,7.0858,7.0227,6.9484,6.8741,6.858,6.8481,6.8506,6.8296,6.7837,6.7317,0.0,0.0,0.0,0.0,0.0,0.0,0.0,3.183,3.4358,3.6941,3.6591,3.6047,3.5779,3.492,0.0,0.0,0.0,0.0,0.0,0.0,0.0,0.0,0.0,0.0,0.0,0.0,0.0,3.3514,3.3436,0.0,0.0,0.0,0.0,0.0,0.0,3.3345,3.3206,3.3308,0.0,0.0,0.0,0.0,0.0,0.0,0.0,0.0,0.0,4.0322,4.1772,4.5903,4.8154,5.0155,5.5612,6.3952,7.1949,7.2993,0.0,0.0,8.2931,8.3806,8.3671,8.0615,7.3455,6.5807,6.0538,0.0,4.5831,4.2804,4.2175,4.2105,4.2028,4.297,4.5344,5.0139,5.1417,5.5261,6.5082,6.8843,7.244,7.7473,0.0,0.0,8.162,8.1465,8.1387,8.1387,8.1249,8.1,8.0591,8.0517,7.982,7.8308,7.8035,7.7327,7.6148,7.5905,7.5442,7.471,7.4635,7.4216,7.3473,7.1775,7.1478,7.2283,7.1329,7.0895,7.0895,7.0821,7.0301,6.9521,6.8778,6.8481,6.8407,6.7688,6.7354,6.7317,0.0,0.0,0.0,0.0,0.0,0.0,0.0,3.2063,3.4516,3.7683,3.7762,3.7571,3.7575,3.6326,0.0,0.0,0.0,0.0,0.0,0.0,0.0,0.0,0.0,0.0,0.0,0.0,3.238,3.3397,3.2889,0.0,0.0,0.0,0.0,0.0,0.0,3.1682,3.1661,3.2154,0.0,0.0,0.0,0.0,0.0,0.0,0.0,0.0,0.0,0.0,4.1081,4.278,4.4563,0.0,4.727,5.3575,0.0,0.0,7.1872,7.604,7.9086,8.0897,8.126,7.8599,7.1473,6.3783,5.8739,0.0,4.4618,4.1951,4.1344,4.1263,4.1287,4.197,4.3363,4.5916,4.6797,0.0,5.7499,6.0339,6.4501,7.2153,7.4889,7.7171,7.9724,7.9932,8.0061,8.0522,8.1007,8.1047,8.0517,8.0163,7.9481,7.8312,7.7214,7.614,7.5161,7.4625,7.4216,7.3881,7.3881,7.3733,7.3361,7.2221,7.1849,7.2172,7.1292,7.0895,7.0858,7.0375,6.9967,6.9595,6.8816,6.8481,6.8444,6.8134,6.7428,6.6574,0.0,0.0,0.0,0.0,0.0,0.0,3.0193,3.1907,3.409,3.7061,3.7688,3.773,3.7459,3.6132,3.4179,3.1523,0.0,0.0,0.0,0.0,0.0,0.0,0.0,0.0,0.0,0.0,3.1835,3.3007,3.2868,3.2688,0.0,0.0,3.1893,3.1005,0.0,0.0,0.0,0.0,0.0,0.0,0.0,0.0,0.0,0.0,0.0,0.0,0.0,0.0,0.0,0.0,0.0,0.0,0.0,0.0,0.0,0.0,6.5771,7.0525,7.3713,7.6352,7.7607,7.4953,6.8398,6.1367,0.0,0.0,4.3818,4.1392,4.0844,4.0787,4.0777,4.1223,4.1996,4.3124,0.0,4.6573,5.2298,5.5238,5.96,6.7219,7.0071,7.3114,7.7394,7.867,7.9379,7.97,8.013,8.0339,8.0204,7.9454,7.8663,7.7846,7.6417,7.5191,7.4253,7.3696,7.3398,7.3398,7.3398,7.3398,7.3398,7.2581,7.2209,7.2172,7.1292,7.0895,7.0821,7.0004,6.9707,6.9595,6.8816,6.8481,6.8444,6.8246,6.7428,6.6425,0.0,0.0,0.0,0.0,0.0,0.0,0.0,3.1043,3.2765,3.4529,3.5506,3.5702,3.4844,3.3945,3.3086,3.2266,0.0,0.0,0.0,0.0,0.0,0.0,0.0,0.0,0.0,0.0,3.2083,3.2122,3.3717,3.405,3.3208,3.3278,3.2736,3.1763,0.0,0.0,0.0,0.0,0.0,0.0,0.0,0.0,0.0,0.0,0.0,0.0,0.0,0.0,0.0,0.0,0.0,0.0,0.0,0.0,0.0,0.0,5.9056,6.6482,6.665,6.9882,7.2375,6.9042,6.3633,5.8011,5.3719,4.7996,4.3111,4.128,4.0849,4.0759,4.0701,4.072,4.1274,4.3008,4.4014,0.0,5.1494,5.5866,5.9832,6.3263,6.6653,7.0417,7.4642,7.8117,7.9804,7.9054,7.8594,7.8676,7.9451,7.816,7.716,7.6535,7.5737,7.4709,7.3435,7.3398,7.3398,7.3398,7.3398,7.3398,7.3398,7.2581,7.2209,7.2172,7.1292,7.0895,7.0821,7.0004,6.9707,6.9595,6.8816,6.8481,6.8407,6.7614,6.7317,6.7168,0.0,0.0,0.0,0.0,0.0,0.0,0.0,2.9292,3.0817,3.1952,3.2851,3.3711,3.4609,3.3437,3.2695,3.3008,0.0,0.0,0.0,0.0,0.0,0.0,0.0,0.0,0.0,0.0,3.2658,3.3721,3.4789,3.5481,3.5775,3.4615,3.3558,3.2643,3.121,3.0586,0.0,0.0,0.0,0.0,0.0,0.0,0.0,0.0,0.0,0.0,0.0,0.0,0.0,0.0,0.0,0.0,0.0,0.0,0.0,4.4601,5.0713,5.7178,5.9069,6.1863,6.3619,6.0928,5.701,5.3024,4.9879,4.5395,4.1673,4.0974,4.0421,4.0213,4.0674,4.0759,4.1725,4.4601,4.5258,4.6612,5.0016,5.3652,5.7666,6.2259,6.9413,7.4467,7.5847,7.7483,7.8346,7.8138,7.8777,7.93,7.9489,7.8731,7.8062,7.7556,7.6611,7.5533,7.4253,7.4216,7.393,7.3398,7.3398,7.3101,7.2581,7.2321,7.1552,7.0475,7.0215,7.0078,7.0004,6.9187,6.9187,6.9558,6.8208,6.8023,6.8333,6.6887,6.6344,6.6208,0.0,0.0,0.0,0.0,0.0,0.0,0.0,2.8201,2.9413,3.0312,3.1172,3.2226,3.3594,3.2539,3.2031,3.2851,0.0,0.0,0.0,0.0,0.0,0.0,0.0,0.0,0.0,3.1645,3.2861,3.452,3.5603,3.661,3.7429,3.6355,3.5046,3.3538,3.2145,3.1178,0.0,0.0,0.0,0.0,0.0,0.0,3.4737,0.0,0.0,0.0,0.0,0.0,0.0,0.0,0.0,0.0,0.0,0.0,0.0,0.0,4.482,4.9176,5.2476,5.5541,5.7294,5.5151,5.2526,0.0,4.7157,4.3723,4.0975,4.0446,3.9958,3.9776,4.0209,4.052,4.1571,4.402,4.4671,4.5863,4.8817,5.2398,5.6914,6.2675,7.0165,7.4765,7.4479,7.6401,7.7534,7.721,7.7841,7.8316,7.8529,7.7757,7.7366,7.7528,7.6258,7.5031,7.3927,7.3438,7.2964,7.2444,7.2444,7.2035,7.1255,7.1255,7.0512,6.9224,6.9224,6.9224,0.0,6.8704,6.8778,6.9113,6.7837,6.759,6.7764,6.606,6.5395,6.5199,0.0,0.0,0.0,0.0,0.0,0.0,0.0,0.0,0.0,0.0,3.0273,3.1133,3.1992,3.1367,3.1211,0.0,0.0,0.0,0.0,0.0,0.0,0.0,0.0,0.0,0.0,3.1579,3.2804,3.4473,3.6172,3.7483,3.8367,3.8367,3.7019,3.4549,3.361,3.2217,0.0,0.0,0.0,0.0,0.0,0.0,0.0,0.0,0.0,0.0,0.0,0.0,0.0,0.0,0.0,0.0,0.0,0.0,0.0,0.0,0.0,0.0,0.0,5.0323,5.2575,5.0893,4.9287,4.7452,4.499,4.2513,0.0,3.9671,3.9392,3.9376,3.947,4.0101,4.1003,4.2157,4.2981,4.4675,4.8191,5.2536,5.7776,6.4307,6.9467,7.2158,7.1302,7.4961,7.7098,7.6347,7.6106,7.6263,7.6939,7.5847,7.562,7.6632,7.4816,7.3521,7.286,7.1689,7.097,7.0821,7.0821,7.0375,6.9595,6.9558,6.9113,6.8407,6.8333,6.8296,6.8333,6.8333,6.8333,6.8221,6.7404,6.7072,6.6814,6.5099,6.4472,6.4278,0.0,0.0,0.0,0.0,0.0,0.0,0.0,0.0,0.0,0.0,0.0,3.0234,3.1094,3.1016,0.0,0.0,0.0,0.0,0.0,0.0,0.0,0.0,0.0,0.0,0.0,3.1526,3.273,3.4424,3.6759,3.8682,4.0191,4.0191,3.8798,3.6245,3.4775,3.2803,0.0,0.0,0.0,0.0,0.0,0.0,0.0,0.0,0.0,0.0,3.4156,3.4665,0.0,0.0,0.0,0.0,0.0,0.0,0.0,0.0,3.9441,4.0061,3.9877,0.0,4.3699,4.2031,4.0819,3.9841,0.0,3.8022,3.7412,3.8385,3.8067,3.8181,4.0126,4.0107,4.1113,4.522,4.6063,4.7378,5.0828,5.725,6.2888,6.6474,7.0833,7.2959,7.1435,7.3938,7.5589,7.5359,7.6202,7.6785,7.692,7.6826,7.661,7.6259,7.3565,7.2534,7.3242,7.2967,7.1849,6.9967,6.9967,6.9558,6.8741,6.8134,6.7763,6.7577,6.6945,6.6601,6.6505,6.6505,6.6505,6.6431,6.5458,6.552,6.5975,6.4057,6.3775,6.4267,0.0,0.0,0.0,0.0,0.0,0.0,0.0,0.0,0.0,0.0,0.0,0.0,0.0,0.0,0.0,0.0,0.0,0.0,0.0,0.0,0.0,0.0,0.0,0.0,3.0711,3.1501,3.2934,3.5013,3.6748,3.8876,4.1351,4.1351,3.9959,3.7361,3.4505,3.2222,0.0,0.0,0.0,0.0,3.3305,0.0,0.0,0.0,0.0,0.0,3.3189,3.3731,0.0,3.5897,3.6593,3.7058,0.0,0.0,0.0,0.0,3.8528,3.8734,3.7913,3.9613,4.1213,3.9608,3.8828,3.8476,3.8432,3.7133,3.6132,3.6982,3.7086,3.7652,3.9789,4.0158,4.1396,4.5297,4.6598,4.8988,5.4323,6.0064,6.4919,6.8236,7.1059,7.2645,7.2491,7.4054,7.5024,7.4987,7.6002,7.6592,7.654,7.6126,7.5418,7.4332,7.2175,7.1343,7.2022,7.071,6.9546,6.8593,6.8221,6.7837,6.7391,6.6513,6.6165,6.6105,6.5612,6.5602,6.5901,6.5816,6.5828,6.5693,6.477,6.4709,6.4992,6.353,6.353,6.4117,0.0,0.0,0.0,0.0,0.0,0.0,0.0,0.0,0.0,0.0,0.0,0.0,0.0,0.0,0.0,0.0,0.0,0.0,0.0,0.0,0.0,0.0,0.0,3.0897,3.1086,3.1601,3.3154,3.5704,3.6903,3.903,4.2009,4.2396,4.0965,3.7825,3.3648,3.1366,0.0,0.0,0.0,0.0,3.2333,0.0,0.0,0.0,0.0,0.0,0.0,0.0,0.0,3.5046,3.5858,3.6632,3.7406,0.0,0.0,0.0,0.0,0.0,3.7955,4.0061,4.1766,3.9802,3.9414,3.9414,3.918,0.0,0.0,0.0,0.0,0.0,3.9586,4.0712,4.2241,4.4949,4.7202,5.109,5.8094,6.1872,6.5228,6.8826,7.0208,7.1446,7.28,7.3825,7.4524,7.4782,7.5414,7.5837,7.5884,7.4551,7.3254,7.2034,7.055,6.9745,6.9738,6.744,6.65,6.6908,6.6239,6.5905,6.5868,6.5013,6.4656,6.4805,6.454,6.4827,6.547,6.5324,6.5275,6.5238,6.4623,6.4255,6.4021,6.3383,6.3492,6.3796,0.0,0.0,0.0,0.0,0.0,0.0,0.0,0.0,0.0,0.0,0.0,0.0,0.0,0.0,0.0,0.0,0.0,0.0,0.0,0.0,0.0,0.0,3.0737,3.1354,3.2799,3.2176,3.3088,3.5704,3.8727,4.081,4.2048,4.4259,4.2357,3.6942,3.3378,3.1366,3.0598,0.0,0.0,0.0,3.1908,0.0,0.0,0.0,0.0,0.0,0.0,0.0,0.0,3.3455,3.4079,3.4819,3.4935,0.0,0.0,0.0,0.0,0.0,3.6164,3.9171,4.1381,3.7536,3.7148,3.7305,3.582,3.5697,0.0,0.0,0.0,0.0,4.1388,4.2968,4.5104,4.8392,5.2754,5.7164,6.1225,6.3516,6.5035,6.5682,6.7771,6.9009,6.8545,7.0463,7.2375,7.3781,7.3947,7.4266,7.4875,7.3054,7.1752,7.1181,6.8631,6.7085,6.6765,6.7006,6.6462,6.5176,6.5065,6.499,6.4953,6.4159,6.4136,6.473,6.3947,6.3608,6.3625,6.3468,6.3395,6.3469,6.3934,6.3775,6.326,6.3762,6.3564,6.3099,0.0,0.0,0.0,0.0,0.0,0.0,0.0,0.0,0.0,0.0,0.0,0.0,0.0,0.0,0.0,0.0,0.0,0.0,0.0,0.0,0.0,3.1423,3.1849,3.2428,3.3165,3.3664,3.5394,3.8456,4.0926,4.2783,4.402,4.2944,4.0236,3.6129,3.3146,3.1366,3.0598,3.0598,0.0,0.0,0.0,0.0,0.0,0.0,0.0,0.0,0.0,0.0,0.0,0.0,3.3305,3.4316,3.3847,0.0,0.0,0.0,0.0,0.0,3.5012,3.7281,3.9185,3.7772,3.875,3.9726,3.8476,3.8124,3.8158,0.0,0.0,0.0,4.3208,4.5219,4.8392,5.3652,5.7637,6.0925,6.3439,6.4483,6.5334,6.6224,6.6959,6.7617,6.8158,7.0004,7.149,7.2225,7.3085,7.3479,7.336,7.1367,6.9654,6.8355,6.5973,6.4495,6.4085,6.4493,6.4493,6.4159,6.3691,6.3527,6.349,6.2673,6.2747,6.3468,6.2877,6.2872,6.3171,6.2978,6.3186,6.3739,6.4019,6.3934,6.3739,6.3994,6.3833,6.3576,0.0,0.0,0.0,0.0,0.0,0.0,0.0,0.0,0.0,0.0,0.0,0.0,0.0,0.0,0.0,0.0,0.0,0.0,0.0,0.0,3.1031,3.1637,3.2446,3.3343,3.4335,3.5625,3.787,4.1087,4.2783,4.4175,4.5142,4.128,3.803,3.5284,3.288,3.1328,3.0588,3.0588,3.0588,0.0,0.0,0.0,0.0,0.0,0.0,0.0,0.0,0.0,0.0,0.0,0.0,0.0,0.0,0.0,0.0,3.3726,3.333,3.3188,3.4508,3.6005,3.7327,3.785,3.9766,4.1601,4.1992,4.1406,4.1055,0.0,0.0,4.4656,4.5726,4.8254,5.2245,5.8484,6.1658,6.3864,6.5374,6.5596,6.6012,6.7095,6.6621,6.6804,6.8352,6.9722,7.0616,7.0797,7.1955,7.2336,7.1629,6.9451,6.7518,6.6041,6.3842,6.2677,6.2673,6.2301,6.2524,6.3305,6.271,6.2301,6.2116,6.1484,6.1633,6.2391,6.2151,6.259,6.3466,6.3223,6.3676,6.4586,6.4669,6.4768,6.4806,6.4508,6.4237,6.4115,0.0,0.0,0.0,0.0,0.0,0.0,0.0,0.0,0.0,0.0,0.0,0.0,0.0,0.0,0.0,0.0,0.0,0.0,0.0,0.0,3.0727,3.0711,3.1515,3.3843,3.776,3.7947,3.9301,4.1893,4.3634,4.4136,4.344,4.0739,3.7721,3.4394,3.2609,3.1313,3.0515,3.0515,3.0515,3.0515,0.0,0.0,0.0,0.0,0.0,0.0,0.0,0.0,0.0,0.0,0.0,0.0,0.0,0.0,3.2449,3.4814,3.3838,3.2527,3.5039,3.6428,3.7053,3.6364,3.7539,3.9883,4.3826,4.406,4.4566,4.8546,0.0,0.0,4.9637,5.2819,5.7024,6.1475,6.439,6.6406,6.7298,6.7416,6.7155,6.6458,6.6293,6.6572,6.7501,6.8365,6.9197,6.9948,7.0028,7.0003,6.9898,6.7122,6.5677,6.5985,6.3257,6.2375,6.349,6.2041,6.1707,6.2487,6.245,6.2004,6.1298,6.1224,6.1633,6.2391,6.2242,6.2993,6.4278,6.4168,6.4634,6.5506,6.6243,6.6537,6.6427,6.5537,6.4751,6.4115,0.0,0.0,0.0,0.0,0.0,0.0,0.0,0.0,0.0,0.0,0.0,0.0,0.0,0.0,0.0,0.0,0.0,0.0,0.0,0.0,3.0877,3.1394,3.2206,3.3911,3.6593,3.8179,4.0204,4.2686,4.3342,4.3262,4.2434,3.934,3.6942,3.5129,3.3378,3.2434,3.2138,3.2115,3.2115,3.2138,3.2115,0.0,0.0,0.0,0.0,0.0,0.0,0.0,0.0,0.0,3.1139,3.1753,3.1599,3.1676,3.1884,3.237,3.1895,3.149,3.3063,3.4932,3.6631,3.7417,3.8903,0.0,0.0,4.6402,4.8469,5.1157,5.3545,0.0,5.5351,5.6703,5.8971,6.265,6.5041,6.688,6.8237,6.7493,6.6651,6.6341,6.5335,6.4986,6.5876,6.6636,6.7443,6.827,6.8241,6.7949,6.7423,6.5082,6.3482,6.2914,6.111,6.0541,6.1298,6.0704,6.0555,6.0853,6.0853,6.0444,5.9664,5.9664,6.0072,6.0868,6.1278,6.2063,6.3104,6.3983,6.4906,6.5829,6.6605,6.6837,6.6611,6.575,6.5246,6.4878,0.0,0.0,0.0,0.0,0.0,0.0,0.0,0.0,0.0,0.0,0.0,0.0,0.0,0.0,0.0,0.0,0.0,0.0,3.0678,3.0626,3.0862,3.1439,3.2247,3.3378,3.4853,3.7361,3.9702,4.1825,4.1825,4.1468,4.0732,3.787,3.6245,3.5626,3.387,3.3235,3.3451,3.3186,3.307,3.3109,3.3081,3.3091,0.0,0.0,0.0,0.0,0.0,0.0,0.0,0.0,3.0984,3.1366,3.1062,3.1178,3.1424,3.1437,3.0879,3.0502,3.1439,3.3185,3.5111,3.6595,0.0,0.0,4.5773,4.8623,5.1473,5.4836,5.6623,5.7931,5.8932,5.8956,5.991,6.3236,6.5511,6.7157,6.801,6.6871,6.5711,6.5169,6.3796,6.3207,6.4097,6.4879,6.5698,6.6565,6.6526,6.6225,6.5623,6.3668,6.2089,6.1017,5.9688,5.929,5.9887,5.9404,5.9404,5.9903,5.9664,5.9255,5.8698,5.8698,5.9144,5.994,6.0432,6.1367,6.2655,6.3696,6.4768,6.5901,6.6457,6.6741,6.6688,6.6171,6.5778,6.5396,0.0,0.0,0.0,0.0,0.0,0.0,0.0,0.0,0.0,0.0,0.0,0.0,0.0,0.0,0.0,0.0,0.0,0.0,3.0583,3.06,3.0598,3.0598,3.1366,3.2217,3.3068,3.5554,3.7604,3.9092,3.9085,3.8751,3.8135,3.6477,3.5704,3.5626,3.3931,3.3567,3.4268,3.3394,3.3059,3.3114,3.3043,3.3059,0.0,0.0,0.0,0.0,0.0,0.0,0.0,0.0,3.0598,3.0752,3.1521,3.1255,3.0964,3.2658,3.1407,2.9635,3.0555,3.1459,3.2339,3.3232,3.733,4.2718,4.8768,5.0798,5.3347,6.0195,5.9483,5.8125,5.9845,5.9427,5.9947,6.3439,6.6081,6.7441,6.6586,6.5669,6.4408,6.2693,6.1637,6.1427,6.2278,6.3168,6.3999,6.4788,6.4865,6.4812,6.466,6.2991,6.1723,6.0996,5.9371,5.8942,5.985,5.8289,5.8289,5.9865,5.9069,5.8698,5.8698,5.8698,5.9144,5.9903,5.9903,6.1211,6.3396,6.3396,6.4322,6.5766,6.5766,6.6211,6.6876,6.6851,6.6296,6.552,0.0,0.0,0.0,0.0,0.0,0.0,0.0,0.0,0.0,0.0,0.0,0.0,0.0,0.0,0.0,0.0,0.0,0.0,3.0591,3.0612,3.0598,3.0598,3.1366,3.1937,3.2187,3.3359,3.5409,3.84,3.713,3.6779,3.7261,3.6195,3.6002,3.6526,3.6012,3.5558,3.5136,3.4928,3.4812,3.4788,3.4824,3.4836,3.483,0.0,0.0,0.0,0.0,0.0,0.0,0.0,0.0,0.0,3.0819,3.1183,3.1486,3.1478,3.1379,3.1348,3.1649,3.3261,3.5335,3.7402,4.1345,4.603,0.0,5.2589,0.0,0.0,6.1283,6.0161,6.2352,6.1585,6.1165,6.2742,6.3697,6.4139,6.3867,6.3022,6.2003,6.0879,5.9904,5.9687,6.0576,6.0886,6.1621,6.3023,6.1988,6.1533,6.2081,6.0415,5.9211,5.8748,5.803,5.7649,5.766,5.698,5.7175,5.8215,5.7992,5.8141,5.8698,5.8698,5.9144,5.9903,5.9903,6.0645,6.1901,6.2458,6.3311,6.4239,6.4239,6.4318,6.452,6.5051,6.5101,6.4879,0.0,0.0,0.0,0.0,0.0,0.0,0.0,0.0,0.0,0.0,0.0,0.0,0.0,0.0,0.0,0.0,0.0,0.0,0.0,3.0607,3.0752,3.1062,3.155,3.195,3.226,3.2641,3.3865,3.601,3.521,3.5161,3.5879,3.6045,3.6586,3.734,3.7019,3.673,3.6473,3.583,3.5554,3.5554,3.554,3.5584,3.5501,0.0,0.0,0.0,0.0,0.0,0.0,0.0,0.0,0.0,3.049,3.0907,3.1231,3.04,3.0377,3.0615,3.0995,3.299,3.5836,3.9429,4.3606,4.8135,5.3093,5.5684,5.8279,6.2666,6.1816,6.0898,6.3026,6.2027,6.1179,6.2012,6.2454,6.2352,6.1303,6.0655,5.9824,5.863,5.7929,5.7907,5.8797,5.8874,5.9571,6.1273,6.0123,5.9679,6.0461,5.9166,5.8033,5.7341,5.7128,5.6777,5.6231,5.637,5.6664,5.7026,5.7695,5.8066,5.8252,5.8549,5.9144,5.9961,6.0608,6.1001,6.1261,6.2079,6.2628,6.3051,6.3096,6.3414,6.3867,6.448,6.4628,6.4604,0.0,0.0,0.0,0.0,0.0,0.0,0.0,0.0,0.0,0.0,0.0,0.0,0.0,0.0,0.0,0.0,0.0,0.0,0.0,0.0,3.0946,3.1753,3.1955,3.2381,3.3106,3.3017,3.2961,3.2891,3.3527,3.3991,3.4338,3.6029,3.7186,3.7848,3.7115,3.7153,3.7649,3.5964,3.5316,3.5335,3.531,3.5316,3.518,3.3599,0.0,0.0,0.0,0.0,0.0,0.0,0.0,0.0,3.0474,3.0593,3.0564,2.9761,2.9004,2.8665,2.9783,3.1738,3.4821,4.0211,4.509,5.0007,5.5552,5.9328,6.1795,6.2547,6.1478,6.0926,6.2535,6.1381,6.0487,6.1257,6.1886,6.1381,5.8933,5.8443,5.7769,5.6141,5.5907,5.6167,5.6893,5.7086,5.783,5.9416,5.8797,5.8702,5.9544,5.8761,5.7734,5.6561,5.6485,5.6168,5.5437,5.6118,5.6407,5.632,5.7769,5.8178,5.7621,5.8364,5.9144,5.9977,6.1596,6.1893,6.1261,6.2004,6.2235,6.2108,6.2146,6.2983,6.4129,6.4401,6.4438,6.4419,0.0,0.0,0.0,0.0,0.0,0.0,0.0,0.0,0.0,0.0,0.0,0.0,0.0,0.0,0.0,0.0,0.0,0.0,0.0,0.0,3.0946,3.1753,3.3054,3.3836,3.4023,3.3319,3.2897,3.2891,3.309,3.3538,3.4263,3.5978,3.6518,3.6081,3.6568,3.6131,3.4963,3.3968,3.35,3.3493,3.3512,3.3512,3.3455,3.307,3.2543,0.0,0.0,0.0,0.0,0.0,0.0,0.0,3.0414,3.0975,3.146,3.0577,3.0307,3.0717,3.2986,3.4003,3.615,4.3372,5.0438,5.6138,5.8128,6.0165,6.1711,6.1772,6.202,6.2555,6.3527,6.2313,6.1179,6.1373,5.9865,5.8279,5.6991,5.6192,5.5327,5.428,5.4668,5.4851,5.4387,5.5509,5.6437,5.6824,5.667,5.6932,5.7773,5.7003,5.6406,5.6145,5.5773,5.5401,5.5019,5.4877,5.5322,5.632,5.6655,5.7398,5.8475,5.8624,5.9144,5.994,6.1001,6.1373,6.1224,6.141,6.1425,6.1329,6.0682,6.1032,6.1879,6.1945,6.2354,6.294,0.0,0.0,0.0,0.0,0.0,0.0,0.0,0.0,0.0,0.0,0.0,0.0,0.0,0.0,0.0,0.0,0.0,0.0,0.0,0.0,0.0,3.1772,3.3004,3.3483,3.3047,3.2954,3.2891,3.2891,3.3333,3.3994,0.0,0.0,3.7357,3.7312,3.6927,3.6258,3.5276,3.3641,3.2948,3.2891,3.2948,3.2948,3.2852,3.2468,3.2057,3.1646,3.1222,0.0,0.0,0.0,0.0,0.0,0.0,0.0,3.1092,3.0245,3.0068,3.0562,3.2362,3.4354,3.7985,4.6612,5.2702,5.6918,5.8207,5.9509,6.0427,6.0327,6.1015,6.1722,6.2057,6.107,6.0021,5.9632,5.8117,5.6531,5.5249,5.4601,5.3931,5.3078,5.3708,5.4,5.3536,5.4271,5.4813,5.4813,5.4813,5.5006,5.547,5.5445,5.5418,5.54,5.5545,5.5278,5.4522,5.4928,5.4999,5.4727,5.6176,5.7509,5.8735,5.9107,5.9738,6.0593,6.141,6.1558,6.1224,6.1633,6.1255,6.0506,6.0942,6.1329,6.1693,6.1759,6.2041,6.2391,0.0,0.0,0.0,0.0,0.0,0.0,0.0,0.0,0.0,0.0,0.0,0.0,0.0,0.0,0.0,0.0,0.0,0.0,0.0,0.0,0.0,3.1757,3.2579,3.2673,3.195,3.2409,3.2814,3.3122,3.3705,0.0,0.0,0.0,0.0,3.9015,0.0,3.6538,3.6122,3.3699,3.2622,3.2468,3.2468,3.2468,3.2391,3.1737,3.1468,3.1385,3.0648,3.0379,3.0373,3.0304,0.0,0.0,0.0,0.0,3.0415,2.9749,2.9499,2.973,3.0914,3.4743,4.0366,4.8486,5.2819,5.5513,5.7192,5.8272,5.8905,5.8996,5.9568,6.0035,5.9918,5.9166,5.8311,5.7502,5.6531,5.5281,5.3682,5.3313,5.2884,5.214,5.2771,5.3227,5.3072,5.3304,5.342,5.3304,5.342,5.3498,5.3498,5.4194,5.4564,5.4482,5.5323,5.518,5.3908,5.5143,5.4913,5.3249,5.6125,5.7843,5.8512,5.9329,6.0184,6.1001,6.167,6.167,6.1261,6.193,6.1307,6.0092,6.144,6.1901,6.1834,6.2109,6.2094,6.1886,0.0,0.0,0.0,0.0,0.0,0.0,0.0,0.0,0.0,0.0,0.0,0.0,0.0,0.0,0.0,0.0,0.0,0.0,3.0612,0.0,0.0,3.1787,3.2552,3.2949,3.2833,3.2191,3.2583,3.4013,0.0,0.0,0.0,0.0,0.0,3.8123,0.0,0.0,3.4436,3.2622,3.1423,3.0731,3.0731,3.0731,3.0731,3.0615,0.0,3.0533,3.0399,3.031,3.0304,3.0311,3.0299,0.0,0.0,0.0,3.0443,3.041,2.9956,2.9954,3.2384,3.7864,4.3528,4.63,5.0594,5.4615,5.6372,5.7375,5.8163,5.8879,5.9066,5.9065,5.9005,5.8311,5.7463,5.6602,5.5132,5.3682,5.2719,5.1935,5.1358,5.1175,5.1866,5.2066,5.1323,5.2608,5.3188,5.2422,5.3072,5.3498,5.3498,5.3614,5.3652,5.3644,5.4452,5.4304,5.3073,5.3922,5.4296,5.4149,5.6423,5.7583,5.7695,5.8512,5.9292,6.0088,6.0184,6.0593,6.1224,6.1336,6.1202,6.0942,6.0422,6.02,6.0311,6.1076,6.0862,6.0307,0.0,0.0,0.0,0.0,0.0,0.0,0.0,0.0,0.0,0.0,0.0,0.0,0.0,0.0,0.0,3.0598,3.0616,3.0621,3.0598,3.0482,3.0636,3.1101,3.1437,3.1604,3.1604,3.1657,3.2045,3.2814,0.0,0.0,0.0,3.9123,3.9931,0.0,0.0,0.0,0.0,0.0,3.1192,3.0385,3.0385,3.0385,3.0385,0.0,0.0,0.0,0.0,0.0,3.0311,3.0273,3.0253,3.0253,3.024,0.0,0.0,0.0,3.0358,3.0709,3.3393,3.6337,3.9776,4.4424,4.7276,4.993,5.3561,5.4647,5.5142,5.5986,5.6059,5.6447,5.7858,5.7029,5.6019,5.5631,5.4116,5.2822,5.2434,5.1664,5.1087,5.1012,5.1277,5.1331,5.0937,5.1594,5.1873,5.1486,5.1834,5.2028,5.2028,5.2492,5.2995,5.3459,5.4332,5.4476,5.3877,5.4035,5.4188,5.43,5.5081,5.5912,5.684,5.7658,5.8735,5.9903,5.9903,6.0147,6.0518,6.1001,6.0667,5.985,6.0407,6.063,6.0667,6.1076,6.1196,6.11,0.0,0.0,0.0,0.0,0.0,0.0,0.0,0.0,0.0,0.0,0.0,0.0,0.0,0.0,0.0,0.0,3.0598,3.052,3.0288,2.9669,2.9592,3.024,3.0433,3.0479,3.0474,3.1074,3.1468,0.0,0.0,0.0,3.8046,3.9515,4.1239,0.0,4.0423,0.0,0.0,0.0,0.0,0.0,0.0,0.0,0.0,0.0,0.0,0.0,0.0,0.0,0.0,0.0,0.0,3.0213,3.0192,3.0241,0.0,0.0,0.0,3.1145,3.3158,3.4184,3.5985,4.1378,4.3533,4.553,5.0022,5.1326,5.1904,5.2999,5.313,5.3656,5.5598,5.5242,5.4582,5.4388,5.3255,5.2304,5.2111,5.1495,5.1034,5.0998,5.0921,5.0898,5.0898,5.0898,5.0898,5.0898,5.0898,5.0882,5.0841,5.1421,5.2202,5.3044,5.3894,5.4339,5.4255,5.3832,5.3691,5.3779,5.3794,5.4574,5.5986,5.684,5.7955,5.9292,5.9515,5.9627,5.9664,6.0295,5.985,5.8846,6.0072,6.0704,6.089,6.1069,6.1448,6.1647,0.0,0.0,0.0,0.0,0.0,0.0,0.0,0.0,0.0,0.0,0.0,0.0,3.0482,3.0598,3.0598,3.0598,3.0598,3.025,2.9399,2.9326,2.9312,2.9361,3.007,0.0,3.0398,3.0441,3.0885,0.0,0.0,0.0,3.8007,3.8931,4.0684,4.2996,4.2876,4.0546,3.6615,0.0,0.0,0.0,0.0,0.0,0.0,0.0,0.0,0.0,0.0,0.0,0.0,0.0,0.0,0.0,0.0,0.0,3.0331,0.0,0.0,0.0,3.0971,3.2815,3.4968,3.6186,3.9525,4.3242,4.5937,4.7746,4.9386,5.0988,5.1332,5.1358,5.1513,5.2756,5.35,5.2678,5.246,5.2111,5.1262,5.1073,5.099,5.0906,5.0898,5.0898,5.0898,5.0898,5.0898,5.0898,5.0898,5.0833,5.0616,5.0645,5.1029,5.1876,5.2733,5.3234,5.3367,5.2729,5.2357,5.2309,5.3304,5.424,5.5094,5.5986,5.684,5.7695,5.8438,5.8772,5.8772,5.8809,5.8772,5.8735,5.8809,5.9292,6.0051,6.0759,6.0944,6.0831,0.0,0.0,0.0,0.0,0.0,0.0,0.0,0.0,0.0,0.0,0.0,0.0,0.0,3.025,3.0366,2.9824,2.9248,2.9055,2.9287,2.8784,2.8964,3.0013,3.0341,3.0469,3.0398,3.0402,0.0,0.0,0.0,3.3314,3.5584,3.7546,3.8639,3.8992,4.0122,3.9415,3.731,3.4808,0.0,0.0,0.0,0.0,0.0,0.0,0.0,0.0,0.0,0.0,0.0,0.0,0.0,0.0,0.0,0.0,0.0,0.0,0.0,3.0793,3.0813,3.1484,3.2661,3.4664,3.6323,3.8281,4.1367,4.3801,4.5676,4.6852,4.837,4.9526,4.9547,5.044,5.1101,5.079,5.0254,4.9789,4.9477,4.9424,4.9364,4.9281,4.932,4.932,4.932,4.932,4.9513,5.0094,4.9989,5.0085,5.0558,5.0455,5.0725,5.1579,5.1526,5.1838,5.2509,5.1484,5.1459,5.2513,5.2532,5.2948,5.3771,5.4931,5.5614,5.5949,5.6803,5.7769,5.8698,5.8698,5.8698,5.8677,5.8614,5.9409,6.0611,6.0796,6.1459,6.2153,0.0,0.0,0.0,0.0,0.0,0.0,0.0,0.0,0.0,0.0,0.0,0.0,0.0,0.0,3.0366,2.9785,2.8939,2.8668,2.9248,2.8745,2.8925,3.0052,3.0341,3.0469,3.0398,3.0402,0.0,0.0,0.0,0.0,0.0,3.5815,3.6563,3.6296,3.7133,3.7494,0.0,0.0,0.0,3.3429,0.0,0.0,3.1945,0.0,0.0,0.0,0.0,0.0,0.0,0.0,0.0,0.0,0.0,0.0,0.0,0.0,0.0,0.0,3.0457,0.0,0.0,3.2943,3.3825,3.4998,3.785,4.0192,4.2093,4.3268,4.5312,4.6957,4.7239,4.7732,4.8386,4.9207,4.8865,4.8515,4.8488,4.843,4.8346,4.8314,4.8227,4.8184,4.8184,4.8184,4.8441,4.9117,4.8913,4.9027,4.9603,4.9389,4.9642,5.0493,5.0538,5.1,5.1953,5.1081,5.1341,5.2704,5.2483,5.2629,5.3024,5.424,5.4838,5.5057,5.5614,5.6803,5.8326,5.8326,5.8454,5.8635,5.8513,5.9322,6.0537,6.066,6.1527,6.2523,0.0,0.0,0.0,0.0,0.0,0.0,0.0,0.0,0.0,0.0,0.0,0.0,0.0,0.0,0.0,3.0636,2.9824,2.9321,2.9321,2.9321,2.9308,2.9318,3.007,3.0469,3.0398,0.0,0.0,0.0,0.0,0.0,0.0,0.0,3.4525,3.5252,3.4417,3.4978,3.6504,0.0,3.6005,3.5032,0.0,3.1315,3.3027,0.0,0.0,0.0,3.6214,3.5946,0.0,3.331,0.0,0.0,0.0,0.0,0.0,0.0,0.0,0.0,0.0,0.0,0.0,0.0,3.2031,3.3685,3.5363,3.7046,3.8736,4.0364,4.2151,4.3617,4.4406,4.4566,4.5401,4.7882,4.8353,4.8403,4.841,4.8205,4.8018,4.8018,4.7806,4.7641,4.7641,4.7641,4.7726,4.8038,4.7785,4.7657,4.7685,4.749,4.7745,4.8491,4.9733,5.0762,5.1617,5.1511,5.1849,5.2716,5.3332,5.3407,5.3057,5.3921,5.4537,5.5002,5.4983,5.5912,5.7472,5.7509,5.7893,5.8492,5.8471,5.8924,5.9663,6.0301,6.1064,6.18,0.0,0.0,0.0,0.0,0.0,0.0,0.0,0.0,0.0,0.0,0.0,0.0,2.9708,3.0211,3.083,3.1405,3.0656,3.0178,3.0178,2.9588,2.9486,3.0072,3.0298,3.0431,3.0396,0.0,0.0,0.0,0.0,0.0,0.0,0.0,0.0,0.0,3.3056,3.3444,3.3815,3.3127,0.0,3.5865,3.2485,3.3249,0.0,0.0,0.0,0.0,0.0,3.6311,3.5827,0.0,3.3447,3.3043,0.0,0.0,0.0,0.0,0.0,0.0,3.0525,0.0,0.0,0.0,0.0,0.0,3.2087,3.3971,3.5706,3.6168,3.8654,4.0815,4.0959,4.1491,4.2288,4.3595,4.4853,4.5891,4.6479,4.6367,4.621,4.621,4.6032,4.5899,4.5899,4.5899,4.6199,4.6873,4.6694,4.682,4.744,4.7232,4.7013,4.6822,4.7074,4.8117,4.9869,4.9795,5.0878,5.3059,5.3619,5.3834,5.374,5.4097,5.4378,5.4497,5.4242,5.5094,5.6692,5.7249,5.7559,5.7656,5.8221,5.8851,5.9476,5.9559,6.0467,6.1643,0.0,0.0,0.0,0.0,0.0,0.0,0.0,0.0,0.0,0.0,0.0,0.0,3.0946,3.1642,3.2222,3.2333,3.154,3.1023,3.1023,3.023,2.9934,3.0419,3.0403,3.0386,3.0408,0.0,0.0,0.0,0.0,0.0,0.0,0.0,0.0,0.0,0.0,0.0,0.0,0.0,0.0,0.0,3.3165,0.0,0.0,3.6375,3.7139,0.0,0.0,0.0,3.8173,3.5832,3.4557,0.0,0.0,0.0,0.0,0.0,0.0,0.0,0.0,0.0,0.0,0.0,0.0,0.0,3.0807,3.1917,3.3025,3.3371,3.5352,3.732,3.8321,3.8583,3.9066,4.0215,4.128,4.2705,4.4987,4.5021,4.4968,4.5314,4.5115,4.4898,4.4898,4.4992,4.5295,4.5889,4.5807,4.5908,4.6304,4.6091,4.5806,4.5455,4.5469,4.6442,4.8392,4.877,5.0041,5.2103,5.3433,5.3873,5.3505,5.4193,5.443,5.4262,5.3963,5.4535,5.5758,5.6574,5.7254,5.7814,5.8186,5.8518,5.8883,5.9488,6.0309,6.119,0.0,0.0,0.0,0.0,0.0,0.0,0.0,0.0,0.0,0.0,3.2914,3.3455,0.0,0.0,0.0,0.0,3.2545,3.1911,3.1911,3.1035,3.0474,0.0,0.0,0.0,0.0,0.0,0.0,0.0,0.0,0.0,0.0,0.0,0.0,0.0,0.0,0.0,0.0,0.0,0.0,3.2523,3.3593,3.5152,0.0,0.0,3.9976,4.1266,4.0654,4.0836,4.0874,3.7695,3.5392,0.0,0.0,0.0,0.0,0.0,3.1486,0.0,0.0,0.0,0.0,0.0,0.0,0.0,3.0853,3.0882,3.1135,3.1739,3.2555,3.3829,3.6012,3.5878,3.597,3.7644,3.7926,3.9379,4.3595,4.3897,4.395,4.4819,4.4524,4.4312,4.4387,4.4575,4.4832,4.5191,4.5201,4.5066,4.4812,4.4635,4.4524,4.4482,4.4672,4.552,4.7136,4.8251,4.9346,5.0521,5.292,5.3651,5.29,5.4147,5.4549,5.423,5.398,5.4277,5.4996,5.5788,5.6927,5.826,5.8223,5.8184,5.8327,5.9758,6.0382,6.075,0.0,0.0,0.0,0.0,0.0,0.0,0.0,0.0,0.0,0.0,3.5085,3.5704,0.0,0.0,0.0,0.0,3.4075,3.2767,3.2767,3.1289,3.0402,3.0402,0.0,0.0,0.0,0.0,0.0,0.0,0.0,0.0,0.0,0.0,0.0,0.0,0.0,0.0,0.0,0.0,0.0,3.0956,3.3111,0.0,3.9508,3.9209,3.9697,4.0616,4.1074,4.0941,4.0139,3.8146,3.5063,3.2249,0.0,0.0,0.0,0.0,0.0,0.0,0.0,0.0,0.0,0.0,0.0,0.0,3.1284,3.1845,3.2423,3.1216,3.1661,3.2388,3.283,3.3331,3.4249,3.5906,3.6206,3.7434,4.1048,4.1879,4.238,4.3109,4.2921,4.3011,4.3705,4.3791,4.4197,4.5152,4.5201,4.5066,4.4812,4.4739,4.4687,4.4496,4.4524,4.5098,4.624,4.7793,4.9213,5.0521,5.2352,5.3212,5.3251,5.3908,5.418,5.4061,5.4161,5.461,5.5324,5.5754,5.6467,5.7317,5.7958,5.8515,5.9001,5.9294,6.0272,6.141,0.0,0.0,0.0,0.0,0.0,0.0,0.0,0.0,0.0,0.0,0.0,0.0,0.0,0.0,0.0,0.0,0.0,0.0,0.0,0.0,0.0,0.0,0.0,0.0,0.0,0.0,0.0,0.0,0.0,0.0,0.0,0.0,0.0,0.0,0.0,0.0,0.0,0.0,3.1597,3.1743,3.3815,0.0,3.7891,3.8741,3.9564,4.0339,4.0769,4.0062,3.8717,3.7113,3.5163,0.0,0.0,3.2443,3.2395,0.0,3.2109,3.2109,0.0,0.0,0.0,3.2119,0.0,0.0,0.0,3.1072,3.1341,3.1333,3.0648,3.0567,3.2268,3.1907,3.1852,3.3542,3.3785,3.4695,3.724,3.921,4.0674,4.1471,4.1269,4.1404,4.2276,4.2449,4.3003,4.4175,4.4526,4.4624,4.4513,4.4703,4.4838,4.4838,4.4608,4.4807,4.5395,4.6965,4.8172,4.8964,5.1147,5.2318,5.2546,5.361,5.4077,5.404,5.4353,5.4798,5.5341,5.5857,5.642,5.6985,5.7794,5.83,5.8694,5.9501,6.0309,6.1117,0.0,0.0,0.0,0.0,0.0,0.0,0.0,0.0,0.0,0.0,0.0,0.0,0.0,0.0,0.0,0.0,0.0,0.0,0.0,0.0,0.0,0.0,0.0,3.0808,0.0,0.0,0.0,0.0,0.0,0.0,0.0,0.0,0.0,0.0,0.0,0.0,0.0,0.0,0.0,3.3175,0.0,3.5369,3.5782,3.812,3.9441,4.0034,4.0034,3.8935,3.7271,3.6013,3.5324,3.4573,3.2285,3.2589,0.0,0.0,0.0,0.0,0.0,0.0,0.0,0.0,0.0,3.1783,0.0,0.0,0.0,3.1544,3.0075,2.9521,3.2516,3.1336,3.0389,3.1907,3.2301,3.2817,3.4013,3.6517,3.8561,3.9562,3.9251,3.9416,4.0631,4.1065,4.1706,4.2724,4.3404,4.3849,4.397,4.4374,4.4791,4.5088,4.4726,4.4595,4.4788,4.6156,4.713,4.7793,5.0109,5.1496,5.2071,5.3541,5.4161,5.4103,5.461,5.4915,5.5187,5.6071,5.652,5.675,5.7675,5.8107,5.84,5.9869,6.0493,6.086,3.1976,3.273,0.0,0.0,0.0,0.0,0.0,0.0,0.0,0.0,0.0,0.0,0.0,0.0,0.0,0.0,0.0,0.0,3.7603,0.0,0.0,0.0,0.0,0.0,3.1583,0.0,0.0,0.0,0.0,0.0,0.0,0.0,0.0,0.0,3.1,0.0,0.0,0.0,3.2558,0.0,3.4939,3.5745,0.0,3.8393,3.9094,3.9164,3.9164,3.8047,3.6596,0.0,3.539,3.4221,0.0,3.3615,3.2445,3.4685,0.0,0.0,0.0,0.0,0.0,0.0,3.4883,0.0,0.0,0.0,3.2488,3.1142,0.0,3.0768,3.193,0.0,0.0,3.2912,3.3684,3.3986,3.3416,3.4328,3.5527,3.6853,3.6365,3.6842,3.9199,4.0289,4.0933,4.1081,4.1803,4.25,4.3115,4.3704,4.4271,4.4849,4.4621,4.4595,4.4788,4.571,4.7182,4.9115,5.0201,5.153,5.3137,5.4121,5.4465,5.438,5.4919,5.5071,5.5034,5.6304,5.6556,5.629,5.753,5.8437,5.9148,6.0089,6.086,6.1594,3.1348,3.2877,0.0,0.0,0.0,0.0,0.0,0.0,0.0,0.0,0.0,0.0,0.0,0.0,0.0,0.0,0.0,3.8574,0.0,0.0,0.0,0.0,0.0,0.0,0.0,0.0,0.0,0.0,3.2314,0.0,0.0,0.0,0.0,0.0,3.05,0.0,3.1281,0.0,3.2795,0.0,0.0,0.0,0.0,3.7143,3.7844,3.8171,3.7712,3.7092,3.6353,0.0,3.5056,0.0,0.0,0.0,0.0,0.0,0.0,0.0,0.0,0.0,0.0,0.0,0.0,0.0,3.2723,0.0,3.2653,0.0,0.0,0.0,0.0,0.0,0.0,0.0,3.3429,3.3028,3.3171,3.2654,3.3001,3.5068,3.495,3.5514,3.7546,3.8565,3.9174,3.9295,4.0539,4.1442,4.1721,4.3214,4.4239,4.4651,4.4794,4.491,4.5011,4.6321,4.7372,4.8166,5.027,5.1652,5.2372,5.3869,5.4524,5.4507,5.5104,5.5198,5.508,5.651,5.6719,5.6243,5.7746,5.8393,5.8621,5.9428,6.0236,6.1006,0.0,0.0,0.0,0.0,0.0,0.0,3.9178,4.1401,4.2569,4.1509,0.0,0.0,4.444,4.3857,0.0,0.0,4.3433,4.1606,0.0,0.0,3.6969,0.0,0.0,0.0,0.0,0.0,0.0,0.0,0.0,0.0,0.0,0.0,0.0,0.0,0.0,3.0337,3.0263,0.0,3.3166,3.3657,3.4817,3.5278,3.5345,3.6192,3.6986,3.7597,3.6787,3.6362,3.6021,3.4975,3.4961,3.5282,3.4351,3.4257,3.4461,0.0,0.0,0.0,3.4161,0.0,0.0,0.0,0.0,0.0,0.0,0.0,0.0,0.0,0.0,0.0,0.0,0.0,0.0,0.0,0.0,3.3041,3.3192,3.233,3.227,3.3897,3.4395,3.5097,3.6305,3.6947,3.7366,3.751,3.8876,3.9926,4.0429,4.2402,4.3827,4.4476,4.4873,4.5159,4.5253,4.6664,4.7552,4.7943,5.0626,5.2064,5.2439,5.4098,5.486,5.4825,5.5301,5.5364,5.5233,5.6578,5.6706,5.6239,5.7804,5.8148,5.7898,5.8864,5.9698,6.0529,3.2052,3.2792,0.0,0.0,0.0,0.0,3.828,4.0037,4.1443,4.2261,0.0,0.0,0.0,0.0,0.0,0.0,0.0,4.3635,4.4433,0.0,3.7371,0.0,0.0,3.6699,0.0,0.0,0.0,0.0,0.0,0.0,0.0,0.0,0.0,0.0,0.0,3.1367,3.2769,3.2878,3.3792,3.5239,3.53,3.5262,3.5305,0.0,3.6986,3.7597,3.6787,3.6059,3.5437,3.5361,3.5475,3.5609,3.5706,3.515,0.0,0.0,0.0,0.0,0.0,0.0,0.0,3.4872,0.0,0.0,0.0,0.0,3.4375,0.0,0.0,0.0,0.0,0.0,0.0,0.0,0.0,0.0,0.0,3.3915,3.4093,3.3343,3.4672,3.5653,3.5742,3.5776,3.5781,3.5781,3.6555,3.7754,3.9462,4.0969,4.2514,4.414,4.4773,4.5201,4.54,4.6282,4.7655,4.9444,5.1218,5.2897,5.4428,5.5363,5.5696,5.5577,5.5508,5.5437,5.544,5.6256,5.6383,5.6116,5.7426,5.7677,5.746,5.8722,5.9698,6.0529,0.0,0.0,0.0,0.0,0.0,3.6127,3.898,4.1362,4.355,0.0,4.647,0.0,0.0,5.1447,5.2239,0.0,0.0,4.8815,4.8024,4.4935,0.0,0.0,0.0,3.9585,0.0,0.0,0.0,0.0,0.0,0.0,0.0,0.0,0.0,0.0,0.0,3.13,0.0,0.0,0.0,0.0,0.0,3.6247,3.7559,0.0,3.5802,3.5993,3.5717,3.549,3.527,3.5483,3.5577,3.565,3.5859,3.5746,3.5561,3.5857,3.5549,3.5235,3.5859,3.5968,3.5765,3.4905,3.534,0.0,0.0,0.0,0.0,0.0,0.0,0.0,0.0,0.0,0.0,0.0,0.0,0.0,0.0,3.4346,3.4606,3.4883,3.5398,3.5689,3.5684,3.5214,3.5137,3.564,3.5935,3.6853,3.8556,4.0192,4.1837,4.3489,4.4248,4.4861,4.541,4.6934,4.7952,4.8461,5.0895,5.2589,5.3656,5.4542,5.5214,5.5671,5.5615,5.5531,5.5585,5.6395,5.6483,5.6216,5.7759,5.7938,5.7406,5.8119,5.8914,5.9795,3.5174,0.0,0.0,0.0,0.0,3.7726,3.9994,4.3314,0.0,0.0,4.9176,0.0,5.4217,0.0,5.4854,0.0,5.4265,5.1973,4.9371,4.7588,0.0,4.2393,4.2255,0.0,0.0,0.0,0.0,0.0,0.0,3.4403,0.0,0.0,0.0,0.0,0.0,3.1916,3.1443,3.3692,3.412,0.0,0.0,3.6192,0.0,0.0,3.5763,3.6451,3.5534,3.5231,3.5285,3.5531,3.5635,3.5663,3.5933,3.6009,3.6015,3.5983,3.5981,3.6019,3.6019,3.597,3.5843,3.5299,3.5576,3.5814,3.5264,0.0,3.6796,0.0,0.0,0.0,0.0,0.0,0.0,0.0,0.0,0.0,0.0,3.4964,3.5154,3.572,3.5775,3.5718,3.5708,3.5238,3.5122,3.567,3.5684,3.6438,3.8098,3.9551,4.1216,4.3125,4.399,4.476,4.5457,4.698,4.7808,4.8018,5.0385,5.2117,5.3241,5.4087,5.4934,5.5703,5.5649,5.5615,5.5654,5.6122,5.6155,5.6006,5.7262,5.7586,5.7454,5.8026,5.8796,5.9832,0.0,0.0,0.0,0.0,3.8899,0.0,0.0,0.0,4.8828,0.0,5.1132,5.3618,5.6078,5.6249,5.6205,5.6205,5.5432,5.3116,4.8822,4.8499,0.0,0.0,4.325,4.2063,3.9477,0.0,0.0,0.0,0.0,0.0,0.0,0.0,0.0,0.0,3.2812,0.0,3.2999,3.4756,3.4966,3.4242,3.5002,3.5307,3.5305,3.5229,3.6757,3.8629,3.6107,3.5293,3.5412,3.5538,3.5636,3.5714,3.5941,3.6003,3.6005,3.6005,3.6011,3.6019,3.6019,3.5966,3.5916,3.5974,3.5966,3.5914,3.5962,3.6664,3.6992,0.0,0.0,0.0,0.0,0.0,0.0,0.0,0.0,0.0,0.0,0.0,3.5814,3.5853,3.5836,3.5775,3.5713,3.5631,3.5631,3.5708,3.5684,3.6405,3.8103,3.9048,4.0623,4.3127,4.3937,4.4746,4.5594,4.6471,4.7308,4.8125,4.9817,5.151,5.3164,5.4049,5.4895,5.5626,5.561,5.5577,5.5615,5.5558,5.5523,5.5538,5.6022,5.6773,5.7658,5.8352,5.9346,6.0456,3.7913,3.8742,3.9527,0.0,4.0037,4.082,0.0,0.0,0.0,0.0,5.4056,5.6421,5.9625,5.9335,5.8913,5.8913,5.7494,0.0,0.0,0.0,0.0,4.5133,4.5565,4.444,4.1239,4.0647,0.0,3.8435,0.0,0.0,3.4265,0.0,0.0,0.0,0.0,0.0,3.2994,3.4769,3.5318,3.5084,3.5239,3.605,3.699,3.5695,3.6375,3.7789,3.5878,3.5215,3.53,3.5525,3.5625,3.5654,3.5841,3.596,3.6005,3.6005,3.6011,3.6017,3.6011,3.5976,3.598,3.5923,3.5966,3.597,3.5916,3.7065,3.7686,3.62,3.7074,3.7595,3.609,0.0,0.0,0.0,0.0,0.0,0.0,0.0,0.0,3.6673,3.6198,3.5806,3.5797,3.4632,3.4438,3.5681,3.5175,3.581,3.8141,3.9065,4.0623,4.3127,4.3397,4.4168,4.5594,4.6471,4.7308,4.8125,4.9202,5.0625,5.2269,5.3126,5.401,5.4857,5.5423,5.5682,5.5682,5.5671,5.5638,5.5658,5.6431,5.739,5.8433,5.8728,5.9171,5.9679,3.9169,0.0,0.0,4.2225,0.0,0.0,4.5051,4.7073,0.0,5.2748,5.5228,0.0,5.9344,5.9758,5.9764,5.9339,5.8035,0.0,5.3056,0.0,0.0,4.7468,4.7062,4.5667,4.297,4.1072,0.0,3.8352,0.0,0.0,3.4632,0.0,0.0,0.0,0.0,3.3863,3.4133,3.5104,3.5434,3.5345,3.5388,3.5957,0.0,3.5748,3.5912,3.6565,3.5645,3.5254,3.5239,3.5501,3.5599,3.565,3.5833,3.5914,3.596,3.6003,3.6009,3.6013,3.6011,3.6017,3.5978,3.596,3.5962,3.5964,3.5912,3.6636,3.7059,3.6082,3.6632,3.7061,3.6479,3.6047,0.0,0.0,0.0,0.0,0.0,0.0,0.0,0.0,3.6086,3.5814,3.5814,3.496,3.4761,3.5724,3.5339,3.597,3.813,3.8706,4.0243,4.3118,4.3573,4.4361,4.5616,4.6476,4.7113,4.7575,4.8442,4.9702,5.1433,5.2626,5.3664,5.4549,5.5357,5.5703,5.5703,5.5703,5.5692,5.5775,5.7032,5.78,5.8354,5.9197,5.9703,5.9922,4.0229,0.0,0.0,0.0,0.0,0.0,0.0,5.0074,0.0,5.2666,0.0,5.7659,5.7654,5.8797,5.9261,5.8488,0.0,5.584,5.2713,5.3125,5.2279,4.9631,4.8009,4.6257,4.4355,4.1181,3.8866,0.0,0.0,0.0,0.0,0.0,0.0,0.0,0.0,0.0,0.0,3.5509,3.5412,3.5323,3.5412,3.5432,3.5432,3.5681,3.5703,3.5592,3.5579,3.5422,3.5239,3.5501,3.5588,3.563,3.5827,3.5907,3.5909,3.596,3.6003,3.6007,3.6015,3.6013,3.6007,3.6005,3.596,3.5916,3.5882,3.5893,3.593,3.604,3.6003,3.6241,3.71,3.6634,0.0,0.0,0.0,0.0,0.0,0.0,0.0,0.0,0.0,0.0,3.5969,3.5775,3.5685,3.5784,3.5834,3.6503,3.7987,3.8346,3.994,4.2953,4.388,4.4831,4.5843,4.6458,4.6896,4.7264,4.7729,4.8903,5.075,5.2318,5.351,5.4395,5.528,5.5703,5.5703,5.5703,5.578,5.6011,5.7665,5.8141,5.8117,5.9775,6.0472,6.0623,0.0,0.0,0.0,0.0,0.0,4.9328,5.1218,5.2528,5.3789,5.5157,5.7146,5.8686,5.9386,5.8449,5.7705,5.755,5.6738,0.0,0.0,0.0,0.0,4.9602,4.8523,4.684,4.4355,4.1694,4.0234,0.0,0.0,0.0,0.0,0.0,0.0,0.0,0.0,0.0,3.5416,3.5427,0.0,3.5308,3.5345,3.5391,3.556,3.6291,3.6626,3.6637,3.6574,3.5972,3.5239,3.5501,3.5588,3.563,3.5853,3.5894,3.5897,3.5909,3.5958,3.6005,3.6007,3.6017,3.5985,3.6009,3.597,3.5981,3.5923,3.5898,3.6078,3.6748,3.6868,3.7139,3.7998,3.8037,3.7722,0.0,0.0,0.0,0.0,0.0,0.0,0.0,0.0,3.6086,3.6789,3.5568,3.5012,3.5745,3.6396,3.6908,3.7174,3.9203,4.0913,4.2188,4.2992,4.4484,4.6769,4.6182,4.6968,4.9044,4.7717,4.8354,5.075,5.1702,5.2577,5.351,5.5049,5.5703,5.5703,5.5703,5.6126,5.6868,5.7896,5.8669,5.9326,6.0337,6.075,6.0686,0.0,0.0,0.0,0.0,0.0,0.0,0.0,5.4801,5.5715,5.596,5.636,5.694,5.7791,5.7521,5.728,5.728,5.6506,5.5462,5.4169,5.364,5.2438,5.0254,4.8917,4.7409,4.5701,4.1854,4.0156,4.0765,0.0,0.0,0.0,0.0,0.0,0.0,0.0,3.5162,0.0,0.0,3.576,3.5339,3.5913,3.589,3.5626,3.619,3.6655,3.6949,3.6478,3.6207,3.6042,3.5731,3.5635,3.5697,3.5859,3.5889,3.5894,3.5953,3.5962,3.6007,3.6017,3.5674,3.5444,3.59,3.5666,3.5443,3.5815,3.5898,3.6113,3.6923,3.7085,3.7372,3.8231,3.8771,3.8771,3.7916,3.7761,0.0,0.0,0.0,0.0,0.0,0.0,0.0,0.0,3.5654,3.5287,3.5722,3.6541,3.6975,3.6958,3.8965,4.0494,4.1364,4.3027,4.452,4.5742,4.619,4.6823,4.7571,4.7598,4.8235,4.9516,5.1145,5.2405,5.332,5.4559,5.5318,5.5742,5.6214,5.6637,5.7137,5.8434,5.9165,5.9627,6.0473,6.0781,6.0746,0.0,4.8984,0.0,0.0,5.2058,5.3615,5.5056,5.6319,5.7014,5.6618,5.5857,5.5586,5.6205,5.6699,5.6932,5.6777,5.6128,5.5122,5.3614,5.3262,5.237,5.0589,4.9041,4.7717,4.6663,4.2162,4.0152,0.0,0.0,0.0,3.7009,0.0,0.0,0.0,0.0,0.0,3.5705,3.6197,3.6075,3.5614,3.6327,3.6188,3.5665,3.6081,3.6611,3.704,3.6323,3.6472,3.6836,3.595,3.5659,3.5714,3.5869,3.5889,3.5894,3.5999,3.6005,3.597,3.5754,3.5369,3.5094,3.5594,3.5359,3.5136,3.5742,3.605,3.6381,3.7211,3.7654,3.8071,3.8576,3.9392,3.9664,3.881,3.8697,0.0,0.0,0.0,0.0,0.0,0.0,0.0,3.5853,3.5733,3.5718,3.5704,3.6487,3.6886,3.6671,3.8456,3.9887,4.0777,4.3092,4.4594,4.5142,4.6274,4.6646,4.6329,4.7254,4.8009,4.8613,5.0538,5.1982,5.3099,5.3908,5.4811,5.5812,5.6659,5.7225,5.7687,5.8973,5.9627,5.9858,6.055,6.0781,6.0781,0.0,0.0,0.0,0.0,0.0,5.5218,5.6039,5.6253,5.6781,5.8166,5.7598,5.7086,5.7164,5.6545,5.5818,5.5084,5.4967,5.4503,5.3575,5.2683,5.1443,4.9702,4.8694,4.7418,4.5748,4.3008,4.1296,0.0,0.0,3.7336,3.6148,0.0,0.0,3.5706,3.5576,3.5881,3.6435,3.5737,3.5804,3.6353,3.586,3.5637,3.5718,3.6657,3.7121,3.7232,3.7058,3.7058,3.7038,3.6109,3.5753,3.5714,3.5869,3.5889,3.5894,3.5999,3.6005,3.5814,3.5052,3.533,3.5719,3.5016,3.5368,3.5887,3.589,3.6502,3.7299,3.8121,3.9479,4.0364,3.9703,4.0247,4.0519,3.9703,3.9587,3.9587,0.0,0.0,3.8067,3.719,0.0,0.0,3.5791,3.5684,3.5718,3.5704,3.6433,3.6593,3.5858,3.8147,3.9887,4.0777,4.2512,4.4523,4.6844,4.6225,4.6629,4.806,4.6669,4.7217,4.9414,4.9637,5.064,5.226,5.307,5.4342,5.5952,5.676,5.8011,5.9359,5.9457,5.9973,6.0704,6.0781,6.0781,6.0781,0.0,0.0,5.3632,5.413,5.4679,5.5506,5.6764,5.6904,5.7094,5.7723,5.7056,5.6699,5.7241,5.6089,5.5161,5.4813,5.431,5.3644,5.2721,5.1837,5.0782,4.9542,4.8141,4.7104,4.6394,4.3893,4.2225,0.0,0.0,0.0,3.7442,3.7351,3.6999,3.6405,3.6291,3.6625,3.7308,3.6947,3.6676,3.6468,3.6344,3.6013,3.5665,3.6225,3.6785,3.7187,3.6625,3.6777,3.7047,3.6162,3.5827,3.5814,3.588,3.5889,3.5894,3.5999,3.6005,3.5931,3.556,3.5369,3.5252,3.5446,3.5369,3.5342,3.5809,3.6576,3.7414,3.8226,3.9742,4.0791,4.048,4.0674,4.0791,4.048,4.0402,4.0402,0.0,0.0,0.0,3.7928,0.0,3.6687,3.5805,3.5713,3.6139,3.7195,3.7506,3.7334,3.6499,3.8887,4.0429,4.0777,4.2434,4.4059,4.5568,4.5722,4.6412,4.7596,4.738,4.8106,4.9652,5.0066,5.0966,5.2153,5.2963,5.4275,5.5972,5.6801,5.8119,5.9628,6.0145,6.0546,6.0781,6.0781,6.0781,6.0781,5.4336,5.4609,5.4998,5.5792,5.5854,5.6159,5.7243,5.7126,5.6932,5.6932,5.639,5.6235,5.6854,5.5857,5.4967,5.4465,5.3837,5.2962,5.1807,5.0906,5.0044,4.916,4.769,0.0,4.6509,4.4509,4.2934,4.188,4.0809,3.963,3.8386,3.7861,3.7456,3.7267,3.7126,3.7309,3.7819,3.7764,3.7279,3.6515,3.673,3.6306,3.5616,3.5889,3.6321,3.6787,3.6165,3.6354,3.6731,3.6099,3.5897,3.5889,3.5889,3.5889,3.5894,3.5999,3.6005,3.5931,3.5676,3.5369,3.5174,3.5524,3.5525,3.5616,3.6159,3.7123,3.8155,3.8964,4.0092,4.0907,4.0907,4.0907,4.0907,4.0907,4.0907,4.0907,4.0907,4.0208,0.0,3.8772,3.7895,3.7055,3.6172,3.6095,3.6487,3.7477,3.7992,3.8092,3.776,3.9435,4.0623,4.1126,4.255,4.3827,4.4949,4.5761,4.6503,4.7115,4.7936,4.8825,4.9738,5.0494,5.1164,5.1812,5.3163,5.4553,5.6058,5.74,5.876,6.0068,6.0674,6.0911,6.0877,6.0854,6.0816,6.0843,5.5117,5.5976,5.6795,5.7551,5.7613,5.7532,5.7489,5.6637,5.6012,5.6012,5.6012,5.6012,5.6012,5.6012,5.5316,5.3652,5.3456,5.2696,5.1035,5.0023,4.9122,4.8244,4.7382,4.6509,4.5633,4.4739,4.3505,4.1905,0.0,4.0827,3.8413,3.8307,3.8239,3.8074,3.7932,3.786,3.781,3.7738,3.7254,3.6515,3.6704,3.6328,3.5611,3.5827,3.5955,3.6003,3.5914,3.5909,3.5907,3.5894,3.5889,3.5889,3.5889,3.5889,3.5894,3.5999,3.6005,3.5814,3.4935,3.533,3.5797,3.494,3.5994,3.7257,3.7214,3.8487,3.9908,4.071,4.0907,4.0907,4.0907,4.0907,4.0907,4.0907,4.0907,4.0907,4.0907,4.0208,0.0,3.9601,3.8815,3.7947,3.7063,3.698,3.6658,3.5891,3.7352,3.8644,3.9437,3.948,4.0274,4.1932,4.286,4.4098,4.5768,4.6651,4.7076,4.7115,4.7966,4.8856,4.9745,5.0511,5.0898,5.1053,5.3652,5.5238,5.6197,5.8742,6.0229,6.0992,6.098,6.0987,6.0987,6.0933,6.0911,6.1015,5.6133,5.6875,5.7339,5.6839,5.7229,5.7352,5.6567,5.6201,5.6012,5.6012,5.6012,5.578,5.5238,5.4658,5.4078,5.3536,5.2374,5.1451,5.0876,4.9436,4.8458,4.8152,4.6749,4.5893,4.5594,4.5325,4.438,4.2734,4.2801,4.1574,3.9155,3.9063,3.8998,3.8915,3.8762,3.9023,3.945,3.8858,3.8094,3.7279,3.6935,3.6317,3.563,3.582,3.5907,3.5941,3.5907,3.5904,3.5894,3.5892,3.5499,3.5109,3.5694,3.5889,3.5894,3.5999,3.6005,3.5931,3.5676,3.5797,3.5914,3.5641,3.6462,3.7296,3.7214,3.8519,3.9922,4.0727,4.0893,4.0917,4.0917,4.0413,4.0029,4.0029,3.9539,3.9203,3.9203,3.846,3.7898,3.7851,3.7065,3.6425,3.6151,3.6123,3.6725,3.8218,3.828,3.8357,3.8683,4.0316,4.1757,4.286,4.375,4.4717,4.5807,4.6651,4.7386,4.8005,4.8856,4.9707,5.055,5.1409,5.1796,5.1912,5.3923,5.5586,5.7009,5.8392,5.9766,6.1002,6.0982,6.099,6.0987,6.0976,6.0965,6.107,5.6601,5.7031,5.7182,5.6418,5.6741,5.6869,5.6101,5.6012,5.6012,5.6012,5.6012,5.5702,5.489,5.3984,5.3318,5.3009,5.1962,5.1185,5.0794,4.9439,4.8623,4.8586,4.6971,4.6086,4.6086,4.5787,4.494,4.3547,4.297,4.1924,4.0372,4.0033,3.9811,3.97,3.9613,3.9674,3.9766,3.924,3.8323,3.7241,3.6881,3.6285,3.5548,3.5768,3.582,3.5817,3.5892,3.5897,3.5889,3.5889,3.5304,3.4759,3.5616,3.5694,3.5505,3.5882,3.6005,3.6009,3.5988,3.6226,3.6422,3.607,3.7124,3.8311,3.8582,3.9426,4.0286,4.0791,4.0883,4.0902,4.0902,4.0198,3.9616,3.9588,3.8903,3.8373,3.8373,3.7635,3.7186,3.7448,3.6973,3.6647,3.6649,3.6936,3.7649,3.8944,3.9132,3.9204,3.9259,4.1046,4.2454,4.3285,4.413,4.5142,4.6271,4.7154,4.8043,4.8894,4.9745,5.0395,5.0937,5.1447,5.1873,5.2306,5.4039,5.5741,5.7396,5.8604,5.9862,6.1032,6.1032,6.1051,6.101,6.099,6.0797,6.0748,5.6601,5.6601,5.6516,5.634,5.6303,5.623,5.6024,5.6012,5.6012,5.6012,5.5935,5.5625,5.4813,5.3881,5.2966,5.2069,5.1996,5.1643,5.074,4.9884,4.9356,4.9317,4.7778,4.6885,4.6817,4.6009,4.5171,4.4316,4.2809,4.1989,4.188,4.1145,4.0644,4.0415,4.0415,3.9904,3.9088,3.9011,3.8056,3.6574,3.6672,3.6161,3.5432,3.5626,3.5698,3.571,3.5866,3.5889,3.5889,3.5889,3.5304,3.4759,3.5616,3.5304,3.4764,3.5724,3.6003,3.6009,3.5988,3.6656,3.7126,3.6305,3.7948,3.9993,4.0807,4.0951,4.0907,4.0903,4.0883,4.0897,4.0897,4.0144,3.9518,3.95,3.8734,3.8117,3.8117,3.7531,3.7356,3.8119,3.8258,3.8252,3.8214,3.8994,3.9204,3.8533,3.9924,4.0837,4.0969,4.1751,4.255,4.3363,4.4214,4.5452,4.7076,4.7966,4.8856,4.9784,5.055,5.0898,5.0898,5.0975,5.1486,5.2384,5.4194,5.5896,5.7512,5.9261,6.0422,6.1118,6.1118,6.1118,6.107,6.1032,6.051,6.0152,5.6601,5.6557,5.6487,5.6328,5.6246,5.6168,5.6007,5.6012,5.6012,5.6012,5.547,5.4774,5.3884,5.2953,5.2061,5.1185,5.1055,5.0942,5.0701,4.9884,4.9086,4.8432,4.7432,4.6586,4.5932,4.571,4.5171,4.4316,4.3935,4.3065,4.1832,4.164,4.117,4.0466,4.0466,4.03,3.9945,3.9341,3.8435,3.7385,3.6903,3.6161,3.5432,3.5626,3.5698,3.571,3.5866,3.5889,3.5889,3.5889,3.5304,3.4759,3.5616,3.5304,3.4764,3.5675,3.596,3.6007,3.6019,3.6653,3.7243,3.7048,3.8358,3.995,4.08,4.0951,4.0903,4.0917,4.0853,4.0826,4.0804,3.9553,3.854,3.8546,3.7293,3.6338,3.6338,3.6721,3.7099,3.7295,3.8418,3.8949,3.8263,3.9004,3.9706,4.0176,4.0563,4.137,4.2641,4.3518,4.4091,4.4284,4.5104,4.6032,4.7076,4.7966,4.9165,5.0627,5.0821,5.0898,5.0937,5.1602,5.2376,5.3304,5.5664,5.7327,5.841,6.0112,6.0925,6.1118,6.1118,6.1118,6.1118,6.106,6.0558,6.0132,5.6601,5.6551,5.6472,5.6324,5.6225,5.6167,5.6037,5.5702,5.547,5.547,5.4735,5.3876,5.297,5.2425,5.1726,5.0824,5.072,5.0692,5.0712,4.9875,4.9356,4.9279,4.774,4.6855,4.674,4.5979,4.5364,4.4893,4.4509,4.3662,4.2393,4.2,4.133,4.0482,4.0482,4.0432,4.023,3.9435,3.8797,3.8218,3.7048,3.6365,3.5957,3.5725,3.5663,3.571,3.5866,3.5889,3.5889,3.5889,3.5304,3.4759,3.5616,3.5304,3.4761,3.5627,3.5953,3.6085,3.6485,3.7237,3.8064,3.8843,3.9687,4.0402,4.0873,4.1572,4.1874,4.1044,4.1174,4.1308,4.0937,3.9403,3.8263,3.8236,3.6813,3.5689,3.5689,3.6464,3.7146,3.7506,3.9054,4.0054,3.9959,4.0732,4.1429,4.1893,4.2318,4.2937,4.3866,4.5065,4.5568,4.5142,4.5955,4.6999,4.8275,4.9126,5.0008,5.0898,5.0898,5.0898,5.0937,5.1409,5.2066,5.2995,5.4774,5.6283,5.7521,5.9261,6.019,6.0576,6.0963,6.1118,6.1079,6.0692,6.0267,6.0074,5.6601,5.6549,5.6422,5.6324,5.6247,5.6139,5.6029,5.5316,5.4813,5.4813,5.4039,5.3172,5.2387,5.2275,5.1913,5.0971,5.0884,5.0827,5.0712,5.001,4.9856,5.0481,4.8317,4.7346,4.7932,4.6394,4.5594,4.5594,4.4855,4.4085,4.3278,4.2393,4.1522,4.0683,4.0559,4.0441,4.0278,3.9435,3.9065,3.8858,3.7169,3.6572,3.6601,3.5879,3.5645,3.5689,3.5862,3.5889,3.5889,3.5889,3.5421,3.4915,3.5655,3.546,3.5148,3.5889,3.6219,3.6512,3.7109,3.8096,3.9352,4.0914,4.1328,4.1378,4.1381,4.2507,4.3078,4.1563,4.1854,4.211,4.1251,3.9663,3.8473,3.8489,3.6929,3.5751,3.5857,3.6748,3.7627,3.8334,4.0152,4.1583,4.2125,4.2976,4.3556,4.3672,4.4369,4.491,4.5174,4.6535,4.6999,4.6426,4.696,4.8082,4.9668,5.0511,5.0898,5.0898,5.0898,5.0898,5.0898,5.0898,5.1447,5.2461,5.3304,5.4658,5.6321,5.7946,5.9106,5.9957,6.0654,6.1002,6.1002,6.019,5.988,5.9996,5.6601,5.645,5.6324,5.6312,5.613,5.5999,5.6012,5.5316,5.4813,5.4813,5.4039,5.3404,5.3198,5.3163,5.2761,5.1866,5.1732,5.1443,5.075,5.0558,5.025,4.9625,4.8509,4.7663,4.7077,4.6124,4.5594,4.5594,4.5479,4.4979,4.4085,4.3278,4.2423,4.1569,4.0844,4.0449,4.0321,3.9491,3.9065,3.8858,3.7169,3.6498,3.6441,3.5842,3.5599,3.564,3.5846,3.5889,3.5889,3.5889,3.5811,3.5733,3.585,3.6317,3.6824,3.6941,3.7537,3.7981,3.7371,3.8912,4.0953,4.1967,4.2695,4.3216,4.3216,4.3367,4.3422,4.3096,4.3125,4.2964,4.2083,4.0521,3.9386,3.932,3.7278,3.5955,3.6605,3.8092,3.9143,3.9268,4.2086,4.3788,4.3169,4.3904,4.4678,4.5381,4.5536,4.6264,4.7734,4.8043,4.8469,4.9088,4.8508,4.8662,4.9707,5.0511,5.0898,5.0898,5.0898,5.0898,5.0898,5.0898,5.1796,5.3343,5.4233,5.5548,5.7164,5.8178,5.9106,5.9919,6.0035,6.0499,6.1002,6.019,5.988,5.9919,5.6601,5.6502,5.6361,5.632,5.6173,5.6079,5.602,5.5316,5.4813,5.4813,5.4022,5.3409,5.3356,5.331,5.2916,5.205,5.1905,5.1548,5.075,5.025,4.9817,4.9433,4.8163,4.7048,4.6201,4.5825,4.5594,4.5594,4.5594,4.5171,4.4278,4.3932,4.3316,4.2462,4.2036,4.1571,4.1058,4.0631,4.0165,3.9546,3.7827,3.719,3.7141,3.6015,3.5625,3.5693,3.5856,3.5889,3.5889,3.5889,3.5889,3.5889,3.5889,3.6512,3.7214,3.7214,3.8472,3.9814,3.9406,4.0861,4.2591,4.2961,4.3669,4.4185,4.3653,4.423,4.4593,4.365,4.3845,4.3723,4.2392,4.0747,3.9723,4.0178,3.7686,3.6469,3.8678,3.9303,3.9995,4.1396,4.3363,4.4601,4.4639,4.5452,4.6109,4.6464,4.6982,4.7601,4.8353,4.8839,4.9265,4.9707,4.9745,4.9939,5.0318,5.0705,5.0898,5.0898,5.0898,5.0898,5.0898,5.0898,5.1602,5.284,5.373,5.4813,5.6089,5.7869,5.8845,5.93,6.019,6.077,6.1002,6.019,6.0151,6.046,5.6601,5.6551,5.6472,5.6324,5.6225,5.6089,5.5766,5.52,5.4735,5.4503,5.4044,5.3692,5.3599,5.3793,5.3427,5.2318,5.2192,5.1779,5.0789,5.0048,4.9625,4.9394,4.7778,4.6509,4.5633,4.5594,4.5594,4.5594,4.5594,4.524,4.4568,4.4376,4.3953,4.3359,4.2885,4.2312,4.1663,4.1417,4.0912,4.0148,3.84,3.789,3.8046,3.6503,3.6086,3.6336,3.645,3.6512,3.6512,3.6512,3.6512,3.6512,3.6512,3.7097,3.7798,3.7798,3.9641,4.1649,4.1437,4.2655,4.3997,4.3905,4.4562,4.4998,4.428,4.5097,4.5652,4.4365,4.4598,4.4598,4.3088,4.1553,4.0723,4.1378,3.8918,3.789,4.0726,4.0688,4.1141,4.3079,4.4266,4.5233,4.6046,4.6742,4.7284,4.7671,4.8403,4.8875,4.9001,4.965,5.0114,5.0317,5.0681,5.0983,5.1231,5.1231,5.1231,5.1239,5.1239,5.1122,5.0968,5.0968,5.1509,5.2546,5.3204,5.4086,5.5238,5.7172,5.8101,5.8449,5.9957,6.0654,6.0731,6.0112,6.0422,6.0963,5.6601,5.6551,5.6472,5.6324,5.6225,5.5895,5.5031,5.4851,5.4503,5.3691,5.4233,5.4654,5.4516,5.5239,5.5007,5.3251,5.3087,5.2433,5.0827,5.0635,5.025,4.9433,4.7778,4.6509,4.5633,4.5594,4.5594,4.5594,4.5594,4.553,4.5408,4.4639,4.4228,4.4067,4.244,4.1685,4.157,4.0749,4.0348,4.0148,3.84,3.8243,3.8945,3.7403,3.7337,3.8132,3.8244,3.8305,3.8305,3.8305,3.8305,3.8305,3.8305,3.8928,3.963,3.963,4.1434,4.3245,4.252,4.3591,4.4901,4.4804,4.5462,4.6054,4.592,4.5957,4.5963,4.5846,4.5885,4.5652,4.4753,4.386,4.3228,4.3208,4.1704,4.0888,4.1845,4.2632,4.3175,4.3385,4.4828,4.6125,4.7016,4.7171,4.7829,4.9378,4.9646,5.0047,5.0861,5.0977,5.1326,5.2063,5.1331,5.1308,5.2174,5.2213,5.2189,5.2218,5.2218,5.1791,5.1087,5.1087,5.1918,5.3399,5.3476,5.442,5.5935,5.6128,5.667,5.7473,5.841,5.9261,5.9996,5.9919,6.0422,6.0963,5.6601,5.6561,5.6511,5.643,5.6397,5.6212,5.574,5.5666,5.5513,5.51,5.5329,5.5516,5.5403,5.5644,5.5132,5.3356,5.3203,5.2472,5.0827,5.0712,5.0048,4.8663,4.6971,4.5932,4.5594,4.5594,4.5594,4.5594,4.5594,4.5568,4.5485,4.5177,4.4996,4.4902,4.4241,4.3369,4.2326,4.1973,4.1266,4.0186,3.8973,3.878,3.9107,3.8054,3.7913,3.833,3.8439,3.85,3.85,3.85,3.85,3.85,3.85,3.9084,4.0019,4.1029,4.2808,4.4351,4.4041,4.4875,4.5799,4.5739,4.5958,4.6165,4.6056,4.6032,4.6002,4.6002,4.6002,4.5769,4.4948,4.4093,4.3661,4.4199,4.2379,4.1752,4.4162,4.389,4.3801,4.4826,4.5977,4.6855,4.7165,4.8173,4.9064,4.9723,5.03,5.0739,5.1101,5.1566,5.2225,5.3085,5.2746,5.2739,5.3102,5.3102,5.2838,5.2302,5.2302,5.1876,5.1101,5.1101,5.1964,5.3515,5.3515,5.4768,5.6854,5.7404,5.8139,5.899,5.9841,6.0344,6.0654,6.0654,6.0847,6.1079,5.6601,5.6601,5.6561,5.6495,5.6489,5.6341,5.588,5.6045,5.6057,5.566,5.584,5.5952,5.5885,5.5576,5.4803,5.3318,5.2972,5.2202,5.0789,5.0442,4.9625,4.8163,4.674,4.5893,4.5594,4.5594,4.5594,4.5594,4.5577,4.5541,4.5457,4.5477,4.5448,4.5351,4.5082,4.4153,4.2805,4.2814,4.1839,4.0234,3.9686,3.9553,3.9602,3.8849,3.8971,3.9529,3.938,3.9669,4.0058,3.9786,3.9708,3.9747,4.0019,4.0523,4.1224,4.2354,4.3746,4.4902,4.4902,4.5577,4.627,4.6239,4.6183,4.616,4.6047,4.6002,4.6002,4.6002,4.6002,4.5846,4.5297,4.4676,4.4481,4.5064,4.3666,4.3311,4.5664,4.496,4.4639,4.5786,4.6705,4.7313,4.7585,4.8949,4.9918,5.019,5.0765,5.1237,5.1483,5.2298,5.3158,5.4012,5.4051,5.4167,5.4439,5.416,5.3571,5.2731,5.2731,5.2298,5.1483,5.1237,5.214,5.3917,5.3639,5.4962,5.7357,5.7946,5.872,5.9571,6.0383,6.0731,6.0731,6.1002,6.1118,6.1118,5.6601,5.6601,5.6561,5.6497,5.6489,5.616,5.5155,5.5675,5.5858,5.4925,5.5512,5.5943,5.5807,5.5016,5.4149,5.328,5.2385,5.1548,5.075,4.9894,4.9009,4.8163,4.7355,4.6509,4.5633,4.5594,4.5594,4.5594,4.5541,4.5457,4.54,4.539,4.5378,4.525,4.4399,4.3548,4.2794,4.2794,4.1839,4.032,4.0444,4.0574,4.0635,3.9874,4.0743,4.2198,4.138,4.2159,4.3445,4.2588,4.2315,4.2471,4.3328,4.3601,4.3601,4.3601,4.4214,4.4902,4.4902,4.5584,4.6276,4.6238,4.6183,4.616,4.6012,4.6002,4.6002,4.6002,4.6002,4.6002,4.6002,4.6002,4.6041,4.6002,4.6002,4.6002,4.6002,4.6002,4.6002,4.6041,4.6785,4.7621,4.843,4.929,5.015,5.1037,5.1184,5.1552,5.2368,5.3228,5.4116,5.4971,5.5009,5.5437,5.6291,5.5365,5.4518,5.3695,5.3695,5.3228,5.2368,5.1483,5.2492,5.4815,5.3879,5.4923,5.728,5.728,5.783,5.8729,5.9571,5.9919,5.9996,6.0809,6.1118,6.1118,5.6601,5.6601,5.6601,5.656,5.6559,5.6435,5.6123,5.6156,5.6086,5.5747,5.5835,5.5663,5.4949,5.4669,5.3918,5.2433,5.2038,5.1548,5.075,5.0481,4.9933,4.9048,4.8202,4.7355,4.6547,4.6509,4.6201,4.5594,4.5541,4.5457,4.54,4.539,4.5378,4.5288,4.501,4.4437,4.3624,4.3624,4.2718,4.1272,4.133,4.1124,4.0824,4.0587,4.0929,4.1419,4.1185,4.177,4.2666,4.2393,4.2705,4.325,4.3523,4.4001,4.452,4.452,4.5167,4.5889,4.5889,4.6095,4.6272,4.6211,4.6199,4.6169,4.6087,4.6012,4.6002,4.6002,4.6502,4.6735,4.6118,4.7007,4.7434,4.6196,4.6502,4.6929,4.6929,4.6385,4.6468,4.7667,4.805,4.8549,4.9404,5.0258,5.1113,5.1967,5.2595,5.3339,5.4194,5.4465,5.5009,5.5864,5.5903,5.6019,5.6291,5.543,5.4537,5.3695,5.3067,5.2368,5.1552,5.125,5.1832,5.3078,5.2763,5.442,5.728,5.728,5.8526,6.0383,6.0654,6.0731,6.077,6.1002,6.1118,6.1118,5.6601,5.6601,5.6601,5.6601,5.6601,5.6601,5.6551,5.6365,5.6207,5.6161,5.5999,5.5624,5.5034,5.4678,5.3936,5.2549,5.1818,5.1202,5.075,5.0712,5.0481,4.9933,4.9086,4.8086,4.6923,4.6547,4.6124,4.5594,4.5523,4.5438,4.54,4.537,4.5357,4.5288,4.5288,4.4819,4.4006,4.435,4.3436,4.1739,4.2148,4.1738,4.0912,4.0948,4.1225,4.1575,4.1575,4.2318,4.3332,4.3332,4.3919,4.4589,4.4238,4.4718,4.5396,4.5396,4.5841,4.6284,4.6284,4.6566,4.6816,4.6718,4.6672,4.6757,4.7054,4.7086,4.7045,4.7045,4.7434,4.7667,4.7123,4.79,4.825,4.7201,4.7473,4.7822,4.7822,4.7356,4.7434,4.8483,4.891,4.9304,4.9848,5.0697,5.1513,5.2329,5.3533,5.4427,5.4971,5.532,5.5747,5.6291,5.6291,5.6291,5.6291,5.5437,5.4543,5.3695,5.2834,5.2135,5.1668,5.1619,5.2013,5.2845,5.3135,5.4791,5.7318,5.7675,5.9106,6.1118,6.1118,6.1118,6.1118,6.1118,6.1118,6.1118,5.6601,5.6601,5.6601,5.6601,5.6601,5.6601,5.6601,5.6386,5.6217,5.6191,5.5946,5.5728,5.5598,5.4934,5.4164,5.328,5.1741,5.0789,5.0712,5.0712,5.0712,5.0712,4.9779,4.8586,4.7038,4.6163,4.5671,4.5594,4.5457,4.54,4.54,4.5339,4.5288,4.5288,4.5288,4.4857,4.4159,4.4972,4.3992,4.204,4.2869,4.2315,4.1047,4.1162,4.1653,4.2315,4.2393,4.3487,4.4897,4.4975,4.553,4.605,4.5273,4.5554,4.6228,4.6228,4.6238,4.6286,4.6286,4.6956,4.7596,4.7617,4.7608,4.781,4.8535,4.8642,4.8599,4.8599,4.8677,4.8677,4.8599,4.8716,4.8794,4.8638,4.8677,4.8716,4.8716,4.8638,4.8677,4.8794,4.946,4.9926,5.0004,5.0853,5.1746,5.2445,5.4116,5.5126,5.5126,5.5786,5.6214,5.6291,5.6136,5.6097,5.6175,5.5242,5.4427,5.3695,5.2834,5.24,5.24,5.233,5.2722,5.3529,5.4343,5.5625,5.7241,5.8101,5.9532,6.1118,6.1118,6.1079,6.1002,6.1079,6.1041,6.1002,5.6601,5.6601,5.6601,5.66,5.66,5.6599,5.6597,5.639,5.6203,5.6197,5.5935,5.5493,5.4818,5.4587,5.4164,5.328,5.2241,5.1356,5.075,5.0712,5.0712,5.0712,4.9202,4.8202,4.7855,4.7048,4.6278,4.5594,4.5457,4.54,4.54,4.5339,4.5288,4.5288,4.5288,4.5201,4.501,4.5201,4.4766,4.3856,4.3374,4.2715,4.1983,4.2036,4.2159,4.2393,4.3056,4.4004,4.4994,4.5708,4.6025,4.6184,4.5989,4.6075,4.6282,4.6282,4.6288,4.6298,4.6298,4.6923,4.7753,4.8359,4.8975,4.9291,4.8801,4.8638,4.8599,4.8599,4.9143,4.9421,4.8716,4.9726,5.0192,4.8832,4.9182,4.9615,4.9615,4.9027,4.9104,5.0464,5.0192,5.0159,5.0853,5.229,5.3228,5.3423,5.5009,5.6019,5.6019,5.5553,5.5592,5.6291,5.4977,5.4582,5.5281,5.3727,5.3222,5.3695,5.2809,5.2402,5.2402,5.2327,5.2414,5.2639,5.3444,5.4735,5.6351,5.7211,5.899,6.1118,6.1118,6.0692,6.0228,6.0886,6.0692,6.0267,5.6601,5.6601,5.6601,5.6601,5.66,5.6599,5.6597,5.6383,5.6185,5.6185,5.5917,5.5549,5.5126,5.5049,5.4587,5.3318,5.2049,5.1164,5.075,5.0712,5.0712,5.0712,4.9433,4.8548,4.8125,4.7308,4.6471,4.5594,4.5457,4.54,4.54,4.5339,4.5288,4.5288,4.5288,4.5288,4.5288,4.5351,4.5064,4.4485,4.4085,4.3515,4.2939,4.2939,4.2906,4.3033,4.3929,4.4799,4.5593,4.6069,4.6231,4.6236,4.6236,4.6284,4.6292,4.6292,4.6296,4.6378,4.6807,4.7549,4.8377,4.9218,5.003,5.0503,5.001,4.9883,4.9843,4.9843,5.0192,5.0386,4.992,5.0581,5.0891,4.9998,5.0231,5.0503,5.0503,5.0114,5.0192,5.1086,5.0814,5.0853,5.1707,5.295,5.3889,5.4271,5.5553,5.6291,5.6291,5.5476,5.5398,5.6253,5.4627,5.4116,5.5009,5.3689,5.3022,5.3081,5.2635,5.2382,5.2408,5.3584,5.3677,5.2973,5.5023,5.6205,5.6699,5.8023,5.9571,6.1118,6.1118,6.0615,5.9996,6.0809,6.0847,6.0538,5.6601,5.6601,5.6601,5.6601,5.66,5.6598,5.6597,5.6344,5.6179,5.6179,5.5917,5.5703,5.5703,5.5588,5.4895,5.3318,5.1779,5.0866,5.0712,5.0712,5.0712,5.0712,4.9856,4.9048,4.8355,4.7385,4.6462,4.5577,4.5448,4.54,4.539,4.5329,4.5288,4.5288,4.5288,4.5309,4.5321,4.5446,4.521,4.477,4.4716,4.4349,4.3803,4.3803,4.3815,4.395,4.4805,4.5596,4.6231,4.6233,4.624,4.6288,4.6288,4.6294,4.63,4.63,4.63,4.6495,4.7352,4.8174,4.9002,4.9882,5.0695,5.1284,5.1222,5.1206,5.1202,5.1202,5.1202,5.1241,5.1396,5.128,5.1241,5.1396,5.128,5.1202,5.1202,5.1202,5.1202,5.1202,5.1202,5.1513,5.2329,5.319,5.4038,5.4932,5.5825,5.6291,5.6291,5.5476,5.5404,5.6272,5.4594,5.4122,5.5028,5.4005,5.321,5.2628,5.2777,5.2789,5.2792,5.5079,5.5365,5.4312,5.7306,5.8178,5.7637,5.9223,6.0383,6.1118,6.1118,6.0538,5.9725,6.0267,6.0731,6.1079,5.6601,5.6601,5.6601,5.66,5.6597,5.6592,5.6587,5.6312,5.6104,5.6104,5.5852,5.5703,5.5703,5.5088,5.428,5.328,5.2308,5.1433,5.075,5.0712,5.0712,5.0712,4.9856,4.9356,4.924,4.7655,4.6407,4.5494,4.5438,4.5381,4.5418,4.5309,4.5288,4.5288,4.5288,4.5371,4.5458,4.5479,4.5602,4.574,4.4992,4.4712,4.4721,4.4721,4.473,4.4821,4.5718,4.6155,4.6284,4.6294,4.6298,4.6298,4.6298,4.63,4.63,4.63,4.63,4.6495,4.7352,4.8174,4.9002,4.9882,5.0695,5.1284,5.1222,5.1206,5.1202,5.1202,5.1202,5.1396,5.2096,5.1668,5.1435,5.2135,5.1668,5.1202,5.1202,5.1202,5.1202,5.1202,5.1202,5.1513,5.2329,5.319,5.4038,5.4932,5.5825,5.6291,5.6291,5.5476,5.5384,5.6258,5.4618,5.4146,5.5091,5.3408,5.2893,5.3521,5.4224,5.4529,5.4491,5.5534,5.6291,5.6863,5.8062,5.8526,5.8488,5.9493,6.0383,6.1118,6.1118,6.0151,5.8681,5.8062,5.9223,6.1002,5.6601,5.6601,5.6601,5.6599,5.6594,5.6585,5.6582,5.6383,5.6181,5.611,5.5938,5.576,5.5724,5.4549,5.3626,5.3241,5.201,5.1087,5.0712,5.0712,5.0712,5.0712,5.0327,4.9894,4.9394,4.8606,4.776,4.6897,4.5889,4.539,4.5408,4.5347,4.5288,4.5288,4.5362,4.5444,4.5517,4.5722,4.5858,4.5964,4.5659,4.5585,4.5621,4.563,4.5643,4.5733,4.6128,4.6251,4.6294,4.63,4.63,4.63,4.63,4.63,4.63,4.63,4.63,4.6573,4.79,4.8525,4.9231,5.1081,5.1797,5.2136,5.2603,5.2692,5.249,5.1997,5.1863,5.2135,5.295,5.2834,5.2562,5.2407,5.2096,5.1707,5.128,5.1202,5.1202,5.1202,5.1591,5.2212,5.3028,5.3922,5.4582,5.4971,5.5825,5.6097,5.5592,5.4737,5.4911,5.6257,5.4134,5.3629,5.5013,5.3784,5.3327,5.3715,5.5014,5.5598,5.5606,5.7383,5.8139,5.8101,5.9416,5.9725,5.9377,6.0228,6.077,6.1118,6.1118,6.0383,5.9261,5.8874,5.9455,6.0422]}]]